[[{"header":{"parameterUnit":"m.s-1","parameterCategory":1,"la1":31.0,"la2":29.5877,"lo1":-88.7671,"lo2":-86.6584,"dx":0.0162,"dy":0.0185,"nx":115,"ny":88,"refTime":"2023-01-03T18:00:00:Z","depth":0,"parameterNumber":2,"parameterNumberName":"U-component_of_WINDS"},"data":[0.0,0.0,0.0,0.0,0.0,0.0,0.0,0.0,0.0,0.0,0.0,0.0,0.0,0.0,0.0,0.0,0.0,0.0,0.0,0.0,0.0,0.0,0.0,0.0,0.0,0.0,0.0,0.0,0.0,0.0,0.0,0.0,0.0,0.0,0.0,0.0,0.0,0.0,0.0,0.0,0.0,0.0,0.0,0.0,0.0,0.0,0.0,0.0,0.0,0.0,0.0,0.0,0.0,0.0,0.0,0.0,0.0,0.0,0.0,0.0,0.0,0.0,0.0,0.0,0.0,0.0,0.0,0.0,0.0,0.0,0.0,0.0,0.0,0.0,0.0,0.0,0.0,0.0,0.0,0.0,0.0,0.0,0.0,0.0,0.0,0.0,0.0,0.0,0.0,0.0,0.0,0.0,0.0,0.0,0.0,0.0,0.0,0.0,0.0,0.0,0.0,0.0,0.0,0.0,0.0,0.0,0.0,0.0,0.0,0.0,0.0,0.0,0.0,0.0,0.0,0.0,0.0,0.0,0.0,0.0,0.0,0.0,0.0,0.0,0.0,0.0,0.0,0.0,0.0,0.0,0.0,0.0,0.0,0.0,0.0,0.0,0.0,0.0,0.0,0.0,0.0,0.0,0.0,0.0,0.0,0.0,0.0,0.0,0.0,0.0,0.0,0.0,0.0,0.0,0.0,0.0,0.0,0.0,0.0,0.0,0.0,0.0,0.0,0.0,0.0,0.0,0.0,0.0,0.0,0.0,0.0,0.0,0.0,0.0,0.0,0.0,0.0,0.0,0.0,0.0,0.0,0.0,0.0,0.0,0.0,0.0,0.0,0.0,0.0,0.0,0.0,0.0,0.0,0.0,0.0,0.0,0.0,0.0,0.0,0.0,0.0,0.0,0.0,0.0,0.0,0.0,0.0,0.0,0.0,0.0,0.0,0.0,0.0,0.0,0.0,0.0,0.0,0.0,0.0,0.0,0.0,0.0,0.0,0.0,0.0,0.0,0.0,0.0,0.0,0.0,0.0,0.0,0.0,0.0,0.0,0.0,0.0,0.0,0.0,0.0,0.0,0.0,0.0,0.0,0.0,0.0,0.0,0.0,0.0,0.0,0.0,0.0,0.0,0.0,0.0,0.0,0.0,0.0,0.0,0.0,0.0,0.0,0.0,0.0,0.0,0.0,0.0,0.0,0.0,0.0,0.0,0.0,0.0,0.0,0.0,0.0,0.0,0.0,0.0,0.0,0.0,0.0,0.0,0.0,0.0,0.0,0.0,0.0,0.0,0.0,0.0,0.0,0.0,0.0,0.0,0.0,0.0,0.0,0.0,0.0,0.0,0.0,0.0,0.0,0.0,0.0,0.0,0.0,0.0,0.0,0.0,0.0,0.0,0.0,0.0,0.0,0.0,0.0,0.0,0.0,0.0,0.0,0.0,0.0,0.0,0.0,0.0,0.0,0.0,0.0,0.0,0.0,0.0,0.0,0.0,0.0,0.0,0.0,0.0,0.0,0.0,0.0,0.0,0.0,0.0,0.0,0.0,0.0,0.0,0.0,0.0,0.0,0.0,0.0,0.0,0.0,0.0,0.0,0.0,0.0,0.0,0.0,0.0,0.0,0.0,0.0,0.0,0.0,0.0,0.0,0.0,0.0,0.0,0.0,0.0,0.0,0.0,0.0,0.0,0.0,0.0,0.0,0.0,0.0,0.0,0.0,0.0,0.0,0.0,0.0,0.0,0.0,0.0,0.0,0.0,0.0,0.0,0.0,0.0,0.0,0.0,0.0,0.0,0.0,0.0,0.0,0.0,0.0,0.0,0.0,0.0,0.0,0.0,0.0,0.0,0.0,0.0,0.0,0.0,0.0,0.0,0.0,0.0,0.0,0.0,0.0,0.0,0.0,0.0,0.0,0.0,0.0,0.0,0.0,0.0,0.0,0.0,0.0,0.0,0.0,0.0,0.0,0.0,0.0,0.0,0.0,0.0,0.0,0.0,0.0,0.0,0.0,0.0,0.0,0.0,0.0,0.0,0.0,0.0,0.0,0.0,0.0,0.0,0.0,0.0,0.0,0.0,0.0,0.0,0.0,0.0,0.0,0.0,0.0,0.0,0.0,0.0,0.0,0.0,0.0,0.0,0.0,0.0,0.0,0.0,0.0,0.0,0.0,0.0,0.0,0.0,0.0,0.0,0.0,0.0,0.0,0.0,0.0,0.0,0.0,0.0,0.0,0.0,0.0,0.0,0.0,0.0,0.0,0.0,0.0,0.0,0.0,0.0,0.0,0.0,0.0,0.0,0.0,0.0,0.0,0.0,0.0,0.0,0.0,0.0,0.0,0.0,0.0,0.0,0.0,0.0,0.0,0.0,0.0,0.0,0.0,0.0,0.0,0.0,0.0,0.0,0.0,0.0,0.0,0.0,0.0,0.0,0.0,0.0,0.0,0.0,0.0,0.0,0.0,0.0,0.0,0.0,0.0,0.0,0.0,0.0,0.0,0.0,0.0,0.0,0.0,0.0,0.0,0.0,0.0,0.0,0.0,0.0,0.0,0.0,0.0,0.0,0.0,0.0,0.0,0.0,0.0,0.0,0.0,0.0,0.0,0.0,0.0,0.0,0.0,0.0,0.0,0.0,0.0,0.0,0.0,0.0,0.0,0.0,0.0,0.0,0.0,0.0,0.0,0.0,0.0,0.0,0.0,0.0,0.0,0.0,0.0,0.0,0.0,0.0,0.0,0.0,0.0,0.0,0.0,0.0,0.0,0.0,0.0,0.0,0.0,0.0,0.0,0.0,0.0,0.0,0.0,0.0,0.0,0.0,0.0,0.0,0.0,0.0,0.0,0.0,0.0,0.0,0.0,0.0,0.0,0.0,0.0,0.0,0.0,0.0,0.0,0.0,0.0,0.0,0.0,0.0,0.0,0.0,0.0,0.0,0.0,0.0,0.0,0.0,0.0,0.0,0.0,0.0,0.0,0.0,0.0,0.0,0.0,0.0,0.0,0.0,0.0,0.0,0.0,0.0,0.0,0.0,0.0,0.0,0.0,0.0,0.0,0.0,0.0,0.0,0.0,0.0,0.0,0.0,0.0,0.0,0.0,0.0,0.0,0.0,0.0,0.0,0.0,0.0,0.0,0.0,0.0,0.0,0.0,0.0,0.0,0.0,0.0,0.0,0.0,0.0,0.0,0.0,0.0,0.0,0.0,0.0,0.0,0.0,0.0,0.0,0.0,0.0,0.0,0.0,0.0,0.0,0.0,0.0,0.0,0.0,0.0,0.0,0.0,0.0,0.0,0.0,0.0,0.0,0.0,0.0,0.0,0.0,0.0,0.0,0.0,0.0,0.0,0.0,0.0,0.0,0.0,0.0,0.0,0.0,0.0,0.0,0.0,0.0,0.0,0.0,0.0,0.0,0.0,0.0,0.0,0.0,0.0,0.0,0.0,0.0,0.0,0.0,0.0,0.0,0.0,0.0,0.0,0.0,0.0,0.0,0.0,0.0,0.0,0.0,0.0,0.0,0.0,0.0,0.0,0.0,0.0,0.0,0.0,0.0,0.0,0.0,0.0,0.0,0.0,0.0,0.0,0.0,0.0,0.0,0.0,0.0,0.0,0.0,0.0,0.0,0.0,0.0,0.0,0.0,0.0,0.0,0.0,0.0,0.0,0.0,0.0,0.0,0.0,0.0,0.0,0.0,0.0,0.0,0.0,0.0,0.0,0.0,0.0,0.0,0.0,0.0,0.0,0.0,0.0,0.0,0.0,0.0,0.0,0.0,0.0,0.0,0.0,0.0,0.0,0.0,0.0,0.0,0.0,0.0,0.0,0.0,0.0,0.0,0.0,0.0,0.0,0.0,0.0,0.0,0.0,0.0,0.0,0.0,0.0,0.0,0.0,0.0,0.0,0.0,0.0,0.0,0.0,0.0,0.0,0.0,0.0,0.0,0.0,0.0,0.0,0.0,0.0,0.0,0.0,0.0,0.0,0.0,0.0,0.0,0.0,0.0,0.0,0.0,0.0,0.0,0.0,0.0,0.0,0.0,0.0,0.0,0.0,0.0,0.0,0.0,0.0,0.0,0.0,0.0,0.0,0.0,0.0,0.0,0.0,0.0,0.0,0.0,0.0,0.0,0.0,0.0,0.0,0.0,0.0,0.0,0.0,0.0,0.0,0.0,0.0,0.0,0.0,0.0,0.0,0.0,0.0,0.0,0.0,0.0,0.0,0.0,0.0,0.0,0.0,0.0,0.0,0.0,0.0,0.0,0.0,-0.0316,0.0,0.0,0.0,-0.1385,0.0,0.0,0.0,0.0,0.0,0.0,0.0,0.0,0.0,0.0,0.0,0.0,0.0,0.0,0.0,0.0,0.0,0.0,0.0,0.0,0.0,0.0,0.0,0.0,0.0,0.0,0.0,0.0,0.0,0.0,0.0,0.0,0.0,0.0,0.0,0.0,0.0,0.0,0.0,0.0,0.0,0.0,0.0,0.0,0.0,0.0,0.0,0.0,0.0,0.0,0.0,0.0,0.0,0.0,0.0,0.0,0.0,0.0,0.0,0.0,0.0,0.0,0.0,0.0,0.0,0.0,0.0,0.0,0.0,0.0,0.0,0.0,0.0,0.0,0.0,0.0,0.0,0.0,0.0,0.0,0.0,0.0,0.0,0.0,0.0,0.0,0.0,0.0,0.0,0.0,0.0,0.0,0.0,0.0,0.0,0.0,0.0,0.0,0.0,0.0,0.0,0.0,0.0,0.0,0.0,0.0,0.0,0.0,0.0,0.0,-0.034,-0.041,-0.1019,-0.1238,-0.0998,0.0,0.0,0.0,0.0,0.0,0.0,0.0,0.0,0.0,0.0,0.0,0.0,0.0,0.0,0.0,0.0,0.0,0.0,0.0,0.0,0.0,0.0,0.0,0.0,0.0,0.0,0.0,0.0,0.0,0.0,0.0,0.0,0.0,0.0,0.0,0.0,0.0,0.0,0.0,0.0,0.0,0.0,0.0,0.0,0.0,0.0,0.0,0.0,0.0,0.0,0.0,0.0,0.0,0.0,0.0,0.0,0.0,0.0,0.0,0.0,0.0,0.0,0.0,0.0,0.0,0.0,0.0,0.0,0.0,0.0,0.0,0.0,0.0,0.0,0.0,0.0,0.0,0.0,0.0,0.0,0.0,0.0,0.0,0.0,0.0,0.0,0.0,0.0,0.0,0.0,0.0,0.0,0.0,0.0,0.0,0.0,0.0,0.0,0.0,0.0,0.0,0.0,0.0,0.0,0.0,0.0,0.0,0.0,0.0,0.0,0.0,0.0,-0.0949,-0.125,-0.1014,0.0,0.0,0.0,0.0,0.0,0.0,0.0,0.0,0.0,0.0,0.0,0.0,0.0,0.0,0.0,0.0,0.0,0.0,0.0,0.0,0.0,0.0,0.0,0.0,0.0,0.0,0.0,0.0,0.0,0.0,0.0,0.0,0.0,0.0,0.0,0.0,0.0,0.0,0.0,0.0,0.0,0.0,0.0,0.0,0.0,0.0,0.0,0.0,0.0,0.0,0.0,0.0,0.0,0.0,0.0,0.0,0.0,0.0,0.0,0.0,0.0,0.0,0.0,0.0,0.0,0.0,0.0,0.0,0.0,0.0,0.0,0.0,0.0,0.0,0.0,0.0,0.0,0.0,0.0,0.0,0.0,0.0,0.0,0.0,0.0,0.0,0.0,0.0,0.0,0.0,0.0,0.0,0.0,0.0,0.0,0.0,0.0,0.0,0.0,0.0,0.0,0.0,0.0,0.0,0.0,0.0,0.0,0.0,0.0,0.0,0.0523,0.0484,-0.0426,0.0,-0.148,0.0,0.0,0.0,0.0,0.0,0.0,0.0,0.0,0.0,0.0,0.0,0.0,0.0,0.0,0.0,0.0,0.0,0.0,0.0,0.0,0.0,0.0,0.0,0.0,0.0,0.0,0.0,0.0,0.0,0.0,0.0,0.0,0.0,0.0,0.0,0.0,0.0,0.0,0.0,0.0,0.0,0.0,0.0,0.0,0.0,0.0,0.0,0.0,0.0,0.0,0.0,0.0,0.0,0.0,0.0,0.0,0.0,0.0,0.0,0.0,0.0,0.0,0.0,0.0,0.0,0.0,0.0,0.0,0.0,0.0,0.0,0.0,0.0,0.0,0.0,0.0,0.0,0.0,0.0,0.0,0.0,0.0,0.0,0.0,0.0,0.0,0.0,0.0,0.0,0.0,0.0,0.0,0.0,0.0,0.0,0.0,0.0,0.0,0.0,0.0,0.0,0.0,0.0,0.0,0.0,0.0,0.0,0.0,0.0,0.0,0.095,0.0779,0.0199,-0.0401,0.0,0.0,0.0,0.0,0.0,0.0,0.0,0.0,0.0,0.0,0.0,0.0,0.0,0.0,0.0,0.0,0.0,0.0,0.0,0.0,0.0,0.0,0.0,0.0,0.0,0.0,0.0,0.0,0.0,0.0,0.0,0.0,0.0,0.0,0.0,0.0,0.0,0.0,0.0,0.0,0.0,0.0,0.0,0.0,0.0,0.0,0.0,0.0,0.0,0.0,0.0,0.0,0.0,0.0,0.0,0.0,0.0,0.0,0.0,0.0,0.0,0.0,0.0,0.0,0.0,0.0,0.0,0.0,0.0,0.0,0.0,0.0,0.0,0.0,0.0,0.0,0.0,0.0,0.0,0.0,0.0,0.0,0.0,0.0,0.0,0.0,0.0,0.0,0.0,0.0,0.0,0.0,0.0,0.0,0.0,0.0,0.0,0.0,0.0,0.0,0.0,0.0,0.0,0.0,0.0,0.0,0.0,0.0,0.0,0.0,0.1192,0.1169,0.0717,0.0424,-0.0,-0.0474,0.0,0.0,0.0,0.0,0.0,0.0,0.0,0.0,0.0,0.0,0.0,0.0,0.0,0.0,0.0,0.0,0.0,0.0,0.0,0.0,0.0,0.0,0.0,0.0,0.0,0.0,0.0,0.0,0.0,0.0,0.0,0.0,0.0,0.0,0.0,0.0,0.0,0.0,0.0,0.0,0.0,0.0,0.0,0.0,0.0,0.0,0.0,0.0,0.0,0.0,0.0,0.0,0.0,0.0,0.0,0.0,0.0,0.0,0.0,0.0,0.0,0.0,0.0,0.0,0.0,0.0,0.0,0.0,0.0,0.0,0.0,0.0,0.0,0.0,0.0,0.0,0.0,0.0,0.0,0.0,0.0,0.0,0.0,0.0,0.0,0.0,0.0,0.0,0.0,0.0,0.0,0.0,0.0,0.0,0.0,0.0,0.0,0.0,0.0,0.0,0.0,0.0,0.0,0.0,0.0,0.0,0.0,0.0,0.1793,0.1587,0.1072,0.0289,0.004,-0.0186,0.0,0.0,0.0,0.0,0.0,0.0,0.0,0.0,0.0,0.0,0.0,0.0,0.0,0.0,0.0,0.0,0.0,0.0,0.0,0.0,0.0,0.0,0.0,0.0,0.0,0.0,0.0,0.0,0.0,0.0,0.0,0.0,0.0,0.0,0.0,0.0,0.0,0.0,0.0,0.0,0.0,0.0,0.0,0.0,0.0,0.0,0.0,0.0,0.0,0.0,0.0,0.0,0.0,0.0,0.0,0.0,0.0,0.0,0.0,0.0,0.0,0.0,0.0,0.0,0.0,0.0,0.0,0.0,0.0,0.0,0.0,0.0,0.0,0.0,0.0,0.0,0.0,0.0,0.0,0.0,0.0,0.0,0.0,0.0,0.0,0.0,0.0,0.0,0.0,0.0,0.0,0.0,0.0,0.0,0.0,0.0,0.0,0.0,0.0,0.0,0.0,0.0,0.0,0.0,0.0,0.0,0.0,0.0,0.0,0.1384,0.1521,0.1419,0.0995,0.0634,0.0309,0.0,0.0,0.0,0.0,0.0,0.0,0.0,0.0,0.0,0.0,0.0,0.0,0.0,0.0,0.0,0.0,0.0,0.0,0.0,0.0,0.0,0.0,0.0,0.0,0.0,0.0,0.0,0.0,0.0,0.0,0.0,0.0,0.0,0.0,0.0,0.0,0.0,0.0,0.0,0.0,0.0,0.0,0.0,0.0,0.0,0.0,0.0,0.0,0.0,0.0,0.0,0.0,0.0,0.0,0.0,0.0,0.0,0.0,0.0,0.0,0.0,0.0,0.0,0.0,0.0,0.0,0.0,0.0,0.0,0.0,0.0,0.0,0.0,0.0,0.0,0.0,0.0,0.0,0.0,0.0,0.0,0.0,0.0,0.0,0.0,0.0,0.0,0.0,0.0,0.0,0.0,0.0,0.0,0.0,0.0,0.0,0.0,0.0,0.0,0.0,0.0,0.0,0.0,0.0,0.0,0.0,0.0,0.0,0.0,0.1378,0.173,0.1748,0.1323,0.0996,0.0561,0.0,0.0,0.0,0.0,0.0,0.0,0.0,0.0,0.0,0.0,0.0,0.0,0.0,0.0,0.0,0.0,0.0,0.0,0.0,0.0,0.0,0.0,0.0,0.0,0.0,0.0,0.0,0.0,0.0,0.0,0.0,0.0,0.0,0.0,0.0,0.0,0.0,0.0,0.0,0.0,0.0,0.0,0.0,0.0,0.0,0.0,0.0,0.0,0.0,0.0,0.0,0.0,0.0,0.0,0.0,0.0,0.0,0.0,0.0,0.0,0.0,0.0,0.0,0.0,0.0,0.0,0.0,0.0,0.0,0.0,0.0,0.0,0.0,0.0,0.0,0.0,0.0,0.0,0.0,0.0,0.0,0.0,0.0,0.0,0.0,0.0,0.0,0.0,0.0,0.0,0.0,0.0,0.0,0.0,0.0,0.0,0.0,0.0,0.0,0.0,0.0,0.0,0.0,0.0,0.0,0.0,0.0,0.0,0.1307,0.1951,0.2215,0.1994,0.1225,0.0934,0.044,0.0,0.0,0.0,0.0,0.0,0.0,0.0,0.0,0.0,0.0,0.0,0.0,0.0,0.0,0.0,0.0,0.0,0.0,0.0,0.0,0.0,0.0,0.0,0.0,0.0,0.0,0.0,0.0,0.0,0.0,0.0,0.0,0.0,0.0,0.0,0.0,0.0,0.0,0.0,0.0,0.0,0.0,0.0,0.0,0.0,0.0,0.0,0.0,0.0,0.0,0.0,0.0,0.0,0.0,0.0,0.0,0.0,0.0,0.0,0.0,0.0,0.0,0.0,0.0,0.0,0.0,0.0,0.0,0.0,0.0,0.0,0.0,0.0,0.0,0.0,0.0,0.0,0.0,0.0,0.0,0.0,0.0,0.0,0.0,0.0,0.0,0.0,0.0,0.0,0.0,0.0,0.0,0.0,0.0,0.0,0.0,0.0,0.0,0.0,0.0,0.0,0.0,0.0,0.0,0.0,0.0,0.0,0.0,0.0,0.1421,0.1991,0.2009,0.129,0.1026,0.0629,0.0,0.0,0.0,0.0,0.0,0.0,0.0,0.0,0.0,0.0,0.0,0.0,0.0,0.0,0.0,0.0,0.0,0.0,0.0,0.0,0.0,0.0,0.0,0.0,0.0,0.0,0.0,0.0,0.0,0.0,0.0,0.0,0.0,0.0,0.0,0.0,0.0,0.0,0.0,0.0,0.0,0.0,0.0,0.0,0.0,0.0,0.0,0.0,0.0,0.0,0.0,0.0,0.0,0.0,0.0,0.0,0.0,0.0,0.0,0.0,0.0,0.0,0.0,0.0,0.0,0.0,0.0,0.0,0.0,0.0,0.0,0.0,0.0,0.0,0.0,0.0,0.0,0.0,0.0,0.0,0.0,0.0,0.0,0.0,0.0,0.0,0.0,0.0,0.0,0.0,0.0,0.0,0.0,0.0,0.0,0.0,0.0,0.0,0.0,0.0,0.0,0.0,0.0,0.0,0.0,0.0,0.0,0.0,0.0,0.1787,0.2305,0.2299,0.1667,0.1272,0.0851,0.0381,0.0,0.0,0.0,0.0,0.0,0.0,0.0,0.0,0.0,0.0,0.0,0.0,0.0,0.0,0.0,0.0,0.0,0.0,0.0,0.0,0.0,0.0,0.0,0.0,0.0,0.0,0.0,0.0,0.0,0.0,0.0,0.0,0.0,0.0,0.0,0.0,0.0,0.0,0.0,0.0,0.0,0.0,0.0,0.0,0.0,0.0,0.0,0.0,0.0,0.0,0.0,0.0,0.0,0.0,0.0,0.0,0.0,0.0,0.0,0.0,0.0,0.0,0.0,0.0,0.0,0.0,0.0,0.0,0.0,0.0,0.0,0.0,0.0,0.0,0.0,0.0,0.0,0.0,0.0,0.0,0.0,0.0,0.0,0.0,0.0,0.0,0.0,0.0,0.0,0.0,0.0,0.0,0.0,0.0,0.0,0.0,0.0,0.0,0.0,0.0,0.0,0.0,0.0,0.0,0.0,0.0,0.0,0.0,0.2862,0.3042,0.2876,0.2324,0.1731,0.1158,0.0,0.0,0.0,0.0,0.0,0.0,0.0,0.0,0.0,0.0,0.0,0.0,0.0,0.0,0.0,0.0,0.0,0.0,0.0,0.0,0.0,0.0,0.0,0.0,0.0,0.0,0.0,0.0,0.0,0.0,0.0,0.0,0.0,0.0,0.0,0.0,0.0,0.0,0.0,0.0,0.0,0.0,0.0,0.0,0.0,0.0,0.0,0.0,0.0,0.0,0.0,0.0,0.0,0.0,0.0,0.0,0.0,0.0,0.0,0.0,0.0,0.0,0.0,0.0,0.0,0.0,0.0,0.0,0.0,0.0,0.0,0.0,0.0,0.0,0.0,0.0,0.0,0.0,0.0,0.0,0.0,0.0,0.0,0.0,0.0,0.0,0.0,0.0,0.0,0.0,0.0,0.0,0.0,0.0,0.0,0.0,0.0,0.0,0.0,0.0,0.0,0.0,0.0,0.0,0.0,0.0,0.0,0.0,0.0,0.3316,0.356,0.3274,0.2317,0.2076,0.1633,0.0,0.0,0.0,0.0,0.0,0.0,0.0,0.0,0.0,0.0,0.0,0.0,0.0,0.0,0.0,0.0,0.0,0.0,0.0,0.0,0.0,0.0,0.0,0.0,0.0,0.0,0.0,0.0,0.0,0.0,0.0,0.0,0.0,0.0,0.0,0.0,0.0,0.0,0.0,0.0,0.0,0.0,0.0,0.0,0.0,0.0,0.0,0.0,0.0,0.0,0.0,0.0,0.0,0.0,0.0,0.0,0.0,0.0,0.0,0.0,0.0,0.0,0.0,0.0,0.0,0.0,0.0,0.0,0.0,0.0,0.0,0.0,0.0,0.0,0.0,0.0,0.0,0.0,0.0,0.0,0.0,0.0,0.0,0.0,0.0,0.0,0.0,0.0,0.0,0.0,0.0,0.0,0.0,0.0,0.0,0.0,0.0,0.0,0.0,0.0,0.0,0.0,0.0,0.0,0.0,0.0,0.0,0.0,0.3254,0.3658,0.3895,0.371,0.305,0.2638,0.2148,0.0,0.0,0.0,0.0,0.0,0.0,0.0,0.0,0.0,0.0,0.0,0.0,0.0,0.0,0.0,0.0,0.0,0.0,0.0,0.0,0.0,0.0,0.0,0.0,0.0,0.0,0.0,0.0,0.0,0.0,0.0,0.0,0.0,0.0,0.0,0.0,0.0,0.0,0.0,0.0,0.0,0.0,0.0,0.0,0.0,0.0,0.0,0.0,0.0,0.0,0.0,0.0,0.0,0.0,0.0,0.0,0.0,0.0,0.0,0.0,0.0,0.0,0.0,0.0,0.0,0.0,0.0,0.0,0.0,0.0,0.0,0.0,0.0,0.0,0.0,0.0,0.0,0.0,0.0,0.0,0.0,0.0,0.0,0.0,0.0,0.0,0.0,0.0,0.0,0.0,0.0,0.0,0.0,0.0,0.0,0.0,0.0,0.0,0.0,0.0,0.0,0.0,0.0,0.0,0.0,0.0,0.0,0.0,0.3565,0.392,0.4099,0.414,0.4038,0.3227,0.2621,0.0,0.0,0.0,0.0,0.0,0.0,0.0,0.0,0.0,0.0,0.0,0.0,0.0,0.0,0.0,0.0,0.0,0.0,0.0,0.0,0.0,0.0,0.0,0.0,0.0,0.0,0.0,0.0,0.0,0.0,0.0,0.0,0.0,0.0,0.0,0.0,0.0,0.0,0.0,0.0,0.0,0.0,0.0,0.0,0.0,0.0,0.0,0.0,0.0,0.0,0.0,0.0,0.0,0.0,0.0,0.0,0.0,0.0,0.0,0.0,0.0,0.0,0.0,0.0,0.0,0.0,0.0,0.0,0.0,0.0,0.0,0.0,0.0,0.0,0.0,0.0,0.0,0.0,0.0,0.0,0.0,0.0,0.0,0.0,0.0,0.0,0.0,0.0,0.0,0.0,0.0,0.0,0.0,0.0,0.0,0.0,0.0,0.0,0.0,0.0,0.0,0.0,0.0,0.0,0.0,0.0,0.0,0.0,0.3748,0.4104,0.4218,0.423,0.4144,0.3543,0.3099,0.0,0.0,0.0,0.0,0.0,0.0,0.0,0.0,0.0,0.0,0.0,0.0,0.0,0.0,0.0,0.0,0.0,0.0,0.0,0.0,0.0,0.0,0.0,0.0,0.0,0.0,0.0,0.0,0.0,0.0,0.0,0.0,0.0,0.0,0.0,0.0,0.0,0.0,0.0,0.0,0.0,0.0,0.0,0.0,0.0,0.0,0.0,0.0,0.7643,0.0,0.0,0.0,0.0,0.0,0.0,0.0,0.0,0.0,0.0,0.0,0.0,0.0,0.0,0.0,0.0,0.0,0.0,0.0,0.0,0.0,0.0,0.0,0.0,0.0,0.0,0.0,0.0,0.0,0.0,0.0,0.0,0.0,0.0,0.0,0.0,0.0,0.0,0.0,0.0,0.0,0.0,0.0,0.0,0.0,0.0,0.0,0.0,0.0,0.0,0.0,0.0,0.0,0.0,0.0,0.0,0.0,0.0,0.0,0.3801,0.4161,0.4255,0.4259,0.4165,0.385,0.345,0.0,0.0,0.0,0.0,0.0,0.0,0.0,0.0,0.0,0.0,0.0,0.0,0.0,0.0,0.0,0.0,0.0,0.0,0.0,0.0,0.0,0.0,0.0,0.0,0.0,0.0,0.0,0.0,0.0,0.0,0.0,0.0,0.0,0.0,0.0,0.0,0.0,0.0,0.0,0.0,0.0,0.0,0.0,0.0,0.0,0.0,0.0,0.0,0.0,0.0,0.0,0.0,0.0,0.0,0.0,0.0,0.0,0.0,0.0,0.0,0.0,0.0,0.0,0.0,0.0,0.0,0.0,0.0,0.0,0.0,0.0,0.0,0.0,0.0,0.0,0.0,0.0,0.0,0.0,0.0,0.0,0.0,0.0,0.0,0.0,0.0,0.0,0.0,0.0,0.0,0.0,0.0,0.0,0.0,0.0,0.0,0.0,0.0,0.0,0.0,0.0,0.0,0.0,0.0,0.0,0.0,0.0,0.3526,0.3918,0.4393,0.4393,0.43,0.4214,0.4112,0.3761,0.3136,0.0,0.0,0.0,0.0,0.0,0.0,0.0,0.0,0.0,0.0,0.0,0.0,0.0,0.0,0.0,0.0,0.0,0.0,0.0,0.0,0.0,0.0,0.0,0.0,0.0,0.0,0.0,0.0,0.0,0.0,0.0,0.0,0.0,0.0,0.0,0.0,0.0,0.0,0.4413,0.6184,0.0,0.0,0.0,0.0,0.0,0.0,0.0,0.0,0.7419,0.0,0.0,0.0,0.0,0.0,0.0,0.0,0.0,0.0,0.0,0.0,0.0,0.0,0.0,0.0,0.0,0.0,0.0,0.0,0.0,0.0,0.0,0.0,0.0,0.0,0.0,0.0,0.0,0.0,0.0,0.0,0.0,0.0,0.0,0.0,0.0,0.0,0.0,0.0,0.0,0.0,0.0,0.0,0.0,0.0,0.0,0.0,0.0,0.0,0.0,0.0,0.0,0.0,0.0,0.0,0.0,0.4657,0.4088,0.4316,0.5511,0.4895,0.4483,0.4393,0.4234,0.385,0.3234,0.0,0.0,0.0,0.0,0.0,0.0,0.0,0.0,0.0,0.0,0.0,0.0,0.0,0.0,0.0,0.0,0.0,0.0,0.0,0.0,0.0,0.0,0.0,0.0,0.0,0.0,0.0,0.0,0.0,0.0,0.0,0.0,0.0,0.0,0.0,0.0,0.0,0.0,0.0,0.813,0.8681,0.0,0.0,0.0,0.0,0.0,0.0,0.0,0.0,0.7295,0.0,0.0,0.0,0.0,0.0,0.0,0.0,0.0,0.0,0.0,0.0,0.0,0.0,0.0,0.0,0.0,0.0,0.0,0.0,0.0,0.0,0.0,0.0,0.0,0.0,0.0,0.0,0.0,0.0,0.0,0.0,0.0,0.0,0.0,0.0,0.0,0.0,0.0,0.0,0.0,0.0,0.0,0.0,0.0,0.0,0.0,0.0,0.0,0.0,0.0,0.0,0.0,0.0,0.0,0.0,0.4697,0.4728,0.5053,0.5779,0.5043,0.4553,0.4504,0.4332,0.3944,0.0,0.0,0.0,0.0,0.0,0.0,0.0,0.0,0.0,0.0,0.0,0.0,0.0,0.0,0.0,0.0,0.0,0.0,0.0,0.0,0.0,0.0,0.0,0.0,0.0,0.0,0.0,0.0,0.0,0.0,0.0,0.0,0.0,0.0,0.0,0.0,0.0,0.0,0.0,0.0,0.9322,0.9826,1.0573,0.0,0.0,0.0,0.0,0.0,0.0,0.87,0.7863,0.0,0.0,0.0,0.0,0.0,0.0,0.0,0.0,0.0,0.0,0.0,0.0,0.0,0.0,0.0,0.0,0.0,0.0,0.0,0.0,0.0,0.0,0.0,0.0,0.0,0.0,0.0,0.0,0.0,0.0,0.0,0.0,0.0,0.0,0.0,0.0,0.0,0.0,0.0,0.0,0.0,0.0,0.0,0.0,0.0,0.0,0.0,0.0,0.0,0.0,0.0,0.0,0.0,0.0,0.0,0.4862,0.5315,0.5768,0.6048,0.522,0.4634,0.4598,0.4422,0.4022,0.0,0.0,0.0,0.0,0.0,0.0,0.0,0.0,0.0,0.0,0.0,0.0,0.0,0.0,0.0,0.0,0.0,0.0,0.0,0.0,0.0,0.0,0.0,0.0,0.0,0.0,0.0,0.0,0.0,0.0,0.0,0.0,0.0,0.0,0.0,0.0,0.0,0.0,0.0,0.0,0.0,1.0297,1.1527,1.1708,0.0,0.0,0.0,0.0,1.1078,1.0194,0.0,0.0,0.0,0.0,0.0,0.0,0.0,0.0,0.0,0.0,0.0,0.0,0.0,0.0,0.0,0.0,0.0,0.0,0.0,0.0,0.0,0.0,0.0,0.0,0.0,0.0,0.0,0.0,0.0,0.0,0.0,0.0,0.0,0.0,0.0,0.0,0.0,0.0,0.0,0.0,0.0,0.0,0.0,0.0,0.0,0.0,0.0,0.0,0.0,0.0,0.0,0.0,0.0,0.0,0.0,0.0,0.5694,0.561,0.6045,0.697,0.5694,0.4851,0.4696,0.4516,0.4087,0.0,0.0,0.0,0.0,0.0,0.0,0.0,0.0,0.0,0.0,0.0,0.0,0.0,0.0,0.0,0.0,0.0,0.0,0.0,0.0,0.0,0.0,0.0,0.0,0.0,0.0,0.0,0.0,0.0,0.0,0.0,0.0,0.0,0.0,0.0,0.0,0.0,0.0,0.0,0.0,0.0,0.9426,1.0887,1.2656,1.2942,0.0,0.0,1.3035,1.3975,1.3404,0.0,0.0,0.0,0.0,0.0,0.0,0.0,0.0,0.0,0.0,0.0,0.0,0.0,0.0,0.0,0.0,0.0,0.0,0.0,0.0,0.0,0.0,0.0,0.0,0.0,0.0,0.0,0.0,0.0,0.0,0.0,0.0,0.0,0.0,0.0,0.0,0.0,0.0,0.0,0.0,0.0,0.0,0.0,0.0,0.0,0.0,0.0,0.0,0.0,0.0,0.0,0.0,0.0,0.0,0.0,0.5481,0.6302,0.6517,0.6848,0.7346,0.586,0.5014,0.4937,0.4663,0.4197,0.0,0.0,0.0,0.0,0.0,0.0,0.0,0.0,0.0,0.0,0.0,0.0,0.0,0.0,0.0,0.0,0.0,0.0,0.0,0.0,0.0,0.0,0.0,0.0,0.0,0.0,0.0,0.0,0.0,0.0,0.0,0.0,0.0,0.0,0.0,0.0,0.0,0.0,0.0,0.0,0.0,0.0,1.2043,1.391,0.0,0.0,0.0,1.438,1.3758,0.0,0.0,0.0,0.0,0.0,0.0,0.0,0.0,0.0,0.0,0.0,0.0,0.0,0.0,0.0,0.0,0.0,0.0,0.0,0.0,0.0,0.0,0.0,0.0,0.0,0.0,0.0,0.0,0.0,0.0,0.0,0.0,0.0,0.0,0.0,0.0,0.0,0.0,0.0,0.0,0.0,0.0,0.0,0.0,0.0,0.0,0.0,0.0,0.0,0.0,0.0,0.0,0.0,0.0,0.0,0.0,0.0,0.6768,0.749,0.7773,0.7527,0.6187,0.5341,0.5104,0.4826,0.0,0.0,0.0,0.0,0.0,0.0,0.0,0.0,0.0,0.0,0.0,0.0,0.0,0.0,0.0,0.0,0.0,0.0,0.0,0.0,0.0,0.0,0.0,0.0,0.0,0.0,0.0,0.2776,0.0,0.0,0.0,0.0,0.0,0.0,0.0,0.0,0.0,0.0,0.0,0.0,0.0,0.0,1.092,1.2733,1.425,1.5147,0.0,0.0,1.5517,1.4172,1.4334,1.4035,0.0,0.0,0.0,0.0,0.0,0.0,0.0,0.0,0.0,0.0,0.0,0.0,0.0,0.0,0.0,0.0,0.0,0.0,0.0,0.0,0.0,0.0,0.0,0.0,0.0,0.0,0.0,0.0,0.0,0.0,0.0,0.0,0.0,0.0,0.0,0.0,0.0,0.0,0.0,0.0,0.0,0.0,0.0,0.0,0.0,0.0,0.0,0.0,0.0,0.0,0.0,0.0,0.0,0.0,0.65,0.7042,0.8326,0.8501,0.7644,0.6904,0.6055,0.5108,0.5002,0.4532,0.0,0.0,0.0,0.0,0.0,0.0,0.0,0.0,0.0,0.0,0.0,0.0,0.0,0.0,0.0,0.0,0.0,0.0,0.0,0.0,0.0,0.0,0.0,0.0,0.0,0.0,0.0,0.0,0.0,0.0,0.0,0.0,0.0,0.0,0.0,0.0,0.0,0.0,0.0,0.0,0.0,1.0098,1.1657,1.2933,1.433,0.0,0.0,1.6606,1.6415,1.687,1.695,1.632,0.0,0.0,0.0,0.0,0.0,0.0,0.0,0.0,0.0,0.0,0.0,0.0,0.0,0.0,0.0,0.0,0.0,0.0,0.0,0.0,0.0,0.0,0.0,0.0,0.0,0.0,0.0,0.0,0.0,0.0,0.0,0.0,0.0,0.0,0.0,0.0,0.0,0.0,0.0,0.0,0.0,0.0,0.0,0.0,0.0,0.0,0.0,0.0,0.0,0.0,0.0,0.0,0.0,0.6865,0.7509,0.8601,0.8932,0.8642,0.7391,0.6518,0.6151,0.5452,0.4761,0.0,0.0,0.0,0.0,0.0,0.0,0.0,0.0,0.0,0.0,0.0,0.0,0.0,0.0,0.0,0.0,0.0,0.0,0.0,0.0,0.0,0.0,0.0,0.0,0.0,0.0,0.0,0.0,0.5517,0.5592,0.5253,0.0,0.0,0.0,0.0,0.0,0.0,0.0,0.0,0.0,0.0,1.0585,1.245,1.4321,0.0,0.0,1.6579,1.7113,1.6769,1.6373,1.6458,1.709,1.4289,0.0,0.0,0.0,0.0,0.0,0.0,0.0,0.0,0.0,0.0,0.0,0.0,0.0,0.0,0.0,0.0,0.0,0.0,0.0,0.0,0.0,0.0,0.0,0.0,0.0,0.0,0.0,0.0,0.0,0.0,0.0,0.0,0.0,0.0,0.0,0.0,0.0,0.0,0.0,0.0,0.0,0.0,0.0,0.0,0.0,0.0,0.0,0.0,0.0,0.0,0.0,0.0,0.7179,0.7837,0.9,0.9472,0.9354,0.8146,0.7265,0.671,0.6018,0.5373,0.0,0.0,0.0,0.0,0.0,0.0,0.0,0.0,0.0,0.0,0.0,0.0,0.0,0.0,0.0,0.0,0.0,0.0,0.0,0.0,0.0,0.0,0.0,0.0,0.0,0.0,0.0,0.0,0.6228,0.6057,0.5442,0.0,0.0,0.0,0.0,0.0,0.0,0.0,0.0,0.0,0.0,1.0987,1.2558,1.4592,1.5655,1.4974,1.5657,1.6077,1.5716,1.5416,1.5654,1.6667,0.0,0.0,0.0,0.0,0.0,0.0,0.0,0.0,0.0,0.0,0.0,0.0,0.0,0.0,0.0,0.0,0.0,0.0,0.0,0.0,0.0,0.0,0.0,0.0,0.0,0.0,0.0,0.3243,0.0,0.0,0.349,0.0,0.0,0.0,0.0,0.0,0.0,0.0,0.0,0.0,0.0,0.0,0.0,0.0,0.0,0.0,0.0,0.0,0.0,0.0,0.0,0.0,0.0,0.7472,0.8016,0.977,1.0241,0.9471,0.9361,0.8478,0.6826,0.671,0.6389,0.5905,0.0,0.0,0.0,0.0,0.0,0.0,0.0,0.0,0.0,0.0,0.0,0.0,0.0,0.0,0.0,0.0,0.0,0.0,0.0,0.0,0.0,0.0,0.0,0.0,0.0,0.0,0.4492,0.4833,0.5005,0.0,0.0,0.0,0.0,0.0,0.0,0.0,0.0,0.0,0.0,1.0454,1.1192,1.1644,1.3116,1.4004,1.3674,1.3369,1.3147,1.3288,1.4205,1.5032,0.0,0.0,0.0,0.0,0.0,0.0,0.0,0.0,0.0,0.0,0.0,0.0,0.0,0.0,0.0,0.0,0.0,0.0,0.0,0.0,0.0,0.0,0.0,0.0,0.0,0.0,0.0,0.5249,0.514,0.0,0.0,0.0,0.0,0.0,0.0,0.0,0.0,0.0,0.0,0.0,0.9476,0.9988,0.0,0.0,0.0,0.0,0.0,0.0,0.0,0.0,0.0,0.0,0.0,0.0,0.7488,0.8065,0.9778,1.0578,1.0249,0.9691,0.914,0.8478,0.7925,0.7446,0.7146,0.0,0.0,0.0,0.0,0.0,0.0,0.0,0.0,0.0,0.0,0.0,0.0,0.0,0.0,0.0,0.0,0.0,0.0,0.0,0.0,0.0,0.0,0.0,0.0,0.0,0.5263,0.0,0.0,0.0,0.0,0.0,0.0,0.0,0.0,0.0,0.0,0.0,0.9787,1.2754,1.1502,1.0733,1.186,1.1723,1.188,0.0,0.0,0.0,0.0,0.0,0.0,0.0,0.0,0.0,0.0,0.0,0.0,0.0,0.0,1.4889,1.3136,1.1875,1.1182,1.1539,0.0,0.0,0.0,0.0,0.0,0.0,0.0,0.0,0.0,0.0,0.0,0.0,0.0,0.0,0.7352,0.0,0.6731,0.0,0.0,0.0,0.0,0.0,0.0,0.0,0.0,0.946,1.0327,1.0697,1.1182,1.1323,0.0,1.0474,0.9346,0.0,0.0,0.0,0.0,0.0,0.0,0.0,0.0,0.7764,0.8503,0.9998,1.0707,1.0428,0.9868,0.9188,0.8626,0.8283,0.8144,0.8024,0.8151,0.8147,0.0,0.0,0.0,0.0,0.0,0.0,0.0,0.0,0.0,0.0,0.0,0.0,0.0,0.0,0.0,0.0,0.0,0.0,0.0,0.0,0.0,0.0,0.0,0.6437,0.0,0.0,0.0,0.0,0.0,0.0,0.0,0.0,0.0,0.9295,0.9657,1.069,1.3087,1.1605,1.0615,1.1469,0.0,0.0,0.0,0.0,0.0,0.0,0.0,1.41,1.6179,1.5429,1.496,1.5931,1.656,1.6856,1.6525,0.0,0.0,1.5614,1.4334,1.3679,1.4081,1.5091,1.5399,1.3799,1.601,1.8301,0.0,0.0,0.0,0.0,0.0,0.0,0.0,0.0,0.9269,0.9203,0.0,0.918,0.0,0.0,0.0,0.0,0.0,0.0,0.0,0.0,1.22,1.2861,1.2455,1.2534,1.2646,1.2646,1.2224,1.1522,1.0496,0.8987,0.0,0.0,0.0,0.0,0.0,0.0,0.841,0.9444,1.0428,1.0599,0.9946,0.9831,0.902,0.7269,0.8084,0.8543,0.8524,0.9404,0.9746,0.9356,0.7561,0.0,0.0,0.0,0.0,0.0,0.0,0.0,0.0,0.0,0.0,0.0,0.0,0.0,0.0,0.0,0.0,0.0,0.0,0.0,0.0,0.7983,0.0,0.0,0.0,0.0,0.0,0.0,0.0,0.0,0.0,0.0,1.0813,1.0048,0.9821,1.067,0.0,0.0,0.0,0.0,1.0643,1.0558,1.1538,1.2374,1.2452,1.3671,1.5021,1.6381,0.0,0.0,1.7422,1.8158,1.8495,1.71,1.8268,1.8944,1.7705,1.648,1.581,1.627,1.7003,1.7683,1.8327,1.9588,2.1207,1.1754,0.0,0.0,0.0,0.0,1.073,1.1199,1.1707,1.2042,1.2099,1.1918,1.1507,0.0,0.0,0.0,0.0,0.0,0.0,1.0085,1.0173,1.081,1.1738,1.3098,1.2712,1.3045,1.4005,1.2947,1.2533,1.2636,1.1684,0.9784,0.6821,0.0,0.0,0.0,0.0,0.9272,0.9754,1.0672,1.106,1.0763,1.0763,1.0532,0.9946,1.0293,1.0409,1.0409,1.0634,1.0493,0.9762,0.908,0.0,0.0,0.0,0.0,0.0,0.0,0.0,0.0,0.0,0.0,0.0,0.0,0.0,0.0,0.0,0.0,0.0,0.0,0.0,0.6177,0.775,0.8173,0.0,0.0,0.0,0.0,0.0,0.0,0.0,0.0,0.0,1.0545,1.1078,1.1435,0.0,0.0,1.0932,1.0834,1.0993,1.1304,1.1454,0.0,0.0,0.0,1.2584,1.3218,1.4255,1.6457,1.8232,1.8977,1.9542,1.9717,1.926,1.9555,1.978,1.9239,1.8672,1.8282,1.848,1.9243,1.9668,1.9286,2.0664,2.169,1.4224,1.2823,1.199,1.1939,1.2312,1.2681,1.3162,1.385,1.4155,1.418,1.3965,1.3623,1.3004,1.1962,1.1138,0.0,0.0,0.0,1.1272,1.1402,1.1372,1.1871,1.2764,1.2509,1.2847,1.3563,1.2751,1.263,1.3066,1.2561,1.0966,0.8455,0.0,0.0,0.818,0.9202,1.0063,1.0631,1.1232,1.1336,1.1048,1.0681,1.0412,1.0354,1.0703,1.094,1.094,1.124,1.1191,1.0655,1.0128,0.938,0.0,0.0,0.0,0.0,0.0,0.0,0.0,0.0,0.0,0.0,0.0,0.4914,0.4028,0.0,0.0,0.0,0.7157,0.7815,0.8577,0.93,0.0,0.0,0.0,0.0,0.0,0.0,0.0,0.8958,0.9908,1.0607,1.0826,1.1535,1.2046,1.2087,1.1667,1.1386,1.1386,0.0,1.1993,1.2223,1.2532,1.2851,1.319,1.3376,1.3977,1.5722,1.7406,1.9025,2.042,2.0815,2.0882,2.0788,2.0748,2.0668,2.0374,2.001,1.9773,1.9555,2.0032,2.0226,1.9445,2.0509,2.0997,1.6431,1.628,1.4546,1.4148,1.4665,1.4676,1.5042,1.5645,1.5655,1.5537,1.5354,1.5558,1.4934,1.3674,1.261,0.0,0.0,1.3039,1.2984,1.3629,1.3075,1.2564,1.2225,1.2264,1.2361,1.2512,1.2215,1.2223,1.2377,1.2069,1.1557,1.0891,1.1261,1.1022,1.0338,1.0436,1.0972,1.1801,1.1963,1.1627,1.089,1.0129,0.9564,0.9436,1.0301,1.0798,1.0798,1.1409,1.1817,1.1784,1.0867,1.0168,0.9778,0.0,0.0,0.0,0.0,0.0,0.0,0.0,0.0,0.0,0.0,0.0,0.0,0.0,0.0,0.8042,1.0287,0.0,1.2886,1.1652,0.0,0.0,0.0,0.8308,0.8731,0.9494,1.0063,1.0249,0.0,0.0,1.1589,0.0,1.2184,1.2045,1.2012,1.2093,1.2093,1.2529,1.2767,1.2637,1.317,1.378,1.4521,1.4879,1.5759,1.8339,1.9444,1.9772,2.1227,2.1648,2.1713,2.1603,2.1577,2.1483,2.1216,2.0922,2.0658,2.0101,1.9959,1.9747,1.9577,1.9759,1.9863,1.7389,1.7346,1.6894,1.6398,1.5892,1.5892,1.5989,1.614,1.614,1.6108,1.6064,1.6118,1.5957,1.5634,1.4862,1.443,1.4159,1.3471,1.2987,1.2674,1.2474,1.2758,1.3406,1.2946,1.3112,1.3763,1.3336,1.3076,1.3108,1.3035,1.2832,1.2532,1.2603,1.1946,1.0639,1.1289,1.1825,1.2174,1.2223,1.2138,1.1925,1.1664,1.1649,1.1484,1.1736,1.1862,1.1862,1.2073,1.2182,1.2174,1.1939,1.1638,1.1265,0.9388,0.0,0.0,0.0,0.0,0.0,0.0,0.0,0.0,0.0,0.6888,0.5235,0.0,0.7492,0.0,1.0608,1.1281,1.0422,1.0466,0.0,0.0,0.9715,0.96,1.0485,1.0548,1.0626,1.1159,1.2344,1.2952,1.2817,1.3268,1.3673,1.3892,1.3177,1.2645,1.2653,1.2954,1.3181,1.3325,1.3399,1.3584,1.3866,1.3874,1.4609,1.6195,1.6476,1.7276,1.9845,2.0389,2.0617,2.1635,2.1739,2.17,2.1804,2.1867,2.1773,2.1477,2.0779,2.0133,2.0,2.0066,2.0026,1.7723,1.7723,1.7723,1.741,1.6937,1.6937,1.6937,1.6937,1.6937,1.6937,1.6937,1.6937,1.6937,1.6937,1.655,1.6022,1.5255,1.4595,1.3944,1.3168,1.2906,1.3153,1.3604,1.3202,1.3443,1.3908,1.3642,1.3368,1.3368,1.3368,1.3319,1.3222,1.3214,1.2767,1.1939,1.2223,1.2361,1.2304,1.254,1.2653,1.2653,1.2653,1.2434,1.1971,1.2182,1.215,1.1841,1.1987,1.1996,1.1833,1.1752,1.1663,1.1516,1.0257,0.9657,0.0,0.0,0.0,0.0,0.0,0.0,0.0,0.0,0.0,0.0,0.0,0.8973,0.9315,1.1,1.1569,1.0363,1.0761,1.1208,1.1362,1.1118,1.1232,1.1979,1.1789,1.1861,1.2439,1.3198,1.3848,1.3989,1.4449,1.5009,1.5524,1.5229,1.4724,1.4182,1.4388,1.4595,1.4956,1.4973,1.4973,1.4973,1.4973,1.5388,1.6787,1.7207,1.8047,2.0281,2.1121,2.1533,2.2369,2.2629,2.2629,2.2766,2.2808,2.27,2.2311,2.1764,2.1216,2.0903,2.0677,2.0628,1.7809,1.7809,1.7809,1.7819,1.7809,1.7809,1.7776,1.7723,1.7723,1.7723,1.7723,1.7723,1.7723,1.7723,1.7453,1.7047,1.637,1.5555,1.4873,1.4182,1.3642,1.3384,1.3409,1.3409,1.3417,1.3441,1.3441,1.3433,1.3441,1.3441,1.3425,1.3409,1.3409,1.3368,1.3295,1.3035,1.2751,1.2458,1.2808,1.2994,1.2994,1.297,1.2515,1.1646,1.2093,1.2077,1.1468,1.1744,1.176,1.1451,1.1289,1.1289,1.1435,1.1013,1.0704,0.0,1.0595,0.0,0.0,0.0,0.0,0.0,0.0,0.0,0.0,1.0959,1.0776,0.9884,1.1558,1.2259,1.1484,1.1906,1.232,1.2621,1.2661,1.2791,1.3084,1.2974,1.3165,1.4036,1.4216,1.4662,1.5229,1.5719,1.6396,1.6974,1.7569,1.7534,1.6702,1.6415,1.6402,1.7058,1.7077,1.6825,1.6854,1.7038,1.7321,1.8654,1.9047,1.9994,2.1402,2.2275,2.2872,2.3158,2.3403,2.3714,2.3768,2.3527,2.3287,2.302,2.2739,2.2405,2.1832,2.1407,2.1243,1.8293,1.8293,1.8304,1.8304,1.8293,1.8293,1.8078,1.7723,1.7723,1.7723,1.7723,1.7723,1.7723,1.7588,1.6496,1.5827,1.5691,1.4327,1.3779,1.3642,1.3505,1.3449,1.3587,1.3595,1.3669,1.3798,1.3798,1.3798,1.3798,1.3798,1.3725,1.3595,1.3595,1.3376,1.297,0.0,0.0,0.0,1.2694,1.245,1.245,1.2304,1.2134,1.1947,1.245,0.0,1.254,1.2605,1.2605,1.254,1.2499,0.0,0.0,0.0,0.0,0.0,0.0,0.0,0.0,0.0,0.0,0.0,1.2526,1.2299,1.1845,1.2165,1.2026,1.1306,1.2176,1.2791,1.2735,1.2962,1.3141,1.3206,1.3214,1.3382,1.3729,1.3448,1.3729,1.4728,1.6302,1.7087,1.6646,1.7428,1.8124,1.8301,1.9244,1.9938,2.0169,1.8696,1.7789,1.7819,1.8026,1.7986,1.7819,1.7996,1.8193,1.8258,1.8404,1.9144,2.0485,2.1198,2.1894,2.295,2.3638,2.3964,2.3808,2.387,2.387,2.3607,2.3554,2.3207,2.2364,2.2055,2.183,1.8433,0.0,1.8433,1.8433,0.0,1.8433,1.8293,1.8067,1.8078,1.8067,1.8078,1.8078,1.8078,1.794,1.7251,1.656,1.5867,1.5032,1.4326,1.3636,1.3636,1.3677,1.3774,1.3774,1.3815,1.3904,1.3904,1.3904,1.3904,1.3904,1.3855,1.3774,1.3774,1.3628,1.3376,1.3547,1.3587,1.3506,1.3149,1.297,1.2962,1.2873,1.2613,1.2199,0.0,0.0,0.0,0.0,0.0,0.0,0.0,0.0,0.0,0.0,0.0,1.2377,1.2586,1.266,1.2858,1.3828,1.4356,1.4285,1.4317,1.3994,1.2892,1.3233,1.319,1.2562,1.2848,1.3308,1.3617,1.3725,1.3947,1.4187,1.428,1.4472,1.4753,1.4523,1.4849,1.6452,1.8122,1.8864,1.8349,1.8934,1.9643,2.0354,2.098,2.1732,2.2433,2.1348,2.0274,2.0575,2.0575,2.0575,2.0575,2.0575,2.0575,2.0575,2.0725,2.1176,2.1775,2.2521,2.3116,2.3883,2.4488,2.4784,2.4636,2.4636,2.4556,2.4275,2.4195,2.3915,2.3046,2.2632,2.2418,1.8433,1.8433,1.8433,1.8433,1.8433,1.8433,1.8433,1.8433,0.0,0.0,0.0,1.8433,1.8293,1.8153,1.8012,1.7308,1.6037,1.5895,1.5186,1.3904,1.3904,1.3904,1.3904,1.3904,1.3904,1.3904,1.3904,1.3904,1.3904,1.3904,1.3904,1.3904,1.3904,1.3904,1.3904,1.3904,1.3831,1.3693,1.3563,1.3506,1.3498,1.3465,1.3108,1.2369,1.2865,1.2865,1.2296,1.2694,1.2726,1.2296,1.2264,1.2353,1.2532,1.254,1.2816,1.3401,1.4002,1.4393,1.4534,1.5498,1.602,1.5512,1.5247,1.4819,1.3935,1.4048,1.4087,1.3587,1.3628,1.385,1.4412,1.4604,1.4823,1.5274,1.5578,1.5958,1.6248,1.5903,1.6415,1.8153,1.9735,2.0411,2.0083,2.0284,2.0934,2.2055,2.2329,2.2887,2.3878,2.3353,2.2615,2.2781,2.2745,2.3137,2.3174,2.3137,2.3353,2.3101,2.3446,2.3816,2.397,2.4431,2.4905,2.4801,2.5198,2.5312,2.5491,2.5438,2.5358,2.489,2.4783,2.4649,2.401,2.3439,2.318,1.8433,1.8433,1.8433,1.8433,1.8433,1.8433,1.8433,1.8433,1.8433,1.8433,1.8433,1.8433,1.8012,1.7449,1.6744,1.6028,1.5177,1.4466,1.4047,0.0,1.3904,1.3904,1.3904,1.3904,1.3904,1.3904,1.3904,1.3904,1.3904,1.3904,1.3904,1.3904,1.3904,1.3904,1.3904,1.3904,1.3888,1.3855,1.3262,1.2946,1.2946,1.28,1.2661,1.2564,1.3051,1.3295,1.3189,1.3254,1.3262,1.3189,1.3181,1.3271,1.3441,1.3441,1.3571,1.3798,1.4506,1.4921,1.4947,1.5775,1.5915,1.5088,1.4531,1.4164,1.4518,1.4518,1.4614,1.4381,1.4525,1.4923,1.5678,1.5958,1.6204,1.6543,1.701,1.7321,1.7779,1.7966,1.8508,1.9752,2.1049,2.158,2.1383,2.1754,2.2047,2.2472,2.3271,2.4033,2.4497,2.4115,2.3686,2.3661,2.3661,2.3816,2.4033,2.4136,2.4174,2.4124,2.4162,2.4187,2.4187,2.4662,2.497,2.4918,2.5098,2.5391,2.5545,2.5684,2.5657,2.5371,2.5358,2.5291,2.5144,2.4703,2.4209,1.8509,1.8616,1.8627,1.8702,1.8821,1.8821,1.8821,1.8821,1.8821,1.8745,1.8627,1.8627,1.8549,1.8237,1.7826,1.7196,1.6473,1.5515,1.4893,1.4466,1.4039,1.3953,1.405,1.405,1.4099,1.418,1.4188,1.4188,1.418,1.4099,1.405,1.405,1.405,1.4002,1.3912,1.4002,1.4002,1.3896,1.3579,1.3417,1.3417,1.3336,1.3287,1.3287,1.3539,1.366,1.366,1.366,1.366,1.366,1.366,1.3693,1.3774,1.3782,1.3823,1.3896,1.4181,1.4651,1.5184,1.5723,1.5831,1.5492,1.4675,1.4342,1.4941,1.4897,1.4668,1.4762,1.5223,1.5922,1.6651,1.7029,1.7526,1.8102,1.8464,1.8915,1.9393,1.9758,2.0395,2.1277,2.22,2.2649,2.239,2.2496,2.2949,2.3225,2.412,2.466,2.4467,2.4281,2.4265,2.4422,2.4434,2.4591,2.4735,2.4735,2.4735,2.4735,2.4735,2.4735,2.4748,2.4892,2.5049,2.5361,2.5335,2.5491,2.5816,2.5985,2.5932,2.5772,2.5758,2.5718,2.5698,2.5442,2.4985,1.8702,1.8864,1.8864,1.8982,1.9144,1.9155,1.9155,1.9155,1.9144,1.9068,1.895,1.8896,1.8827,1.8529,1.8651,1.7991,1.6962,1.6386,1.5596,1.4871,1.4305,1.4099,1.4221,1.4237,1.4302,1.4424,1.4432,1.4432,1.4416,1.4294,1.4237,1.4237,1.4237,1.4164,1.4026,1.4164,1.4164,1.4026,1.4018,1.4002,1.3961,1.3961,1.3985,1.4018,1.3977,1.3961,1.3961,1.3928,1.3904,1.3904,1.408,1.4121,1.4018,1.4347,1.4533,1.4421,1.443,1.4762,1.5457,1.5597,1.572,1.5817,1.5108,1.4786,1.5193,1.5172,1.5138,1.5276,1.6159,1.7025,1.7832,1.8326,1.8948,1.9752,2.0219,2.0602,2.095,2.142,2.1859,2.2553,2.3104,2.3453,2.3369,2.3236,2.3466,2.394,2.4552,2.448,2.4,2.416,2.4492,2.4652,2.4811,2.4945,2.513,2.5104,2.5104,2.513,2.5104,2.5079,2.5092,2.5117,2.5117,2.5555,2.5555,2.5687,2.6056,2.6201,2.6109,2.6092,2.6052,2.5972,2.5872,2.5792,2.5496,1.909,1.9122,1.9112,1.9133,1.9165,1.9165,1.9165,1.9165,1.9155,1.9262,1.9391,1.9219,1.8394,1.7223,1.7789,1.7048,1.5146,1.5424,1.5251,1.4662,1.4383,1.4391,1.4408,1.4408,1.4416,1.444,1.4448,1.4464,1.4464,1.4424,1.4408,1.4408,1.4408,1.4399,1.4383,1.4399,1.4399,1.4383,1.4383,1.431,1.4164,1.4156,1.4229,1.4375,1.4229,1.4156,1.4293,1.3993,1.3904,1.3912,1.4788,1.4941,1.4514,1.5869,1.6646,1.6037,1.6063,1.6019,1.587,1.587,1.5826,1.5659,1.5667,1.5528,1.5257,1.5641,1.608,1.6582,1.7269,1.821,1.9457,2.0114,2.0769,2.1386,2.1831,2.2198,2.2222,2.2698,2.3069,2.3572,2.3768,2.3937,2.4275,2.416,2.4112,2.386,2.39,2.4012,2.384,2.384,2.4012,2.4,2.4332,2.4652,2.497,2.513,2.497,2.497,2.513,2.497,2.497,2.497,2.513,2.513,2.5289,2.5448,2.5594,2.574,2.5727,2.6148,2.6279,2.6253,2.6012,2.5919,2.5524,1.923,1.9348,1.9348,1.9435,1.9553,1.9564,1.9564,1.9564,1.9564,1.9618,1.9682,1.9607,1.9255,1.8648,1.8821,1.8306,1.7408,1.6693,1.6195,1.5753,1.4876,1.4489,1.4586,1.4594,1.4643,1.4741,1.5194,1.5203,1.4732,1.4643,1.4538,1.4456,1.4538,1.4538,1.4448,1.4985,1.5283,1.5172,1.5606,1.5928,1.5798,1.5415,1.5095,1.5155,1.5095,1.5354,1.5638,1.5267,1.4941,1.4941,1.5749,1.5674,1.4432,1.6129,1.6657,1.5993,1.6409,1.6738,1.6664,1.6876,1.7033,1.706,1.706,1.6961,1.6605,1.6807,1.733,1.8133,1.8571,1.9343,2.0386,2.1333,2.2241,2.2682,2.3234,2.3424,2.3424,2.3716,2.4094,2.4287,2.4311,2.4359,2.454,2.448,2.4124,2.3896,2.3728,2.3692,2.384,2.384,2.384,2.384,2.4012,2.416,2.4332,2.4332,2.4332,2.4332,2.4332,2.432,2.4332,2.4332,2.4332,2.4652,2.4639,2.4798,2.5289,2.5263,2.5251,2.574,2.6228,2.6346,2.6226,2.6213,2.5962,1.9435,1.9575,1.9596,1.9693,1.9854,1.9919,1.9951,1.9962,2.0016,2.0037,2.0048,2.0037,2.0048,2.0005,1.9736,1.9447,1.8818,1.7763,1.714,1.7038,1.5852,1.5505,1.5514,1.5328,1.5225,1.547,1.5744,1.5727,1.5412,1.5455,1.5311,1.521,1.5311,1.5311,1.5351,1.5922,1.6214,1.6238,1.6805,1.7029,1.7142,1.674,1.6359,1.6211,1.6165,1.6434,1.6868,1.6379,1.6057,1.6057,1.684,1.6749,1.5466,1.6861,1.7544,1.6917,1.7416,1.7836,1.7846,1.8281,1.8523,1.85,1.8678,1.8586,1.8191,1.8154,1.869,1.959,2.0012,2.043,2.1324,2.2133,2.2887,2.3312,2.3817,2.402,2.3856,2.421,2.414,2.4389,2.4306,2.4637,2.4625,2.4267,2.3691,2.3525,2.3419,2.3532,2.3532,2.3532,2.3532,2.3532,2.3532,2.3692,2.368,2.384,2.384,2.384,2.384,2.384,2.384,2.384,2.3852,2.4172,2.3976,2.4136,2.4798,2.4798,2.4786,2.5435,2.5911,2.6228,2.6188,2.6215,2.6386,1.9822,1.9833,1.9833,1.9844,1.9865,2.0091,2.0199,2.021,2.0414,2.0511,2.049,2.05,2.0522,2.0468,2.0048,1.9077,1.7854,1.8299,1.8237,1.7798,1.7662,1.7785,1.7817,1.6859,1.6458,1.6458,1.5855,1.5769,1.6212,1.6797,1.7236,1.7227,1.7093,1.7245,1.7227,1.7245,1.7388,1.7379,1.7531,1.754,1.755,1.8138,1.8128,1.7512,1.719,1.7086,1.7226,1.6897,1.6802,1.6793,1.7734,1.7931,1.7512,1.8948,1.9698,1.9462,1.9554,1.9846,1.9816,1.9856,1.9887,1.9917,1.9907,1.9765,1.9248,1.9179,1.9644,2.0554,2.0994,2.1676,2.2361,2.267,2.2944,2.3326,2.3419,2.3453,2.3287,2.3453,2.3435,2.3718,2.3758,2.4152,2.5053,2.3963,2.3096,2.2644,2.252,2.2567,2.2728,2.2901,2.2901,2.2901,2.2901,2.3234,2.3692,2.368,2.368,2.384,2.384,2.384,2.384,2.384,2.3852,2.3852,2.384,2.4,2.4332,2.4652,2.4652,2.513,2.5448,2.5753,2.5911,2.6228,2.6386,1.9941,2.007,1.9908,2.0016,2.0296,2.0242,2.0296,2.0436,2.0522,2.0554,2.0554,2.0565,2.0554,2.0554,2.0382,1.9987,1.9368,1.9202,1.8942,1.871,1.824,1.7965,1.8012,1.7641,1.7604,1.7594,1.7686,1.796,1.8115,1.796,1.7804,1.7804,1.7804,1.7804,1.796,1.8426,1.8582,1.8737,1.9213,1.9368,1.9337,1.9542,1.9521,1.9337,1.8541,1.8361,1.8813,1.8271,1.7931,1.7931,1.8922,1.8916,1.7913,1.8902,1.9938,2.039,2.0025,2.0128,2.0607,2.0426,2.0436,2.0811,2.0926,2.061,1.9967,1.9836,2.0128,2.0596,2.0842,2.1383,2.2352,2.286,2.3196,2.3287,2.331,2.3155,2.2977,2.2977,2.2855,2.2743,2.2844,2.3121,2.368,2.3047,2.1873,2.1189,2.1438,2.175,2.1911,2.2084,2.2256,2.2256,2.2406,2.2545,2.2705,2.3199,2.352,2.368,2.384,2.384,2.384,2.384,2.384,2.3852,2.384,2.384,2.4172,2.4332,2.4492,2.4652,2.513,2.5448,2.5753,2.5911,2.607,2.0177,2.0285,2.0145,2.0264,2.0533,2.0468,2.0522,2.0684,2.0759,2.0791,2.0791,2.0791,2.0791,2.0791,2.0791,2.0791,2.077,2.0001,1.9802,1.9707,1.9243,1.9115,1.9016,1.8798,1.861,1.8749,1.9006,1.929,1.929,1.8976,1.8976,1.8976,1.8976,1.8976,1.8976,1.9447,1.9771,1.9928,2.0241,2.0554,2.0544,2.0414,2.0404,2.049,1.978,1.9458,2.0081,1.9611,1.9347,1.9398,1.9881,1.9832,1.9123,1.9661,2.0325,2.0954,2.0653,2.0586,2.1295,2.1074,2.092,2.1513,2.1631,2.1323,2.0672,2.0853,2.0863,2.0968,2.1084,2.152,2.2157,2.2666,2.2888,2.2655,2.2477,2.2299,2.1798,2.163,2.1421,2.1368,2.1181,2.1616,2.2322,2.1392,2.0426,1.9238,1.9917,2.0607,2.0769,2.1103,2.1438,2.1438,2.1416,2.1577,2.1739,2.2234,2.2889,2.3199,2.352,2.368,2.384,2.384,2.384,2.384,2.384,2.384,2.3852,2.4172,2.4172,2.4332,2.4652,2.497,2.5289,2.5594,2.5911,2.0554,2.0554,2.0565,2.0554,2.064,2.078,2.0888,2.0942,2.1147,2.12,2.1179,2.1233,2.12,2.1233,2.119,2.1243,2.1147,2.0813,2.058,2.0729,2.074,2.0868,2.1028,2.0036,1.9783,1.9773,1.9421,1.9331,1.9518,2.0158,2.0473,2.0441,2.0473,2.0337,2.0587,2.0473,2.0608,2.063,2.064,2.0619,2.0576,2.0608,2.063,2.0662,2.0619,2.0608,2.0597,2.0565,2.0473,2.0676,2.0867,2.1017,2.1018,2.1242,2.1588,2.1556,2.1588,2.1717,2.1879,2.1749,2.1584,2.1803,2.1922,2.1868,2.1616,2.1814,2.1836,2.1879,2.2072,2.2256,2.2234,2.2425,2.2033,2.1022,2.1159,2.0803,1.9952,1.9447,1.9548,1.9561,1.9541,1.9755,2.0457,1.9925,1.8711,1.8174,1.8645,1.9316,1.9479,1.9795,1.9967,2.013,2.0272,2.0424,2.0931,2.1438,2.2084,2.2728,2.3199,2.3359,2.3692,2.3852,2.384,2.384,2.384,2.384,2.384,2.4012,2.4012,2.4012,2.4332,2.4652,2.4811,2.5289,2.5607,2.0651,2.077,2.063,2.0759,2.1017,2.0953,2.0996,2.1157,2.1254,2.1276,2.1276,2.1276,2.1276,2.1276,2.1276,2.1276,2.1265,2.1114,2.1093,2.1147,2.1157,2.119,2.1243,2.1028,2.0835,2.0825,2.0772,2.0729,2.0718,2.0889,2.106,2.105,2.105,2.105,2.105,2.106,2.106,2.106,2.106,2.1125,2.1254,2.1136,2.12,2.148,2.1373,2.1362,2.1513,2.1071,2.0931,2.1157,2.1168,2.12,2.1308,2.1502,2.162,2.162,2.162,2.1728,2.1922,2.1889,2.1793,2.176,2.1728,2.1642,2.1545,2.1663,2.1749,2.1771,2.1954,2.2094,2.2083,2.2083,2.1969,2.1874,2.1736,2.096,1.9784,1.895,1.8415,1.837,1.8352,1.8493,1.842,1.7978,1.787,1.7504,1.7937,1.8365,1.851,1.8856,1.9297,1.9479,1.945,1.9652,2.0496,2.1015,2.1481,2.2256,2.2728,2.3211,2.3544,2.3692,2.3692,2.384,2.384,2.384,2.384,2.384,2.384,2.384,2.4012,2.4172,2.4492,2.4811,2.5289,2.091,2.1017,2.0888,2.0996,2.1254,2.1103,2.1136,2.1265,2.1276,2.1276,2.1276,2.1276,2.1276,2.1276,2.1276,2.1276,2.1276,2.1276,2.1276,2.1276,2.1276,2.1276,2.1276,2.1276,2.1276,2.1276,2.1276,2.1276,2.1276,2.1362,2.1405,2.1405,2.1491,2.1534,2.1545,2.1545,2.1545,2.1534,2.1534,2.1609,2.1674,2.1523,2.1545,2.176,2.1609,2.162,2.1793,2.1394,2.1276,2.148,2.1534,2.1534,2.1545,2.1674,2.1749,2.1728,2.1674,2.1685,2.1814,2.1728,2.1653,2.1523,2.1566,2.1566,2.148,2.1609,2.1749,2.1782,2.1986,2.2116,2.2126,2.2202,2.2309,2.2439,2.1821,2.0813,1.9447,1.8434,1.7765,1.7587,1.7426,1.7247,1.7214,1.7163,1.7238,1.7045,1.7636,1.7897,1.8063,1.8394,1.8881,1.9211,1.926,1.9736,2.0293,2.0753,2.0884,2.1481,2.2245,2.2901,2.3567,2.3544,2.3532,2.368,2.384,2.384,2.384,2.384,2.384,2.384,2.384,2.4,2.4172,2.4492,2.4811,2.1276,2.1276,2.1276,2.1254,2.1276,2.1254,2.1276,2.1308,2.1308,2.133,2.1351,2.1383,2.1362,2.134,2.1394,2.1394,2.133,2.1373,2.1394,2.1373,2.1351,2.133,2.134,2.1373,2.1405,2.1373,2.1373,2.1362,2.1405,2.1556,2.1631,2.1653,2.1814,2.1954,2.1911,2.1976,2.1933,2.19,2.19,2.1889,2.1922,2.1728,2.1631,2.1663,2.1502,2.1491,2.1663,2.1642,2.1706,2.1922,2.1911,2.1879,2.1922,2.1943,2.19,2.1846,2.1696,2.1609,2.1556,2.1502,2.1383,2.1394,2.1556,2.1642,2.1674,2.1846,2.1997,2.2008,2.2212,2.2352,2.2395,2.2503,2.2622,2.2449,2.165,2.0249,1.8648,1.8327,1.7861,1.7161,1.6787,1.6617,1.682,1.6795,1.6771,1.6924,1.74,1.7864,1.8024,1.8334,1.8903,1.9063,1.9165,1.9619,2.0176,2.0375,2.0672,2.1274,2.1838,2.259,2.3407,2.3383,2.3532,2.368,2.3888,2.3876,2.3852,2.3852,2.3852,2.384,2.384,2.384,2.4012,2.4172,2.4517,2.1276,2.1276,2.1276,2.1276,2.1276,2.1276,2.1383,2.1513,2.1534,2.162,2.1749,2.1793,2.1771,2.1793,2.1771,2.1782,2.176,2.1782,2.1803,2.1782,2.1599,2.1534,2.1577,2.1696,2.1771,2.176,2.1739,2.1793,2.1814,2.1846,2.1879,2.1879,2.1954,2.1997,2.1997,2.2008,2.1976,2.1943,2.1793,2.1836,2.1943,2.1771,2.1717,2.1857,2.1803,2.1803,2.1868,2.1879,2.1889,2.1954,2.1965,2.1879,2.1728,2.1706,2.1663,2.1534,2.1448,2.1383,2.1405,2.148,2.1523,2.1545,2.1749,2.1879,2.1879,2.2094,2.2223,2.2277,2.2449,2.2579,2.26,2.2643,2.2686,2.2503,2.1838,2.0918,2.023,1.9223,1.8183,1.8018,1.7306,1.7115,1.6917,1.6852,1.6787,1.6943,1.7554,1.7978,1.8184,1.8676,1.9212,1.9325,1.9437,1.9764,2.0032,2.0226,2.0621,2.1063,2.1611,2.1945,2.2751,2.3383,2.3532,2.384,2.3985,2.4009,2.3913,2.3864,2.3852,2.3961,2.3937,2.3973,2.3888,2.4037,2.4394,2.1276,2.1286,2.1383,2.1426,2.1437,2.1523,2.1642,2.1749,2.1771,2.1836,2.1954,2.1965,2.1976,2.1986,2.1986,2.1976,2.1965,2.1976,2.1976,2.1976,2.1943,2.1814,2.1706,2.1771,2.1868,2.1965,2.1976,2.1965,2.1997,2.2072,2.2116,2.2148,2.2223,2.2277,2.2299,2.2277,2.2266,2.2256,2.2126,2.2148,2.2256,2.204,2.1997,2.2072,2.204,2.1997,2.2105,2.2212,2.2148,2.1911,2.1814,2.1717,2.1513,2.148,2.1448,2.1405,2.1416,2.147,2.1577,2.1706,2.176,2.1814,2.1986,2.2094,2.2169,2.2342,2.2482,2.2503,2.2622,2.2665,2.2686,2.2686,2.2686,2.2675,2.2168,2.1649,2.1302,2.0414,1.9388,1.8689,1.7989,1.7463,1.7112,1.7015,1.6974,1.7297,1.7932,1.8225,1.8379,1.902,1.9514,1.9676,1.9836,2.0016,2.0298,2.0497,2.0765,2.1189,2.1938,2.2251,2.2508,2.3316,2.3686,2.4045,2.4118,2.4154,2.4118,2.4118,2.4226,2.4275,2.419,2.4154,2.413,2.4057,2.4392,2.1286,2.133,2.1534,2.1631,2.1685,2.1879,2.1954,2.2008,2.2008,2.204,2.2083,2.2062,2.2116,2.2062,2.2159,2.2083,2.2072,2.2116,2.2062,2.2105,2.2148,2.2094,2.1814,2.1868,2.1976,2.2094,2.2051,2.2083,2.2169,2.2309,2.2363,2.2395,2.2557,2.2654,2.26,2.2632,2.2675,2.2611,2.2525,2.2482,2.2471,2.2299,2.2212,2.2256,2.2212,2.2212,2.2385,2.2525,2.2428,2.1739,2.1717,2.1674,2.147,2.1394,2.1556,2.1739,2.1814,2.1868,2.1986,2.204,2.2051,2.2062,2.2234,2.2363,2.2406,2.2535,2.2643,2.2643,2.2675,2.2686,2.2686,2.2686,2.2686,2.2686,2.2686,2.2341,2.1649,2.1302,2.0607,1.9039,1.8864,1.8164,1.7455,1.7112,1.7279,1.7214,1.7878,1.8391,1.8721,1.9223,1.9751,2.0144,2.0307,2.048,2.0736,2.0958,2.119,2.1493,2.2587,2.2967,2.2876,2.3365,2.3913,2.4299,2.4347,2.4432,2.4656,2.454,2.4576,2.454,2.442,2.4492,2.4399,2.4444,2.4559,2.1383,2.1545,2.1599,2.1739,2.19,2.1954,2.2083,2.2256,2.2256,2.2342,2.2482,2.2525,2.2514,2.2525,2.2492,2.2535,2.2492,2.2482,2.2439,2.2266,2.2288,2.2299,2.2212,2.2309,2.2449,2.2503,2.2514,2.2514,2.2546,2.2535,2.26,2.2611,2.2632,2.2686,2.2686,2.2686,2.2686,2.2654,2.2525,2.2449,2.2428,2.2277,2.2234,2.2385,2.2492,2.2568,2.2643,2.2848,2.2708,2.2363,2.2342,2.2299,2.1954,2.2126,2.232,2.2374,2.2417,2.2385,2.2331,2.2439,2.2449,2.232,2.2471,2.2611,2.2611,2.2632,2.2686,2.2686,2.2686,2.2686,2.2686,2.2686,2.2686,2.2686,2.2686,2.2686,2.233,2.1822,2.1128,2.0607,1.9902,1.9012,1.7422,1.7805,1.7805,1.7455,1.7805,1.8514,1.8855,1.937,1.9902,2.0434,2.0607,2.0742,2.0673,2.0888,2.1356,2.184,2.2777,2.3407,2.3315,2.3657,2.4258,2.4601,2.4741,2.4839,2.4972,2.4733,2.4733,2.4685,2.4685,2.4745,2.4782,2.4721,2.4733,2.1577,2.1803,2.1911,2.2029,2.2159,2.2256,2.2374,2.2482,2.2503,2.2568,2.2665,2.2686,2.2686,2.2686,2.2686,2.2675,2.2686,2.2686,2.2622,2.2514,2.2503,2.2503,2.2514,2.2611,2.2686,2.2686,2.2675,2.2686,2.2686,2.2686,2.2675,2.2686,2.2686,2.2686,2.2686,2.2686,2.2686,2.2665,2.2568,2.2492,2.2471,2.2514,2.26,2.2826,2.3052,2.3181,2.3214,2.3429,2.3268,2.3042,2.3128,2.2955,2.2342,2.2482,2.2718,2.2837,2.2858,2.288,2.2869,2.2923,2.2923,2.2686,2.2794,2.2751,2.2729,2.2686,2.2686,2.2686,2.2686,2.2686,2.2686,2.2686,2.2686,2.2686,2.2686,2.2686,2.2686,2.2168,2.1822,2.1475,2.0771,2.0076,1.9379,1.903,1.8514,1.8173,1.8331,1.9039,1.9039,1.9553,2.025,2.0617,2.0801,2.0965,2.0732,2.0958,2.147,2.2033,2.3011,2.3325,2.3458,2.4197,2.4807,2.4927,2.4878,2.5023,2.512,2.5011,2.4963,2.5047,2.5071,2.5023,2.5023,2.5071,2.5096,2.1814,2.2062,2.2256,2.2352,2.2417,2.2589,2.2654,2.2675,2.2686,2.2665,2.2686,2.2686,2.2686,2.2686,2.2686,2.2686,2.2686,2.2686,2.2654,2.2654,2.2643,2.2643,2.2654,2.2675,2.2686,2.2686,2.2686,2.2686,2.2686,2.2686,2.2686,2.2686,2.2686,2.2686,2.2686,2.2686,2.2686,2.2675,2.2729,2.274,2.2772,2.2934,2.316,2.3386,2.3601,2.3731,2.3763,2.3881,2.386,2.3526,2.3881,2.3504,2.2934,2.2772,2.2977,2.3225,2.3268,2.33,2.3354,2.3397,2.3332,2.3128,2.3052,2.2988,2.2858,2.2751,2.2718,2.2729,2.274,2.2686,2.2686,2.2686,2.2686,2.2686,2.2686,2.2686,2.2686,2.2686,2.2341,2.1822,2.1649,2.1118,2.0434,1.9911,1.9397,1.9057,1.9214,1.9388,1.9563,1.9728,2.025,2.0588,2.0771,2.1139,2.1098,2.1251,2.1584,2.2225,2.3043,2.3552,2.3902,2.4468,2.5035,2.5192,2.5204,2.5301,2.5349,2.5277,2.5301,2.5433,2.5397,2.5264,2.5301,2.5421,2.5397,2.2051,2.2277,2.232,2.2439,2.2611,2.2665,2.2686,2.2686,2.2686,2.2686,2.2686,2.2686,2.2686,2.2686,2.2686,2.2686,2.2686,2.2686,2.2686,2.2686,2.2686,2.2686,2.2686,2.2686,2.2686,2.2686,2.2686,2.2686,2.2686,2.2686,2.2686,2.2686,2.2686,2.2686,2.2686,2.2686,2.2718,2.2772,2.2891,2.2988,2.3042,2.3214,2.3451,2.3677,2.3903,2.4,2.4032,2.4064,2.3978,2.3752,2.3967,2.3849,2.3591,2.3655,2.3784,2.3828,2.3828,2.3774,2.3709,2.3688,2.3569,2.3365,2.3203,2.3181,2.3117,2.2934,2.2815,2.2837,2.2772,2.2686,2.2686,2.2686,2.2686,2.2686,2.2686,2.2686,2.2686,2.2686,2.2686,2.2341,2.2341,2.2168,2.1475,2.0781,2.026,1.9921,1.9911,2.0085,2.0085,2.024,2.0395,2.0568,2.0558,2.1098,2.1628,2.1638,2.1922,2.2579,2.3243,2.3767,2.412,2.4861,2.5227,2.5337,2.5337,2.5385,2.5421,2.5433,2.5433,2.5433,2.5433,2.5433,2.5433,2.5433,2.5433,2.2299,2.2503,2.2514,2.2579,2.2675,2.2686,2.2686,2.2686,2.2686,2.2686,2.2686,2.2686,2.2686,2.2686,2.2686,2.2686,2.2686,2.2686,2.2686,2.2686,2.2686,2.2686,2.2686,2.2686,2.2686,2.2686,2.2686,2.2686,2.2686,2.2686,2.2686,2.2686,2.2686,2.2686,2.2718,2.2815,2.2858,2.2923,2.3095,2.3235,2.3257,2.3461,2.3688,2.3903,2.4032,2.4107,2.4118,2.4118,2.4064,2.3989,2.4054,2.4032,2.4011,2.4021,2.4118,2.4118,2.4118,2.4075,2.3957,2.3935,2.3828,2.3612,2.3451,2.3321,2.3214,2.3009,2.2891,2.2826,2.2805,2.2686,2.2686,2.2686,2.2686,2.2686,2.2686,2.2686,2.2686,2.2686,2.2686,2.2686,2.2514,2.2341,2.2168,2.1649,2.1128,2.0781,2.0607,2.0781,2.0791,2.0945,2.0925,2.0742,2.0742,2.0925,2.1638,2.1638,2.1995,2.2686,2.3376,2.3892,2.4407,2.4921,2.5263,2.5409,2.5433,2.5433,2.5433,2.5433,2.5433,2.5433,2.5433,2.5433,2.5433,2.5433,2.5433,2.2514,2.2686,2.2686,2.2686,2.2686,2.2686,2.2686,2.2686,2.2686,2.2686,2.2686,2.2686,2.2686,2.2686,2.2686,2.2686,2.2686,2.2686,2.2686,2.2686,2.2686,2.2686,2.2686,2.2686,2.2686,2.2686,2.2686,2.2686,2.2686,2.2686,2.2708,2.2772,2.2772,2.2794,2.2891,2.3052,2.3106,2.3192,2.3343,2.3472,2.358,2.372,2.3903,2.4086,2.4118,2.4118,2.4118,2.4118,2.4118,2.4097,2.4107,2.4107,2.4118,2.4118,2.4118,2.4118,2.4118,2.4118,2.4107,2.4097,2.4,2.3828,2.3774,2.3558,2.3397,2.3246,2.3009,2.2762,2.2686,2.2686,2.2686,2.2686,2.2686,2.2686,2.2686,2.2686,2.2686,2.2686,2.2686,2.2686,2.2686,2.2686,2.2341,2.2341,2.1822,2.1822,2.1649,2.1475,2.1649,2.1832,2.1811,2.1292,2.1118,2.1118,2.1292,2.1475,2.1995,2.2686,2.3376,2.4064,2.4407,2.4749,2.5092,2.5433,2.5433,2.5433,2.5433,2.5433,2.5433,2.5433,2.5433,2.5433,2.5433,2.5433,2.5433,2.2654,2.2686,2.2686,2.2686,2.2686,2.2686,2.2686,2.2686,2.2686,2.2686,2.2686,2.2686,2.2686,2.2686,2.2686,2.2686,2.2686,2.2686,2.2686,2.2686,2.2686,2.2686,2.2686,2.2686,2.2686,2.2686,2.2686,2.2686,2.2686,2.2686,2.2783,2.2912,2.2966,2.3074,2.316,2.33,2.3354,2.3397,2.3591,2.3806,2.3957,2.4021,2.4075,2.4097,2.4118,2.4118,2.4118,2.4118,2.4118,2.4118,2.4118,2.4118,2.4118,2.4118,2.4118,2.4118,2.4118,2.4118,2.4118,2.4118,2.4107,2.4,2.3881,2.386,2.3677,2.3408,2.3074,2.2729,2.2686,2.2686,2.2686,2.2686,2.2686,2.2686,2.2686,2.2686,2.2686,2.2686,2.2686,2.2686,2.2686,2.2686,2.2686,2.2686,2.2514,2.2514,2.2514,2.2341,2.2341,2.2351,2.2178,2.1822,2.1465,2.1302,2.1475,2.1475,2.1822,2.2514,2.3376,2.4064,2.4407,2.4749,2.5092,2.5433,2.5433,2.5433,2.5433,2.5433,2.5433,2.5433,2.5433,2.5433,2.5433,2.5433,2.5433,2.2686,2.2686,2.2686,2.2686,2.2686,2.2686,2.2686,2.2686,2.2686,2.2686,2.2686,2.2686,2.2686,2.2686,2.2686,2.2686,2.2686,2.2686,2.2686,2.2686,2.2686,2.2686,2.2686,2.2686,2.2686,2.2697,2.2686,2.2686,2.2686,2.2708,2.2762,2.2858,2.2998,2.3063,2.3321,2.3483,2.3569,2.3666,2.3828,2.4,2.4086,2.4118,2.4118,2.4118,2.4118,2.4118,2.4118,2.4118,2.4118,2.4118,2.4118,2.4118,2.4118,2.4118,2.4118,2.4118,2.4118,2.4118,2.4118,2.4118,2.4118,2.4107,2.3989,2.3892,2.3698,2.33,2.2966,2.2718,2.2686,2.2686,2.2686,2.2686,2.2686,2.2686,2.2686,2.2686,2.2686,2.2686,2.2686,2.2686,2.2686,2.2686,2.2686,2.2686,2.2686,2.2686,2.2686,2.2514,2.2514,2.2514,2.2341,2.1984,2.1638,2.1475,2.1475,2.1649,2.1995,2.2686,2.3548,2.4064,2.4235,2.4578,2.5092,2.5433,2.5433,2.5433,2.5433,2.5433,2.5433,2.5433,2.5433,2.5433,2.5433,2.5433,2.5433,2.2686,2.2686,2.2686,2.2686,2.2686,2.2686,2.2686,2.2686,2.2686,2.2686,2.2686,2.2686,2.2686,2.2686,2.2686,2.2686,2.2686,2.2686,2.2686,2.2686,2.2686,2.2686,2.2686,2.2686,2.2729,2.2772,2.2815,2.2848,2.2891,2.2891,2.2912,2.288,2.3192,2.3311,2.3418,2.3644,2.3838,2.386,2.4,2.4097,2.4118,2.4118,2.4118,2.4118,2.4118,2.4118,2.4118,2.4118,2.4118,2.4118,2.4118,2.4118,2.4118,2.4118,2.4118,2.4118,2.4118,2.4118,2.4118,2.4118,2.4118,2.4097,2.4011,2.3806,2.3461,2.2998,2.2718,2.2697,2.2686,2.2686,2.2686,2.2686,2.2686,2.2686,2.2686,2.2686,2.2686,2.2686,2.2686,2.2686,2.2686,2.2686,2.2686,2.2686,2.2686,2.2686,2.2686,2.2686,2.2686,2.2686,2.2514,2.2157,2.2157,2.1995,2.2168,2.2168,2.2341,2.2686,2.3548,2.4064,2.4235,2.4749,2.5263,2.5433,2.5433,2.5433,2.5433,2.5433,2.5433,2.5433,2.5433,2.5433,2.5433,2.5433,2.5433,2.2686,2.2686,2.2686,2.2686,2.2686,2.2686,2.2686,2.2686,2.2697,2.2718,2.2751,2.2697,2.2718,2.2697,2.2697,2.2686,2.2686,2.2686,2.2686,2.2686,2.2686,2.2686,2.2697,2.2729,2.2815,2.2966,2.3009,2.3138,2.3278,2.3268,2.3311,2.3375,2.3483,2.3774,2.3892,2.3935,2.4032,2.4043,2.4097,2.4107,2.4118,2.4118,2.4118,2.4118,2.4118,2.4118,2.4118,2.4118,2.4118,2.4118,2.4118,2.4118,2.4118,2.4118,2.4118,2.4118,2.4118,2.4118,2.4118,2.4118,2.4107,2.4054,2.3892,2.3655,2.3354,2.3149,2.2934,2.2718,2.2686,2.2686,2.2686,2.2686,2.2686,2.2686,2.2686,2.2686,2.2686,2.2686,2.2686,2.2686,2.2686,2.2686,2.2686,2.2686,2.2686,2.2686,2.2686,2.2686,2.2686,2.2686,2.2686,2.2514,2.2686,2.2686,2.3031,2.3031,2.2686,2.3031,2.372,2.3892,2.4064,2.4749,2.5446,2.5433,2.5433,2.5433,2.5433,2.5433,2.5433,2.5433,2.5433,2.5433,2.5433,2.5433,2.5433,2.2686,2.2686,2.2686,2.2686,2.2686,2.2686,2.2686,2.2708,2.2848,2.2998,2.3095,2.2988,2.2912,2.2869,2.2729,2.2686,2.2686,2.2686,2.2686,2.2686,2.2686,2.2686,2.2718,2.2837,2.2966,2.3085,2.3181,2.3289,2.3375,2.3548,2.3601,2.3655,2.3731,2.3763,2.3892,2.4054,2.4107,2.4118,2.4118,2.4118,2.4118,2.4118,2.4118,2.4118,2.4118,2.4118,2.4118,2.4118,2.4118,2.4118,2.4118,2.4118,2.4118,2.4118,2.4118,2.4118,2.4118,2.4118,2.4107,2.4097,2.4054,2.3849,2.3666,2.344,2.3225,2.2977,2.2826,2.2708,2.2686,2.2686,2.2686,2.2686,2.2686,2.2686,2.2686,2.2686,2.2686,2.2686,2.2686,2.2686,2.2686,2.2686,2.2686,2.2686,2.2686,2.2686,2.2686,2.2686,2.2686,2.2686,2.2686,2.2859,2.2859,2.3031,2.3376,2.3204,2.2859,2.3376,2.3892,2.4064,2.4407,2.4921,2.5433,2.5433,2.5433,2.5433,2.5433,2.5433,2.5433,2.5433,2.5433,2.5433,2.5433,2.5433,2.5433,2.2686,2.2686,2.2686,2.2686,2.2686,2.2762,2.2794,2.2837,2.3052,2.3235,2.3386,2.3225,2.3106,2.302,2.2891,2.2729,2.2708,2.2686,2.2686,2.2686,2.2686,2.2729,2.2826,2.2955,2.3117,2.3235,2.3397,2.3526,2.3677,2.3795,2.3838,2.386,2.3849,2.3881,2.3924,2.4011,2.4118,2.4118,2.4118,2.4118,2.4118,2.4118,2.4118,2.4118,2.4118,2.4118,2.4118,2.4118,2.4118,2.4118,2.4118,2.4118,2.4118,2.4118,2.4118,2.4118,2.4118,2.4118,2.4107,2.4021,2.3935,2.3774,2.3451,2.3246,2.3042,2.2837,2.2708,2.2697,2.2686,2.2686,2.2686,2.2686,2.2686,2.2686,2.2686,2.2686,2.2686,2.2686,2.2686,2.2686,2.2686,2.2686,2.2686,2.2686,2.2686,2.2686,2.2686,2.2686,2.2686,2.2686,2.2686,2.2859,2.3031,2.3376,2.3548,2.372,2.3709,2.4064,2.4578,2.4407,2.4749,2.5263,2.5433,2.5433,2.5433,2.5433,2.5433,2.5433,2.5433,2.5433,2.5433,2.5433,2.5433,2.5433,2.5433,2.2686,2.2686,2.2697,2.2697,2.274,2.2945,2.302,2.3042,2.3278,2.3418,2.3472,2.3408,2.3268,2.3106,2.302,2.2891,2.2762,2.2729,2.274,2.2783,2.2826,2.288,2.2998,2.3138,2.3332,2.3644,2.3752,2.3849,2.4032,2.4021,2.4054,2.4064,2.4043,2.4054,2.4097,2.4107,2.4118,2.4118,2.4118,2.4118,2.4118,2.4118,2.4118,2.4118,2.4118,2.4118,2.4118,2.4118,2.4118,2.4118,2.4118,2.4118,2.4118,2.4118,2.4118,2.4118,2.4118,2.4118,2.4107,2.3892,2.3752,2.3666,2.3343,2.3095,2.2998,2.2837,2.2686,2.2686,2.2686,2.2686,2.2686,2.2686,2.2686,2.2686,2.2686,2.2686,2.2686,2.2686,2.2686,2.2686,2.2686,2.2686,2.2686,2.2686,2.2686,2.2686,2.2686,2.2686,2.2686,2.2686,2.2686,2.2859,2.3204,2.3548,2.3892,2.4407,2.4578,2.4921,2.5092,2.4921,2.508,2.5251,2.5421,2.5433,2.5433,2.5433,2.5433,2.5433,2.5433,2.5433,2.5433,2.5433,2.5433,2.5433,2.5433,2.2686,2.2697,2.2858,2.2923,2.2945,2.3009,2.3052,2.3117,2.3451,2.372,2.3806,2.372,2.3504,2.3311,2.3117,2.3009,2.2945,2.2934,2.2966,2.3138,2.3117,2.3192,2.33,2.3418,2.358,2.3752,2.3881,2.4,2.4097,2.4118,2.4118,2.4118,2.4118,2.4118,2.4118,2.4118,2.4118,2.4118,2.4118,2.4118,2.4118,2.4118,2.4118,2.4118,2.4118,2.4118,2.4118,2.4118,2.4118,2.4118,2.4118,2.4118,2.4118,2.4118,2.4118,2.4118,2.4118,2.4118,2.4011,2.3795,2.3526,2.3418,2.3235,2.2966,2.2826,2.2751,2.2697,2.2686,2.2686,2.2686,2.2686,2.2686,2.2686,2.2686,2.2686,2.2686,2.2686,2.2686,2.2686,2.2686,2.2686,2.2686,2.2686,2.2686,2.2686,2.2686,2.2686,2.2686,2.2686,2.2686,2.2686,2.3031,2.3376,2.372,2.4235,2.4749,2.5092,2.5433,2.5433,2.5433,2.5421,2.575,2.558,2.5763,2.5604,2.5433,2.5433,2.5433,2.5433,2.5433,2.5433,2.5433,2.5433,2.5433,2.5433,2.274,2.2826,2.2977,2.3095,2.3181,2.3257,2.3332,2.3461,2.3741,2.3924,2.3924,2.3795,2.3612,2.3397,2.3257,2.3171,2.3171,2.3171,2.3192,2.3397,2.3397,2.3429,2.3537,2.3677,2.3763,2.3881,2.4,2.4118,2.4118,2.4118,2.4118,2.4118,2.4118,2.4118,2.4118,2.4118,2.4118,2.4118,2.4118,2.4118,2.4118,2.4118,2.4118,2.4118,2.4118,2.4118,2.4118,2.4118,2.4118,2.4118,2.4118,2.4118,2.4118,2.4118,2.4118,2.4118,2.4118,2.4075,2.3903,2.3655,2.3418,2.3268,2.3052,2.2858,2.2718,2.2697,2.2686,2.2686,2.2686,2.2686,2.2686,2.2686,2.2686,2.2686,2.2686,2.2686,2.2686,2.2686,2.2686,2.2686,2.2686,2.2686,2.2686,2.2686,2.2686,2.2686,2.2686,2.2686,2.2686,2.2686,2.2859,2.3204,2.3548,2.4064,2.4578,2.508,2.5433,2.5775,2.5945,2.5945,2.6103,2.6273,2.6091,2.5921,2.5592,2.5433,2.5433,2.5433,2.5433,2.5433,2.5433,2.5433,2.5433,2.5433,2.5433,2.2837,2.3042,2.3063,2.3214,2.3418,2.3634,2.386,2.4086,2.4097,2.3967,2.3763,2.3784,2.3644,2.344,2.3397,2.3408,2.3408,2.3408,2.3461,2.3472,2.3548,2.3634,2.3709,2.3795,2.3903,2.4032,2.4118,2.4118,2.4118,2.4118,2.4118,2.4118,2.4118,2.4118,2.4118,2.4118,2.4118,2.4118,2.4118,2.4118,2.4118,2.4118,2.4118,2.4118,2.4118,2.4118,2.4118,2.4118,2.4118,2.4118,2.4118,2.4118,2.4118,2.4118,2.4118,2.4118,2.4118,2.4,2.3795,2.3548,2.3311,2.3128,2.2869,2.2729,2.2686,2.2686,2.2686,2.2686,2.2686,2.2686,2.2686,2.2686,2.2686,2.2686,2.2686,2.2686,2.2686,2.2686,2.2686,2.2686,2.2686,2.2686,2.2686,2.2686,2.2686,2.2686,2.2686,2.2686,2.2686,2.2859,2.3031,2.3376,2.372,2.4235,2.4738,2.5251,2.5763,2.6286,2.6626,2.6796,2.6796,2.6783,2.6613,2.6273,2.5763,2.5433,2.5433,2.5433,2.5433,2.5433,2.5433,2.5433,2.5433,2.5433,2.5433,2.2988,2.3085,2.3408,2.3591,2.3677,2.3903,2.4054,2.4107,2.4118,2.3978,2.3752,2.3935,2.3752,2.3429,2.3569,2.3623,2.3644,2.3666,2.3784,2.3817,2.3828,2.3935,2.3978,2.3989,2.4054,2.4086,2.4118,2.4118,2.4118,2.4118,2.4118,2.4118,2.4118,2.4118,2.4118,2.4118,2.4118,2.4118,2.4118,2.4118,2.4118,2.4118,2.4118,2.4118,2.4118,2.4118,2.4118,2.4118,2.4118,2.4118,2.4118,2.4118,2.4118,2.4118,2.4118,2.4118,2.4097,2.4011,2.3763,2.3526,2.3278,2.3042,2.2815,2.2718,2.2686,2.2686,2.2686,2.2686,2.2686,2.2686,2.2686,2.2686,2.2686,2.2686,2.2686,2.2686,2.2686,2.2686,2.2686,2.2686,2.2686,2.2686,2.2686,2.2686,2.2686,2.2686,2.2686,2.2686,2.2848,2.2848,2.3193,2.3548,2.3892,2.4395,2.4909,2.5421,2.6103,2.6626,2.6965,2.7304,2.7461,2.7292,2.6953,2.6443,2.5945,2.5604,2.5433,2.5433,2.5433,2.5433,2.5433,2.5433,2.5433,2.5433,2.5433,2.3106,2.3235,2.3591,2.3795,2.3914,2.4054,2.4118,2.4118,2.4118,2.3978,2.3774,2.3892,2.3806,2.3601,2.3677,2.3784,2.3892,2.3892,2.3967,2.4021,2.4118,2.4097,2.4107,2.4118,2.4107,2.4118,2.4118,2.4118,2.4118,2.4118,2.4118,2.4118,2.4118,2.4118,2.4118,2.4118,2.4118,2.4118,2.4118,2.4118,2.4118,2.4118,2.4118,2.4118,2.4118,2.4118,2.4118,2.4118,2.4118,2.4118,2.4118,2.4118,2.4118,2.4118,2.4118,2.4097,2.3978,2.3828,2.3601,2.3375,2.3149,2.2955,2.2772,2.2718,2.2686,2.2686,2.2686,2.2686,2.2686,2.2686,2.2686,2.2686,2.2686,2.2686,2.2686,2.2686,2.2686,2.2686,2.2686,2.2686,2.2686,2.2686,2.2686,2.2686,2.2686,2.2686,2.2859,2.2859,2.2848,2.2837,2.3365,2.3709,2.4224,2.4566,2.508,2.5763,2.6273,2.6953,2.7474,2.7812,2.7968,2.7799,2.7461,2.6613,2.5945,2.5775,2.5433,2.5433,2.5433,2.5433,2.5433,2.5433,2.5433,2.5433,2.5433,2.3214,2.3451,2.3677,2.3914,2.4097,2.4118,2.4118,2.4118,2.4118,2.3978,2.3784,2.3784,2.3795,2.372,2.3795,2.3914,2.4011,2.4054,2.4054,2.4118,2.4118,2.4118,2.4118,2.4118,2.4118,2.4118,2.4118,2.4118,2.4118,2.4118,2.4118,2.4118,2.4118,2.4118,2.4118,2.4118,2.4118,2.4118,2.4118,2.4118,2.4118,2.4118,2.4118,2.4118,2.4118,2.4118,2.4118,2.4118,2.4118,2.4118,2.4118,2.4118,2.4118,2.4054,2.4064,2.3989,2.3828,2.3612,2.3408,2.3203,2.2988,2.2815,2.2686,2.2686,2.2686,2.2686,2.2686,2.2686,2.2686,2.2686,2.2686,2.2686,2.2686,2.2686,2.2686,2.2686,2.2686,2.2686,2.2686,2.2686,2.2686,2.2686,2.2686,2.2686,2.2686,2.2686,2.2859,2.3031,2.3193,2.317,2.3525,2.4052,2.4566,2.508,2.5421,2.6103,2.6613,2.7122,2.7643,2.7981,2.8136,2.7968,2.7799,2.7122,2.6273,2.5775,2.5433,2.5433,2.5433,2.5433,2.5433,2.5433,2.5433,2.5433,2.5433,2.3451,2.3688,2.3924,2.4064,2.4107,2.4118,2.4118,2.4118,2.4118,2.3978,2.3806,2.3914,2.3914,2.3806,2.3946,2.4054,2.4086,2.4118,2.4118,2.4118,2.4118,2.4118,2.4118,2.4118,2.4118,2.4118,2.4118,2.4118,2.4118,2.4118,2.4118,2.4118,2.4118,2.4118,2.4118,2.4118,2.4118,2.4118,2.4118,2.4118,2.4118,2.4118,2.4118,2.4118,2.4118,2.4118,2.4118,2.4118,2.4118,2.4118,2.4118,2.4118,2.4118,2.3946,2.3849,2.3795,2.3644,2.3418,2.3214,2.3063,2.2902,2.2772,2.2686,2.2686,2.2686,2.2686,2.2686,2.2686,2.2686,2.2686,2.2686,2.2686,2.2686,2.2686,2.2686,2.2686,2.2686,2.2686,2.2686,2.2686,2.2686,2.2686,2.2686,2.2686,2.2686,2.2859,2.3204,2.3376,2.3537,2.3697,2.4212,2.4566,2.4921,2.5433,2.5933,2.6273,2.6783,2.7292,2.7799,2.7968,2.8318,2.8123,2.7786,2.7279,2.6783,2.6103,2.5592,2.5433,2.5433,2.5604,2.5433,2.5433,2.5433,2.5433,2.5433,2.3537,2.3774,2.4011,2.4118,2.4118,2.4118,2.4118,2.4118,2.4118,2.4043,2.3935,2.4032,2.4032,2.3914,2.4064,2.4118,2.4118,2.4118,2.4118,2.4118,2.4118,2.4118,2.4118,2.4118,2.4118,2.4118,2.4118,2.4118,2.4118,2.4118,2.4118,2.4118,2.4118,2.4118,2.4118,2.4118,2.4118,2.4118,2.4118,2.4118,2.4118,2.4118,2.4118,2.4118,2.4118,2.4118,2.4118,2.4118,2.4118,2.4118,2.4118,2.4118,2.4097,2.4021,2.3881,2.3731,2.3548,2.33,2.3095,2.2945,2.2848,2.2729,2.2686,2.2686,2.2686,2.2686,2.2686,2.2686,2.2686,2.2686,2.2686,2.2686,2.2686,2.2686,2.2686,2.2686,2.2686,2.2686,2.2686,2.2686,2.2686,2.2686,2.2686,2.2686,2.2686,2.2859,2.3204,2.3537,2.3709,2.4212,2.4738,2.5251,2.5604,2.5763,2.5933,2.6613,2.7135,2.7461,2.7799,2.8305,2.8642,2.8292,2.7941,2.7604,2.7096,2.6236,2.5908,2.5592,2.5945,2.6116,2.5775,2.5433,2.5433,2.5604,2.5616,2.3591,2.3806,2.4032,2.4118,2.4118,2.4118,2.4118,2.4118,2.4118,2.4118,2.4097,2.4107,2.4118,2.4118,2.4118,2.4118,2.4118,2.4118,2.4118,2.4118,2.4118,2.4118,2.4118,2.4118,2.4118,2.4118,2.4118,2.4118,2.4118,2.4118,2.4118,2.4118,2.4118,2.4118,2.4118,2.4118,2.4118,2.4118,2.4118,2.4118,2.4118,2.4118,2.4118,2.4118,2.4118,2.4118,2.4118,2.4118,2.4118,2.4086,2.4064,2.4021,2.3946,2.386,2.372,2.3548,2.3321,2.3138,2.2988,2.2815,2.274,2.2686,2.2686,2.2686,2.2686,2.2686,2.2686,2.2686,2.2686,2.2686,2.2686,2.2686,2.2686,2.2686,2.2686,2.2686,2.2686,2.2686,2.2686,2.2686,2.2686,2.2686,2.2686,2.2686,2.2859,2.2859,2.3193,2.3354,2.3869,2.4543,2.5056,2.558,2.6103,2.6273,2.6443,2.6783,2.7304,2.7812,2.8136,2.8824,2.9146,2.8964,2.8615,2.8096,2.7409,2.655,2.6223,2.5921,2.6261,2.6613,2.5896,2.5556,2.6286,2.6286,2.5958,2.3828,2.4043,2.4097,2.4118,2.4118,2.4118,2.4118,2.4118,2.4118,2.4118,2.4118,2.4118,2.4118,2.4118,2.4118,2.4118,2.4118,2.4118,2.4118,2.4118,2.4118,2.4118,2.4118,2.4118,2.4118,2.4118,2.4118,2.4118,2.4118,2.4118,2.4118,2.4118,2.4118,2.4118,2.4118,2.4118,2.4118,2.4118,2.4118,2.4118,2.4118,2.4118,2.4118,2.4118,2.4118,2.4118,2.4118,2.4118,2.4118,2.4064,2.3935,2.3849,2.3741,2.358,2.3408,2.3311,2.3085,2.2945,2.2794,2.2729,2.2686,2.2686,2.2686,2.2686,2.2686,2.2686,2.2686,2.2686,2.2686,2.2686,2.2686,2.2686,2.2686,2.2686,2.2686,2.2686,2.2686,2.2686,2.2686,2.2686,2.2686,2.2686,2.2675,2.2859,2.3031,2.3204,2.372,2.4052,2.4395,2.4885,2.5373,2.6078,2.6783,2.6965,2.7304,2.7135,2.7643,2.7981,2.8487,2.9174,2.9663,2.9816,2.9286,2.8601,2.7733,2.6863,2.655,2.6054,2.6601,2.6783,2.6029,2.5665,2.6575,2.7135,2.6808]},{"header":{"parameterUnit":"m.s-1","parameterCategory":1,"la1":31.0,"la2":29.5877,"lo1":-88.7671,"lo2":-86.6584,"dx":0.0162,"dy":0.0185,"nx":115,"ny":88,"refTime":"2023-01-03T18:00:00:Z","depth":0,"parameterNumber":3,"parameterNumberName":"V-component_of_WINDS"},"data":[0.0,0.0,0.0,0.0,0.0,0.0,0.0,0.0,0.0,0.0,0.0,0.0,0.0,0.0,0.0,0.0,0.0,0.0,0.0,0.0,0.0,0.0,0.0,0.0,0.0,0.0,0.0,0.0,0.0,0.0,0.0,0.0,0.0,0.0,0.0,0.0,0.0,0.0,0.0,0.0,0.0,0.0,0.0,0.0,0.0,0.0,0.0,0.0,0.0,0.0,0.0,0.0,0.0,0.0,0.0,0.0,0.0,0.0,0.0,0.0,0.0,0.0,0.0,0.0,0.0,0.0,0.0,0.0,0.0,0.0,0.0,0.0,0.0,0.0,0.0,0.0,0.0,0.0,0.0,0.0,0.0,0.0,0.0,0.0,0.0,0.0,0.0,0.0,0.0,0.0,0.0,0.0,0.0,0.0,0.0,0.0,0.0,0.0,0.0,0.0,0.0,0.0,0.0,0.0,0.0,0.0,0.0,0.0,0.0,0.0,0.0,0.0,0.0,0.0,0.0,0.0,0.0,0.0,0.0,0.0,0.0,0.0,0.0,0.0,0.0,0.0,0.0,0.0,0.0,0.0,0.0,0.0,0.0,0.0,0.0,0.0,0.0,0.0,0.0,0.0,0.0,0.0,0.0,0.0,0.0,0.0,0.0,0.0,0.0,0.0,0.0,0.0,0.0,0.0,0.0,0.0,0.0,0.0,0.0,0.0,0.0,0.0,0.0,0.0,0.0,0.0,0.0,0.0,0.0,0.0,0.0,0.0,0.0,0.0,0.0,0.0,0.0,0.0,0.0,0.0,0.0,0.0,0.0,0.0,0.0,0.0,0.0,0.0,0.0,0.0,0.0,0.0,0.0,0.0,0.0,0.0,0.0,0.0,0.0,0.0,0.0,0.0,0.0,0.0,0.0,0.0,0.0,0.0,0.0,0.0,0.0,0.0,0.0,0.0,0.0,0.0,0.0,0.0,0.0,0.0,0.0,0.0,0.0,0.0,0.0,0.0,0.0,0.0,0.0,0.0,0.0,0.0,0.0,0.0,0.0,0.0,0.0,0.0,0.0,0.0,0.0,0.0,0.0,0.0,0.0,0.0,0.0,0.0,0.0,0.0,0.0,0.0,0.0,0.0,0.0,0.0,0.0,0.0,0.0,0.0,0.0,0.0,0.0,0.0,0.0,0.0,0.0,0.0,0.0,0.0,0.0,0.0,0.0,0.0,0.0,0.0,0.0,0.0,0.0,0.0,0.0,0.0,0.0,0.0,0.0,0.0,0.0,0.0,0.0,0.0,0.0,0.0,0.0,0.0,0.0,0.0,0.0,0.0,0.0,0.0,0.0,0.0,0.0,0.0,0.0,0.0,0.0,0.0,0.0,0.0,0.0,0.0,0.0,0.0,0.0,0.0,0.0,0.0,0.0,0.0,0.0,0.0,0.0,0.0,0.0,0.0,0.0,0.0,0.0,0.0,0.0,0.0,0.0,0.0,0.0,0.0,0.0,0.0,0.0,0.0,0.0,0.0,0.0,0.0,0.0,0.0,0.0,0.0,0.0,0.0,0.0,0.0,0.0,0.0,0.0,0.0,0.0,0.0,0.0,0.0,0.0,0.0,0.0,0.0,0.0,0.0,0.0,0.0,0.0,0.0,0.0,0.0,0.0,0.0,0.0,0.0,0.0,0.0,0.0,0.0,0.0,0.0,0.0,0.0,0.0,0.0,0.0,0.0,0.0,0.0,0.0,0.0,0.0,0.0,0.0,0.0,0.0,0.0,0.0,0.0,0.0,0.0,0.0,0.0,0.0,0.0,0.0,0.0,0.0,0.0,0.0,0.0,0.0,0.0,0.0,0.0,0.0,0.0,0.0,0.0,0.0,0.0,0.0,0.0,0.0,0.0,0.0,0.0,0.0,0.0,0.0,0.0,0.0,0.0,0.0,0.0,0.0,0.0,0.0,0.0,0.0,0.0,0.0,0.0,0.0,0.0,0.0,0.0,0.0,0.0,0.0,0.0,0.0,0.0,0.0,0.0,0.0,0.0,0.0,0.0,0.0,0.0,0.0,0.0,0.0,0.0,0.0,0.0,0.0,0.0,0.0,0.0,0.0,0.0,0.0,0.0,0.0,0.0,0.0,0.0,0.0,0.0,0.0,0.0,0.0,0.0,0.0,0.0,0.0,0.0,0.0,0.0,0.0,0.0,0.0,0.0,0.0,0.0,0.0,0.0,0.0,0.0,0.0,0.0,0.0,0.0,0.0,0.0,0.0,0.0,0.0,0.0,0.0,0.0,0.0,0.0,0.0,0.0,0.0,0.0,0.0,0.0,0.0,0.0,0.0,0.0,0.0,0.0,0.0,0.0,0.0,0.0,0.0,0.0,0.0,0.0,0.0,0.0,0.0,0.0,0.0,0.0,0.0,0.0,0.0,0.0,0.0,0.0,0.0,0.0,0.0,0.0,0.0,0.0,0.0,0.0,0.0,0.0,0.0,0.0,0.0,0.0,0.0,0.0,0.0,0.0,0.0,0.0,0.0,0.0,0.0,0.0,0.0,0.0,0.0,0.0,0.0,0.0,0.0,0.0,0.0,0.0,0.0,0.0,0.0,0.0,0.0,0.0,0.0,0.0,0.0,0.0,0.0,0.0,0.0,0.0,0.0,0.0,0.0,0.0,0.0,0.0,0.0,0.0,0.0,0.0,0.0,0.0,0.0,0.0,0.0,0.0,0.0,0.0,0.0,0.0,0.0,0.0,0.0,0.0,0.0,0.0,0.0,0.0,0.0,0.0,0.0,0.0,0.0,0.0,0.0,0.0,0.0,0.0,0.0,0.0,0.0,0.0,0.0,0.0,0.0,0.0,0.0,0.0,0.0,0.0,0.0,0.0,0.0,0.0,0.0,0.0,0.0,0.0,0.0,0.0,0.0,0.0,0.0,0.0,0.0,0.0,0.0,0.0,0.0,0.0,0.0,0.0,0.0,0.0,0.0,0.0,0.0,0.0,0.0,0.0,0.0,0.0,0.0,0.0,0.0,0.0,0.0,0.0,0.0,0.0,0.0,0.0,0.0,0.0,0.0,0.0,0.0,0.0,0.0,0.0,0.0,0.0,0.0,0.0,0.0,0.0,0.0,0.0,0.0,0.0,0.0,0.0,0.0,0.0,0.0,0.0,0.0,0.0,0.0,0.0,0.0,0.0,0.0,0.0,0.0,0.0,0.0,0.0,0.0,0.0,0.0,0.0,0.0,0.0,0.0,0.0,0.0,0.0,0.0,0.0,0.0,0.0,0.0,0.0,0.0,0.0,0.0,0.0,0.0,0.0,0.0,0.0,0.0,0.0,0.0,0.0,0.0,0.0,0.0,0.0,0.0,0.0,0.0,0.0,0.0,0.0,0.0,0.0,0.0,0.0,0.0,0.0,0.0,0.0,0.0,0.0,0.0,0.0,0.0,0.0,0.0,0.0,0.0,0.0,0.0,0.0,0.0,0.0,0.0,0.0,0.0,0.0,0.0,0.0,0.0,0.0,0.0,0.0,0.0,0.0,0.0,0.0,0.0,0.0,0.0,0.0,0.0,0.0,0.0,0.0,0.0,0.0,0.0,0.0,0.0,0.0,0.0,0.0,0.0,0.0,0.0,0.0,0.0,0.0,0.0,0.0,0.0,0.0,0.0,0.0,0.0,0.0,0.0,0.0,0.0,0.0,0.0,0.0,0.0,0.0,0.0,0.0,0.0,0.0,0.0,0.0,0.0,0.0,0.0,0.0,0.0,0.0,0.0,0.0,0.0,0.0,0.0,0.0,0.0,0.0,0.0,0.0,0.0,0.0,0.0,0.0,0.0,0.0,0.0,0.0,0.0,0.0,0.0,0.0,0.0,0.0,0.0,0.0,0.0,0.0,0.0,0.0,0.0,0.0,0.0,0.0,0.0,0.0,0.0,0.0,0.0,0.0,0.0,0.0,0.0,0.0,0.0,0.0,0.0,0.0,0.0,0.0,0.0,0.0,0.0,0.0,0.0,0.0,0.0,0.0,0.0,0.0,0.0,0.0,0.0,0.0,0.0,0.0,0.0,0.0,0.0,0.0,0.0,0.0,0.0,0.0,0.0,0.0,0.0,0.0,0.0,0.0,0.0,0.0,0.0,0.0,0.0,0.0,0.0,0.0,0.0,0.0,0.0,0.0,0.0,0.0,0.0,0.0,0.0,0.0,0.0,0.0,0.0,0.0,0.0,0.0,0.0,0.0,0.0,0.0,0.0,0.0,0.0,0.0,0.0,0.0,-1.4489,0.0,0.0,0.0,-1.0889,0.0,0.0,0.0,0.0,0.0,0.0,0.0,0.0,0.0,0.0,0.0,0.0,0.0,0.0,0.0,0.0,0.0,0.0,0.0,0.0,0.0,0.0,0.0,0.0,0.0,0.0,0.0,0.0,0.0,0.0,0.0,0.0,0.0,0.0,0.0,0.0,0.0,0.0,0.0,0.0,0.0,0.0,0.0,0.0,0.0,0.0,0.0,0.0,0.0,0.0,0.0,0.0,0.0,0.0,0.0,0.0,0.0,0.0,0.0,0.0,0.0,0.0,0.0,0.0,0.0,0.0,0.0,0.0,0.0,0.0,0.0,0.0,0.0,0.0,0.0,0.0,0.0,0.0,0.0,0.0,0.0,0.0,0.0,0.0,0.0,0.0,0.0,0.0,0.0,0.0,0.0,0.0,0.0,0.0,0.0,0.0,0.0,0.0,0.0,0.0,0.0,0.0,0.0,0.0,0.0,0.0,0.0,0.0,0.0,0.0,-1.4176,-1.1751,-1.4574,-1.4518,-1.1127,0.0,0.0,0.0,0.0,0.0,0.0,0.0,0.0,0.0,0.0,0.0,0.0,0.0,0.0,0.0,0.0,0.0,0.0,0.0,0.0,0.0,0.0,0.0,0.0,0.0,0.0,0.0,0.0,0.0,0.0,0.0,0.0,0.0,0.0,0.0,0.0,0.0,0.0,0.0,0.0,0.0,0.0,0.0,0.0,0.0,0.0,0.0,0.0,0.0,0.0,0.0,0.0,0.0,0.0,0.0,0.0,0.0,0.0,0.0,0.0,0.0,0.0,0.0,0.0,0.0,0.0,0.0,0.0,0.0,0.0,0.0,0.0,0.0,0.0,0.0,0.0,0.0,0.0,0.0,0.0,0.0,0.0,0.0,0.0,0.0,0.0,0.0,0.0,0.0,0.0,0.0,0.0,0.0,0.0,0.0,0.0,0.0,0.0,0.0,0.0,0.0,0.0,0.0,0.0,0.0,0.0,0.0,0.0,0.0,0.0,0.0,0.0,-1.5518,-1.5888,-1.289,0.0,0.0,0.0,0.0,0.0,0.0,0.0,0.0,0.0,0.0,0.0,0.0,0.0,0.0,0.0,0.0,0.0,0.0,0.0,0.0,0.0,0.0,0.0,0.0,0.0,0.0,0.0,0.0,0.0,0.0,0.0,0.0,0.0,0.0,0.0,0.0,0.0,0.0,0.0,0.0,0.0,0.0,0.0,0.0,0.0,0.0,0.0,0.0,0.0,0.0,0.0,0.0,0.0,0.0,0.0,0.0,0.0,0.0,0.0,0.0,0.0,0.0,0.0,0.0,0.0,0.0,0.0,0.0,0.0,0.0,0.0,0.0,0.0,0.0,0.0,0.0,0.0,0.0,0.0,0.0,0.0,0.0,0.0,0.0,0.0,0.0,0.0,0.0,0.0,0.0,0.0,0.0,0.0,0.0,0.0,0.0,0.0,0.0,0.0,0.0,0.0,0.0,0.0,0.0,0.0,0.0,0.0,0.0,0.0,0.0,-1.331,-1.3859,-1.5033,0.0,-1.6104,0.0,0.0,0.0,0.0,0.0,0.0,0.0,0.0,0.0,0.0,0.0,0.0,0.0,0.0,0.0,0.0,0.0,0.0,0.0,0.0,0.0,0.0,0.0,0.0,0.0,0.0,0.0,0.0,0.0,0.0,0.0,0.0,0.0,0.0,0.0,0.0,0.0,0.0,0.0,0.0,0.0,0.0,0.0,0.0,0.0,0.0,0.0,0.0,0.0,0.0,0.0,0.0,0.0,0.0,0.0,0.0,0.0,0.0,0.0,0.0,0.0,0.0,0.0,0.0,0.0,0.0,0.0,0.0,0.0,0.0,0.0,0.0,0.0,0.0,0.0,0.0,0.0,0.0,0.0,0.0,0.0,0.0,0.0,0.0,0.0,0.0,0.0,0.0,0.0,0.0,0.0,0.0,0.0,0.0,0.0,0.0,0.0,0.0,0.0,0.0,0.0,0.0,0.0,0.0,0.0,0.0,0.0,0.0,0.0,0.0,-1.45,-1.4862,-1.5194,-1.5307,0.0,0.0,0.0,0.0,0.0,0.0,0.0,0.0,0.0,0.0,0.0,0.0,0.0,0.0,0.0,0.0,0.0,0.0,0.0,0.0,0.0,0.0,0.0,0.0,0.0,0.0,0.0,0.0,0.0,0.0,0.0,0.0,0.0,0.0,0.0,0.0,0.0,0.0,0.0,0.0,0.0,0.0,0.0,0.0,0.0,0.0,0.0,0.0,0.0,0.0,0.0,0.0,0.0,0.0,0.0,0.0,0.0,0.0,0.0,0.0,0.0,0.0,0.0,0.0,0.0,0.0,0.0,0.0,0.0,0.0,0.0,0.0,0.0,0.0,0.0,0.0,0.0,0.0,0.0,0.0,0.0,0.0,0.0,0.0,0.0,0.0,0.0,0.0,0.0,0.0,0.0,0.0,0.0,0.0,0.0,0.0,0.0,0.0,0.0,0.0,0.0,0.0,0.0,0.0,0.0,0.0,0.0,0.0,0.0,0.0,-1.5579,-1.6208,-1.643,-1.6205,-1.5625,-1.4484,0.0,0.0,0.0,0.0,0.0,0.0,0.0,0.0,0.0,0.0,0.0,0.0,0.0,0.0,0.0,0.0,0.0,0.0,0.0,0.0,0.0,0.0,0.0,0.0,0.0,0.0,0.0,0.0,0.0,0.0,0.0,0.0,0.0,0.0,0.0,0.0,0.0,0.0,0.0,0.0,0.0,0.0,0.0,0.0,0.0,0.0,0.0,0.0,0.0,0.0,0.0,0.0,0.0,0.0,0.0,0.0,0.0,0.0,0.0,0.0,0.0,0.0,0.0,0.0,0.0,0.0,0.0,0.0,0.0,0.0,0.0,0.0,0.0,0.0,0.0,0.0,0.0,0.0,0.0,0.0,0.0,0.0,0.0,0.0,0.0,0.0,0.0,0.0,0.0,0.0,0.0,0.0,0.0,0.0,0.0,0.0,0.0,0.0,0.0,0.0,0.0,0.0,0.0,0.0,0.0,0.0,0.0,0.0,-1.8625,-1.8134,-1.8172,-1.8943,-1.8281,-1.7069,0.0,0.0,0.0,0.0,0.0,0.0,0.0,0.0,0.0,0.0,0.0,0.0,0.0,0.0,0.0,0.0,0.0,0.0,0.0,0.0,0.0,0.0,0.0,0.0,0.0,0.0,0.0,0.0,0.0,0.0,0.0,0.0,0.0,0.0,0.0,0.0,0.0,0.0,0.0,0.0,0.0,0.0,0.0,0.0,0.0,0.0,0.0,0.0,0.0,0.0,0.0,0.0,0.0,0.0,0.0,0.0,0.0,0.0,0.0,0.0,0.0,0.0,0.0,0.0,0.0,0.0,0.0,0.0,0.0,0.0,0.0,0.0,0.0,0.0,0.0,0.0,0.0,0.0,0.0,0.0,0.0,0.0,0.0,0.0,0.0,0.0,0.0,0.0,0.0,0.0,0.0,0.0,0.0,0.0,0.0,0.0,0.0,0.0,0.0,0.0,0.0,0.0,0.0,0.0,0.0,0.0,0.0,0.0,0.0,-1.6661,-1.6963,-1.803,-1.9819,-1.7098,-1.5739,0.0,0.0,0.0,0.0,0.0,0.0,0.0,0.0,0.0,0.0,0.0,0.0,0.0,0.0,0.0,0.0,0.0,0.0,0.0,0.0,0.0,0.0,0.0,0.0,0.0,0.0,0.0,0.0,0.0,0.0,0.0,0.0,0.0,0.0,0.0,0.0,0.0,0.0,0.0,0.0,0.0,0.0,0.0,0.0,0.0,0.0,0.0,0.0,0.0,0.0,0.0,0.0,0.0,0.0,0.0,0.0,0.0,0.0,0.0,0.0,0.0,0.0,0.0,0.0,0.0,0.0,0.0,0.0,0.0,0.0,0.0,0.0,0.0,0.0,0.0,0.0,0.0,0.0,0.0,0.0,0.0,0.0,0.0,0.0,0.0,0.0,0.0,0.0,0.0,0.0,0.0,0.0,0.0,0.0,0.0,0.0,0.0,0.0,0.0,0.0,0.0,0.0,0.0,0.0,0.0,0.0,0.0,0.0,0.0,-1.6583,-1.7964,-1.9021,-1.9526,-1.6885,-1.5107,0.0,0.0,0.0,0.0,0.0,0.0,0.0,0.0,0.0,0.0,0.0,0.0,0.0,0.0,0.0,0.0,0.0,0.0,0.0,0.0,0.0,0.0,0.0,0.0,0.0,0.0,0.0,0.0,0.0,0.0,0.0,0.0,0.0,0.0,0.0,0.0,0.0,0.0,0.0,0.0,0.0,0.0,0.0,0.0,0.0,0.0,0.0,0.0,0.0,0.0,0.0,0.0,0.0,0.0,0.0,0.0,0.0,0.0,0.0,0.0,0.0,0.0,0.0,0.0,0.0,0.0,0.0,0.0,0.0,0.0,0.0,0.0,0.0,0.0,0.0,0.0,0.0,0.0,0.0,0.0,0.0,0.0,0.0,0.0,0.0,0.0,0.0,0.0,0.0,0.0,0.0,0.0,0.0,0.0,0.0,0.0,0.0,0.0,0.0,0.0,0.0,0.0,0.0,0.0,0.0,0.0,0.0,0.0,-1.4943,-1.8962,-2.1527,-2.1195,-1.8084,-1.7827,-1.5502,0.0,0.0,0.0,0.0,0.0,0.0,0.0,0.0,0.0,0.0,0.0,0.0,0.0,0.0,0.0,0.0,0.0,0.0,0.0,0.0,0.0,0.0,0.0,0.0,0.0,0.0,0.0,0.0,0.0,0.0,0.0,0.0,0.0,0.0,0.0,0.0,0.0,0.0,0.0,0.0,0.0,0.0,0.0,0.0,0.0,0.0,0.0,0.0,0.0,0.0,0.0,0.0,0.0,0.0,0.0,0.0,0.0,0.0,0.0,0.0,0.0,0.0,0.0,0.0,0.0,0.0,0.0,0.0,0.0,0.0,0.0,0.0,0.0,0.0,0.0,0.0,0.0,0.0,0.0,0.0,0.0,0.0,0.0,0.0,0.0,0.0,0.0,0.0,0.0,0.0,0.0,0.0,0.0,0.0,0.0,0.0,0.0,0.0,0.0,0.0,0.0,0.0,0.0,0.0,0.0,0.0,0.0,0.0,0.0,-1.6658,-2.0215,-2.1351,-1.9684,-1.7392,-1.6003,0.0,0.0,0.0,0.0,0.0,0.0,0.0,0.0,0.0,0.0,0.0,0.0,0.0,0.0,0.0,0.0,0.0,0.0,0.0,0.0,0.0,0.0,0.0,0.0,0.0,0.0,0.0,0.0,0.0,0.0,0.0,0.0,0.0,0.0,0.0,0.0,0.0,0.0,0.0,0.0,0.0,0.0,0.0,0.0,0.0,0.0,0.0,0.0,0.0,0.0,0.0,0.0,0.0,0.0,0.0,0.0,0.0,0.0,0.0,0.0,0.0,0.0,0.0,0.0,0.0,0.0,0.0,0.0,0.0,0.0,0.0,0.0,0.0,0.0,0.0,0.0,0.0,0.0,0.0,0.0,0.0,0.0,0.0,0.0,0.0,0.0,0.0,0.0,0.0,0.0,0.0,0.0,0.0,0.0,0.0,0.0,0.0,0.0,0.0,0.0,0.0,0.0,0.0,0.0,0.0,0.0,0.0,0.0,0.0,-1.992,-2.2892,-2.3874,-2.2438,-1.9411,-1.7714,-1.7457,0.0,0.0,0.0,0.0,0.0,0.0,0.0,0.0,0.0,0.0,0.0,0.0,0.0,0.0,0.0,0.0,0.0,0.0,0.0,0.0,0.0,0.0,0.0,0.0,0.0,0.0,0.0,0.0,0.0,0.0,0.0,0.0,0.0,0.0,0.0,0.0,0.0,0.0,0.0,0.0,0.0,0.0,0.0,0.0,0.0,0.0,0.0,0.0,0.0,0.0,0.0,0.0,0.0,0.0,0.0,0.0,0.0,0.0,0.0,0.0,0.0,0.0,0.0,0.0,0.0,0.0,0.0,0.0,0.0,0.0,0.0,0.0,0.0,0.0,0.0,0.0,0.0,0.0,0.0,0.0,0.0,0.0,0.0,0.0,0.0,0.0,0.0,0.0,0.0,0.0,0.0,0.0,0.0,0.0,0.0,0.0,0.0,0.0,0.0,0.0,0.0,0.0,0.0,0.0,0.0,0.0,0.0,0.0,-2.7233,-2.8942,-2.8566,-2.5912,-2.3295,-2.0397,0.0,0.0,0.0,0.0,0.0,0.0,0.0,0.0,0.0,0.0,0.0,0.0,0.0,0.0,0.0,0.0,0.0,0.0,0.0,0.0,0.0,0.0,0.0,0.0,0.0,0.0,0.0,0.0,0.0,0.0,0.0,0.0,0.0,0.0,0.0,0.0,0.0,0.0,0.0,0.0,0.0,0.0,0.0,0.0,0.0,0.0,0.0,0.0,0.0,0.0,0.0,0.0,0.0,0.0,0.0,0.0,0.0,0.0,0.0,0.0,0.0,0.0,0.0,0.0,0.0,0.0,0.0,0.0,0.0,0.0,0.0,0.0,0.0,0.0,0.0,0.0,0.0,0.0,0.0,0.0,0.0,0.0,0.0,0.0,0.0,0.0,0.0,0.0,0.0,0.0,0.0,0.0,0.0,0.0,0.0,0.0,0.0,0.0,0.0,0.0,0.0,0.0,0.0,0.0,0.0,0.0,0.0,0.0,0.0,-3.1545,-3.3876,-3.3238,-2.944,-2.5658,-2.2636,0.0,0.0,0.0,0.0,0.0,0.0,0.0,0.0,0.0,0.0,0.0,0.0,0.0,0.0,0.0,0.0,0.0,0.0,0.0,0.0,0.0,0.0,0.0,0.0,0.0,0.0,0.0,0.0,0.0,0.0,0.0,0.0,0.0,0.0,0.0,0.0,0.0,0.0,0.0,0.0,0.0,0.0,0.0,0.0,0.0,0.0,0.0,0.0,0.0,0.0,0.0,0.0,0.0,0.0,0.0,0.0,0.0,0.0,0.0,0.0,0.0,0.0,0.0,0.0,0.0,0.0,0.0,0.0,0.0,0.0,0.0,0.0,0.0,0.0,0.0,0.0,0.0,0.0,0.0,0.0,0.0,0.0,0.0,0.0,0.0,0.0,0.0,0.0,0.0,0.0,0.0,0.0,0.0,0.0,0.0,0.0,0.0,0.0,0.0,0.0,0.0,0.0,0.0,0.0,0.0,0.0,0.0,0.0,-3.0962,-3.4808,-3.7061,-3.6845,-3.4004,-2.9413,-2.5848,0.0,0.0,0.0,0.0,0.0,0.0,0.0,0.0,0.0,0.0,0.0,0.0,0.0,0.0,0.0,0.0,0.0,0.0,0.0,0.0,0.0,0.0,0.0,0.0,0.0,0.0,0.0,0.0,0.0,0.0,0.0,0.0,0.0,0.0,0.0,0.0,0.0,0.0,0.0,0.0,0.0,0.0,0.0,0.0,0.0,0.0,0.0,0.0,0.0,0.0,0.0,0.0,0.0,0.0,0.0,0.0,0.0,0.0,0.0,0.0,0.0,0.0,0.0,0.0,0.0,0.0,0.0,0.0,0.0,0.0,0.0,0.0,0.0,0.0,0.0,0.0,0.0,0.0,0.0,0.0,0.0,0.0,0.0,0.0,0.0,0.0,0.0,0.0,0.0,0.0,0.0,0.0,0.0,0.0,0.0,0.0,0.0,0.0,0.0,0.0,0.0,0.0,0.0,0.0,0.0,0.0,0.0,0.0,-3.3915,-3.7294,-3.9004,-3.9392,-3.8421,-3.3517,-2.9219,0.0,0.0,0.0,0.0,0.0,0.0,0.0,0.0,0.0,0.0,0.0,0.0,0.0,0.0,0.0,0.0,0.0,0.0,0.0,0.0,0.0,0.0,0.0,0.0,0.0,0.0,0.0,0.0,0.0,0.0,0.0,0.0,0.0,0.0,0.0,0.0,0.0,0.0,0.0,0.0,0.0,0.0,0.0,0.0,0.0,0.0,0.0,0.0,0.0,0.0,0.0,0.0,0.0,0.0,0.0,0.0,0.0,0.0,0.0,0.0,0.0,0.0,0.0,0.0,0.0,0.0,0.0,0.0,0.0,0.0,0.0,0.0,0.0,0.0,0.0,0.0,0.0,0.0,0.0,0.0,0.0,0.0,0.0,0.0,0.0,0.0,0.0,0.0,0.0,0.0,0.0,0.0,0.0,0.0,0.0,0.0,0.0,0.0,0.0,0.0,0.0,0.0,0.0,0.0,0.0,0.0,0.0,0.0,-3.5663,-3.9043,-4.013,-4.0247,-3.9431,-3.4428,-3.0114,0.0,0.0,0.0,0.0,0.0,0.0,0.0,0.0,0.0,0.0,0.0,0.0,0.0,0.0,0.0,0.0,0.0,0.0,0.0,0.0,0.0,0.0,0.0,0.0,0.0,0.0,0.0,0.0,0.0,0.0,0.0,0.0,0.0,0.0,0.0,0.0,0.0,0.0,0.0,0.0,0.0,0.0,0.0,0.0,0.0,0.0,0.0,0.0,-1.9157,0.0,0.0,0.0,0.0,0.0,0.0,0.0,0.0,0.0,0.0,0.0,0.0,0.0,0.0,0.0,0.0,0.0,0.0,0.0,0.0,0.0,0.0,0.0,0.0,0.0,0.0,0.0,0.0,0.0,0.0,0.0,0.0,0.0,0.0,0.0,0.0,0.0,0.0,0.0,0.0,0.0,0.0,0.0,0.0,0.0,0.0,0.0,0.0,0.0,0.0,0.0,0.0,0.0,0.0,0.0,0.0,0.0,0.0,0.0,-3.6168,-3.9587,-4.048,-4.0519,-3.9625,-3.6634,-3.2827,0.0,0.0,0.0,0.0,0.0,0.0,0.0,0.0,0.0,0.0,0.0,0.0,0.0,0.0,0.0,0.0,0.0,0.0,0.0,0.0,0.0,0.0,0.0,0.0,0.0,0.0,0.0,0.0,0.0,0.0,0.0,0.0,0.0,0.0,0.0,0.0,0.0,0.0,0.0,0.0,0.0,0.0,0.0,0.0,0.0,0.0,0.0,0.0,0.0,0.0,0.0,0.0,0.0,0.0,0.0,0.0,0.0,0.0,0.0,0.0,0.0,0.0,0.0,0.0,0.0,0.0,0.0,0.0,0.0,0.0,0.0,0.0,0.0,0.0,0.0,0.0,0.0,0.0,0.0,0.0,0.0,0.0,0.0,0.0,0.0,0.0,0.0,0.0,0.0,0.0,0.0,0.0,0.0,0.0,0.0,0.0,0.0,0.0,0.0,0.0,0.0,0.0,0.0,0.0,0.0,0.0,0.0,-3.2858,-3.6509,-4.0112,-4.0937,-4.0907,-4.0092,-3.912,-3.5779,-2.9836,0.0,0.0,0.0,0.0,0.0,0.0,0.0,0.0,0.0,0.0,0.0,0.0,0.0,0.0,0.0,0.0,0.0,0.0,0.0,0.0,0.0,0.0,0.0,0.0,0.0,0.0,0.0,0.0,0.0,0.0,0.0,0.0,0.0,0.0,0.0,0.0,0.0,0.0,-1.7378,-2.139,0.0,0.0,0.0,0.0,0.0,0.0,0.0,0.0,-2.0246,0.0,0.0,0.0,0.0,0.0,0.0,0.0,0.0,0.0,0.0,0.0,0.0,0.0,0.0,0.0,0.0,0.0,0.0,0.0,0.0,0.0,0.0,0.0,0.0,0.0,0.0,0.0,0.0,0.0,0.0,0.0,0.0,0.0,0.0,0.0,0.0,0.0,0.0,0.0,0.0,0.0,0.0,0.0,0.0,0.0,0.0,0.0,0.0,0.0,0.0,0.0,0.0,0.0,0.0,0.0,0.0,-3.4216,-3.5193,-3.788,-4.2574,-4.2964,-4.2656,-4.1801,-4.0286,-3.6634,-3.0768,0.0,0.0,0.0,0.0,0.0,0.0,0.0,0.0,0.0,0.0,0.0,0.0,0.0,0.0,0.0,0.0,0.0,0.0,0.0,0.0,0.0,0.0,0.0,0.0,0.0,0.0,0.0,0.0,0.0,0.0,0.0,0.0,0.0,0.0,0.0,0.0,0.0,0.0,0.0,-2.5984,-2.7326,0.0,0.0,0.0,0.0,0.0,0.0,0.0,0.0,-2.0042,0.0,0.0,0.0,0.0,0.0,0.0,0.0,0.0,0.0,0.0,0.0,0.0,0.0,0.0,0.0,0.0,0.0,0.0,0.0,0.0,0.0,0.0,0.0,0.0,0.0,0.0,0.0,0.0,0.0,0.0,0.0,0.0,0.0,0.0,0.0,0.0,0.0,0.0,0.0,0.0,0.0,0.0,0.0,0.0,0.0,0.0,0.0,0.0,0.0,0.0,0.0,0.0,0.0,0.0,0.0,-3.3421,-3.7161,-4.0427,-4.3169,-4.3419,-4.3316,-4.285,-4.1218,-3.7528,0.0,0.0,0.0,0.0,0.0,0.0,0.0,0.0,0.0,0.0,0.0,0.0,0.0,0.0,0.0,0.0,0.0,0.0,0.0,0.0,0.0,0.0,0.0,0.0,0.0,0.0,0.0,0.0,0.0,0.0,0.0,0.0,0.0,0.0,0.0,0.0,0.0,0.0,0.0,0.0,-2.8063,-2.9582,-3.0277,0.0,0.0,0.0,0.0,0.0,0.0,-2.327,-2.1456,0.0,0.0,0.0,0.0,0.0,0.0,0.0,0.0,0.0,0.0,0.0,0.0,0.0,0.0,0.0,0.0,0.0,0.0,0.0,0.0,0.0,0.0,0.0,0.0,0.0,0.0,0.0,0.0,0.0,0.0,0.0,0.0,0.0,0.0,0.0,0.0,0.0,0.0,0.0,0.0,0.0,0.0,0.0,0.0,0.0,0.0,0.0,0.0,0.0,0.0,0.0,0.0,0.0,0.0,0.0,-3.2055,-3.8423,-4.2383,-4.3724,-4.4106,-4.4093,-4.3743,-4.2073,-3.8266,0.0,0.0,0.0,0.0,0.0,0.0,0.0,0.0,0.0,0.0,0.0,0.0,0.0,0.0,0.0,0.0,0.0,0.0,0.0,0.0,0.0,0.0,0.0,0.0,0.0,0.0,0.0,0.0,0.0,0.0,0.0,0.0,0.0,0.0,0.0,0.0,0.0,0.0,0.0,0.0,0.0,-3.1689,-3.2551,-3.0903,0.0,0.0,0.0,0.0,-2.7079,-2.6213,0.0,0.0,0.0,0.0,0.0,0.0,0.0,0.0,0.0,0.0,0.0,0.0,0.0,0.0,0.0,0.0,0.0,0.0,0.0,0.0,0.0,0.0,0.0,0.0,0.0,0.0,0.0,0.0,0.0,0.0,0.0,0.0,0.0,0.0,0.0,0.0,0.0,0.0,0.0,0.0,0.0,0.0,0.0,0.0,0.0,0.0,0.0,0.0,0.0,0.0,0.0,0.0,0.0,0.0,0.0,0.0,-3.2711,-3.8105,-4.2344,-4.5287,-4.637,-4.6152,-4.4676,-4.2966,-3.8887,0.0,0.0,0.0,0.0,0.0,0.0,0.0,0.0,0.0,0.0,0.0,0.0,0.0,0.0,0.0,0.0,0.0,0.0,0.0,0.0,0.0,0.0,0.0,0.0,0.0,0.0,0.0,0.0,0.0,0.0,0.0,0.0,0.0,0.0,0.0,0.0,0.0,0.0,0.0,0.0,0.0,-3.399,-3.3017,-3.2128,-3.1635,0.0,0.0,-3.2061,-3.3532,-3.3597,0.0,0.0,0.0,0.0,0.0,0.0,0.0,0.0,0.0,0.0,0.0,0.0,0.0,0.0,0.0,0.0,0.0,0.0,0.0,0.0,0.0,0.0,0.0,0.0,0.0,0.0,0.0,0.0,0.0,0.0,0.0,0.0,0.0,0.0,0.0,0.0,0.0,0.0,0.0,0.0,0.0,0.0,0.0,0.0,0.0,0.0,0.0,0.0,0.0,0.0,0.0,0.0,0.0,0.0,0.0,-2.9574,-3.3594,-4.0574,-4.5148,-4.7047,-4.7727,-4.7706,-4.6968,-4.4365,-3.9936,0.0,0.0,0.0,0.0,0.0,0.0,0.0,0.0,0.0,0.0,0.0,0.0,0.0,0.0,0.0,0.0,0.0,0.0,0.0,0.0,0.0,0.0,0.0,0.0,0.0,0.0,0.0,0.0,0.0,0.0,0.0,0.0,0.0,0.0,0.0,0.0,0.0,0.0,0.0,0.0,0.0,0.0,-3.679,-3.5539,0.0,0.0,0.0,-3.4718,-3.4927,0.0,0.0,0.0,0.0,0.0,0.0,0.0,0.0,0.0,0.0,0.0,0.0,0.0,0.0,0.0,0.0,0.0,0.0,0.0,0.0,0.0,0.0,0.0,0.0,0.0,0.0,0.0,0.0,0.0,0.0,0.0,0.0,0.0,0.0,0.0,0.0,0.0,0.0,0.0,0.0,0.0,0.0,0.0,0.0,0.0,0.0,0.0,0.0,0.0,0.0,0.0,0.0,0.0,0.0,0.0,0.0,0.0,-3.4419,-4.3025,-4.773,-4.8205,-4.8631,-4.8771,-4.8561,-4.5919,0.0,0.0,0.0,0.0,0.0,0.0,0.0,0.0,0.0,0.0,0.0,0.0,0.0,0.0,0.0,0.0,0.0,0.0,0.0,0.0,0.0,0.0,0.0,0.0,0.0,0.0,0.0,-1.1907,0.0,0.0,0.0,0.0,0.0,0.0,0.0,0.0,0.0,0.0,0.0,0.0,0.0,0.0,-3.5997,-3.9482,-3.8627,-3.8452,0.0,0.0,-3.746,-3.7405,-3.8596,-3.779,0.0,0.0,0.0,0.0,0.0,0.0,0.0,0.0,0.0,0.0,0.0,0.0,0.0,0.0,0.0,0.0,0.0,0.0,0.0,0.0,0.0,0.0,0.0,0.0,0.0,0.0,0.0,0.0,0.0,0.0,0.0,0.0,0.0,0.0,0.0,0.0,0.0,0.0,0.0,0.0,0.0,0.0,0.0,0.0,0.0,0.0,0.0,0.0,0.0,0.0,0.0,0.0,0.0,0.0,-3.268,-3.54,-4.4382,-4.8836,-4.8265,-4.9126,-4.9317,-4.8599,-4.7589,-4.3122,0.0,0.0,0.0,0.0,0.0,0.0,0.0,0.0,0.0,0.0,0.0,0.0,0.0,0.0,0.0,0.0,0.0,0.0,0.0,0.0,0.0,0.0,0.0,0.0,0.0,0.0,0.0,0.0,0.0,0.0,0.0,0.0,0.0,0.0,0.0,0.0,0.0,0.0,0.0,0.0,0.0,-3.6723,-3.9039,-4.0402,-4.1915,0.0,0.0,-4.1361,-4.3615,-4.4528,-4.2486,-3.4801,0.0,0.0,0.0,0.0,0.0,0.0,0.0,0.0,0.0,0.0,0.0,0.0,0.0,0.0,0.0,0.0,0.0,0.0,0.0,0.0,0.0,0.0,0.0,0.0,0.0,0.0,0.0,0.0,0.0,0.0,0.0,0.0,0.0,0.0,0.0,0.0,0.0,0.0,0.0,0.0,0.0,0.0,0.0,0.0,0.0,0.0,0.0,0.0,0.0,0.0,0.0,0.0,0.0,-3.3004,-3.6102,-4.4767,-4.9394,-4.9644,-5.0201,-5.0361,-5.0092,-4.8798,-4.5297,0.0,0.0,0.0,0.0,0.0,0.0,0.0,0.0,0.0,0.0,0.0,0.0,0.0,0.0,0.0,0.0,0.0,0.0,0.0,0.0,0.0,0.0,0.0,0.0,0.0,0.0,0.0,0.0,-2.2336,-2.264,-2.0873,0.0,0.0,0.0,0.0,0.0,0.0,0.0,0.0,0.0,0.0,-3.9505,-4.2715,-4.3113,0.0,0.0,-4.4638,-4.3723,-4.5151,-4.4381,-4.205,-3.75,-3.3867,0.0,0.0,0.0,0.0,0.0,0.0,0.0,0.0,0.0,0.0,0.0,0.0,0.0,0.0,0.0,0.0,0.0,0.0,0.0,0.0,0.0,0.0,0.0,0.0,0.0,0.0,0.0,0.0,0.0,0.0,0.0,0.0,0.0,0.0,0.0,0.0,0.0,0.0,0.0,0.0,0.0,0.0,0.0,0.0,0.0,0.0,0.0,0.0,0.0,0.0,0.0,0.0,-3.3777,-3.6871,-4.5246,-4.989,-5.0469,-5.0717,-5.089,-5.0966,-4.9912,-4.7156,0.0,0.0,0.0,0.0,0.0,0.0,0.0,0.0,0.0,0.0,0.0,0.0,0.0,0.0,0.0,0.0,0.0,0.0,0.0,0.0,0.0,0.0,0.0,0.0,0.0,0.0,0.0,0.0,-2.4977,-2.4295,-2.1429,0.0,0.0,0.0,0.0,0.0,0.0,0.0,0.0,0.0,0.0,-4.2106,-4.5283,-4.5244,-4.5466,-4.7132,-4.5796,-4.4779,-4.5321,-4.4143,-4.2148,-3.9265,0.0,0.0,0.0,0.0,0.0,0.0,0.0,0.0,0.0,0.0,0.0,0.0,0.0,0.0,0.0,0.0,0.0,0.0,0.0,0.0,0.0,0.0,0.0,0.0,0.0,0.0,0.0,-1.7713,0.0,0.0,-1.7547,0.0,0.0,0.0,0.0,0.0,0.0,0.0,0.0,0.0,0.0,0.0,0.0,0.0,0.0,0.0,0.0,0.0,0.0,0.0,0.0,0.0,0.0,-3.5152,-3.7712,-4.5965,-5.0336,-5.0486,-5.0507,-5.0663,-5.099,-5.0966,-4.8526,-4.3389,0.0,0.0,0.0,0.0,0.0,0.0,0.0,0.0,0.0,0.0,0.0,0.0,0.0,0.0,0.0,0.0,0.0,0.0,0.0,0.0,0.0,0.0,0.0,0.0,0.0,0.0,-2.069,-2.2494,-2.3297,0.0,0.0,0.0,0.0,0.0,0.0,0.0,0.0,0.0,0.0,-4.0791,-4.407,-4.5849,-4.6506,-4.6899,-4.6915,-4.5498,-4.4383,-4.4504,-4.4712,-4.3656,0.0,0.0,0.0,0.0,0.0,0.0,0.0,0.0,0.0,0.0,0.0,0.0,0.0,0.0,0.0,0.0,0.0,0.0,0.0,0.0,0.0,0.0,0.0,0.0,0.0,0.0,0.0,-2.4962,-2.3427,0.0,0.0,0.0,0.0,0.0,0.0,0.0,0.0,0.0,0.0,0.0,-3.5677,-3.7602,0.0,0.0,0.0,0.0,0.0,0.0,0.0,0.0,0.0,0.0,0.0,0.0,-3.5229,-3.7941,-4.6003,-5.0306,-5.0374,-5.0445,-5.0547,-5.0663,-5.0752,-4.8376,-4.3281,0.0,0.0,0.0,0.0,0.0,0.0,0.0,0.0,0.0,0.0,0.0,0.0,0.0,0.0,0.0,0.0,0.0,0.0,0.0,0.0,0.0,0.0,0.0,0.0,0.0,-2.4759,0.0,0.0,0.0,0.0,0.0,0.0,0.0,0.0,0.0,0.0,0.0,-3.6524,-3.9844,-4.3303,-4.6031,-4.7567,-4.8365,-4.901,0.0,0.0,0.0,0.0,0.0,0.0,0.0,0.0,0.0,0.0,0.0,0.0,0.0,0.0,-3.662,-2.9855,-2.7975,-2.7332,-2.7184,0.0,0.0,0.0,0.0,0.0,0.0,0.0,0.0,0.0,0.0,0.0,0.0,0.0,0.0,-3.0333,0.0,-2.9155,0.0,0.0,0.0,0.0,0.0,0.0,0.0,0.0,-3.794,-4.0662,-4.1737,-4.3629,-4.3391,0.0,-4.014,-3.68,0.0,0.0,0.0,0.0,0.0,0.0,0.0,0.0,-3.6528,-4.0005,-4.7035,-5.0918,-5.1255,-5.1365,-5.1452,-5.1549,-5.1565,-5.0005,-4.6698,-4.3978,-4.0955,0.0,0.0,0.0,0.0,0.0,0.0,0.0,0.0,0.0,0.0,0.0,0.0,0.0,0.0,0.0,0.0,0.0,0.0,0.0,0.0,0.0,0.0,0.0,-2.7338,0.0,0.0,0.0,0.0,0.0,0.0,0.0,0.0,0.0,-3.1631,-3.668,-4.1335,-4.383,-4.6544,-4.838,-4.8707,0.0,0.0,0.0,0.0,0.0,0.0,0.0,-4.4048,-4.4452,-4.2106,-4.028,-4.0704,-4.3142,-4.4784,-4.3907,0.0,0.0,-3.6784,-3.4821,-3.4286,-3.3785,-3.45,-3.4791,-3.3521,-3.4729,-3.5919,0.0,0.0,0.0,0.0,0.0,0.0,0.0,0.0,-3.6498,-3.5587,0.0,-3.4866,0.0,0.0,0.0,0.0,0.0,0.0,0.0,0.0,-4.6755,-4.9731,-4.9955,-5.074,-5.1196,-5.1196,-4.9489,-4.7087,-4.3719,-3.6729,0.0,0.0,0.0,0.0,0.0,0.0,-3.9146,-4.3958,-4.906,-5.2097,-5.302,-5.3042,-5.3186,-5.3414,-5.3297,-5.3185,-5.307,-4.8948,-4.5851,-4.4017,-3.5572,0.0,0.0,0.0,0.0,0.0,0.0,0.0,0.0,0.0,0.0,0.0,0.0,0.0,0.0,0.0,0.0,0.0,0.0,0.0,0.0,-2.9283,0.0,0.0,0.0,0.0,0.0,0.0,0.0,0.0,0.0,0.0,-3.8023,-4.1456,-4.5235,-4.8128,0.0,0.0,0.0,0.0,-5.117,-4.9671,-4.9974,-5.0096,-4.9029,-4.9717,-5.0305,-5.0043,0.0,0.0,-4.7865,-4.9218,-4.9468,-4.5736,-4.8218,-4.9674,-4.6426,-4.3214,-4.0919,-3.9769,-4.0056,-4.0188,-3.9984,-4.1768,-4.3722,-4.3114,0.0,0.0,0.0,0.0,-3.902,-4.1079,-4.4865,-4.4169,-4.3262,-4.2258,-4.2574,0.0,0.0,0.0,0.0,0.0,0.0,-4.1608,-4.4957,-4.7296,-4.9848,-5.2532,-5.2948,-5.331,-5.3671,-5.3414,-5.271,-5.164,-4.9619,-4.196,-2.9254,0.0,0.0,0.0,0.0,-4.3156,-4.5889,-5.0206,-5.26,-5.29,-5.29,-5.2947,-5.302,-5.2954,-5.2931,-5.2931,-5.1691,-4.9366,-4.5927,-4.2717,0.0,0.0,0.0,0.0,0.0,0.0,0.0,0.0,0.0,0.0,0.0,0.0,0.0,0.0,0.0,0.0,0.0,0.0,0.0,-2.6757,-3.0798,-3.2181,0.0,0.0,0.0,0.0,0.0,0.0,0.0,0.0,0.0,-4.5673,-4.6592,-4.7631,0.0,0.0,-5.1429,-5.0971,-5.2853,-5.4345,-5.4473,0.0,0.0,0.0,-5.2417,-5.1575,-5.3201,-5.3829,-5.3709,-5.2495,-5.3329,-5.3806,-5.2559,-5.3366,-5.3616,-5.215,-4.961,-4.7627,-4.7215,-4.7036,-4.6902,-4.685,-4.7241,-4.7595,-5.0861,-4.7033,-4.3981,-4.3792,-4.5553,-4.4965,-4.7061,-5.0802,-5.019,-4.9452,-4.8701,-4.9122,-4.6497,-4.1717,-4.0853,0.0,0.0,0.0,-4.6505,-4.9885,-5.0773,-5.2463,-5.4742,-5.5282,-5.5646,-5.5958,-5.5788,-5.5815,-5.6036,-5.5511,-4.9463,-3.8536,0.0,0.0,-3.8076,-4.3291,-4.7341,-5.0015,-5.2843,-5.4498,-5.4915,-5.4948,-5.4841,-5.4534,-5.4426,-5.4379,-5.4379,-5.4039,-5.2652,-5.013,-4.7646,-4.4131,0.0,0.0,0.0,0.0,0.0,0.0,0.0,0.0,0.0,0.0,0.0,-2.3116,-1.8952,0.0,0.0,0.0,-2.8973,-3.1345,-3.3772,-3.6288,0.0,0.0,0.0,0.0,0.0,0.0,0.0,-4.2144,-4.6615,-4.9901,-5.0932,-5.1497,-5.1661,-5.133,-5.2628,-5.3569,-5.3569,0.0,-5.7034,-5.7504,-5.7718,-5.7967,-5.8292,-5.6806,-5.6057,-5.7175,-5.7379,-5.7274,-5.6875,-5.7189,-5.7373,-5.7116,-5.7005,-5.6785,-5.5978,-5.4239,-5.2535,-5.1615,-5.118,-5.102,-5.0988,-5.0443,-5.0073,-5.73,-5.6774,-5.0729,-4.934,-5.1142,-5.118,-5.2456,-5.4559,-5.4597,-5.4183,-5.3545,-5.4259,-5.2081,-4.7687,-4.5471,0.0,0.0,-4.9967,-5.2077,-5.5177,-5.6074,-5.6671,-5.6905,-5.7695,-5.8154,-5.8241,-5.7466,-5.7504,-5.823,-5.6778,-5.4371,-5.1238,-5.0278,-4.921,-4.8121,-4.9098,-5.162,-5.5517,-5.6282,-5.7149,-5.805,-5.8187,-5.7927,-5.7156,-5.6967,-5.6875,-5.6875,-5.6078,-5.5594,-5.5441,-5.1123,-4.7837,-4.6003,0.0,0.0,0.0,0.0,0.0,0.0,0.0,0.0,0.0,0.0,0.0,0.0,0.0,0.0,-3.3823,-3.9422,0.0,-4.5313,-4.3869,0.0,0.0,0.0,-3.9088,-4.1074,-4.4666,-4.7341,-4.822,0.0,0.0,-5.4524,0.0,-5.6714,-5.6064,-5.6511,-5.6893,-5.6893,-5.8318,-5.9425,-5.9453,-6.0657,-6.1522,-6.1071,-6.1386,-6.1489,-6.0933,-6.1204,-6.0853,-6.0361,-6.0294,-6.0063,-5.9355,-5.9281,-5.9024,-5.829,-5.7483,-5.6373,-5.4122,-5.3383,-5.317,-5.3066,-5.2498,-5.2083,-6.0642,-6.0492,-5.8915,-5.7187,-5.5423,-5.5423,-5.5761,-5.6286,-5.6286,-5.6174,-5.6023,-5.6211,-5.5648,-5.4521,-5.4048,-5.4327,-5.5246,-5.5578,-5.6255,-5.7167,-5.745,-5.8148,-5.9244,-5.9626,-6.039,-6.1446,-6.142,-6.1516,-6.1669,-6.1325,-6.037,-5.8956,-5.8661,-5.5606,-5.0054,-5.311,-5.5632,-5.7275,-5.7504,-5.7722,-5.7966,-5.7979,-5.7902,-5.7736,-5.7685,-5.766,-5.766,-5.7416,-5.7313,-5.7275,-5.6167,-5.4753,-5.2996,-4.4169,0.0,0.0,0.0,0.0,0.0,0.0,0.0,0.0,0.0,-3.0441,-2.4366,0.0,-3.4149,0.0,-4.4615,-4.7908,-4.4699,-4.6252,0.0,0.0,-4.5218,-4.5163,-4.9328,-5.0711,-5.1653,-5.2499,-5.5679,-5.7825,-5.7815,-5.9235,-6.0425,-6.0776,-6.0056,-5.9491,-5.9529,-6.0943,-6.2013,-6.2022,-6.2366,-6.2566,-6.2544,-6.2582,-6.2655,-6.2062,-6.2029,-6.177,-6.1076,-6.0937,-6.0737,-6.0257,-6.0136,-6.0026,-5.9905,-5.9674,-5.9417,-5.8611,-5.6703,-5.4943,-5.495,-5.4759,-5.4649,-6.1806,-6.1806,-6.1806,-6.0717,-5.9065,-5.9065,-5.9065,-5.9065,-5.9065,-5.9065,-5.9065,-5.9065,-5.9065,-5.9065,-5.9174,-5.9279,-5.9521,-5.9646,-5.9802,-6.0018,-6.0074,-6.0581,-6.1362,-6.1449,-6.1917,-6.2734,-6.2833,-6.2892,-6.2892,-6.2892,-6.2662,-6.2204,-6.2166,-6.0064,-5.6167,-5.7504,-5.8154,-5.7886,-5.8994,-5.9529,-5.9529,-5.9529,-5.8498,-5.632,-5.7313,-5.716,-5.5708,-5.6396,-5.6434,-5.567,-5.5288,-5.4868,-5.418,-4.8258,-4.4951,0.0,0.0,0.0,0.0,0.0,0.0,0.0,0.0,0.0,0.0,0.0,-4.0062,-4.1587,-4.8615,-5.165,-4.8235,-5.0627,-5.2728,-5.3454,-5.2308,-5.2843,-5.6358,-5.6677,-5.7022,-5.7898,-5.9531,-6.0586,-6.0593,-6.197,-6.3123,-6.3441,-6.3432,-6.315,-6.2673,-6.3588,-6.4502,-6.478,-6.4856,-6.4856,-6.4856,-6.4856,-6.4719,-6.433,-6.4219,-6.3988,-6.3356,-6.3123,-6.2983,-6.2733,-6.2598,-6.2598,-6.2548,-6.2242,-6.1948,-6.13,-5.9795,-5.829,-5.7822,-5.7198,-5.6675,-6.2106,-6.2106,-6.2106,-6.2144,-6.2106,-6.2106,-6.1994,-6.1806,-6.1806,-6.1806,-6.1806,-6.1806,-6.1806,-6.1806,-6.1883,-6.1996,-6.2178,-6.2387,-6.2553,-6.2673,-6.2833,-6.2968,-6.3083,-6.3083,-6.3121,-6.3236,-6.3236,-6.3197,-6.3236,-6.3236,-6.3159,-6.3083,-6.3083,-6.2892,-6.2548,-6.1325,-5.9988,-5.8612,-6.0255,-6.1134,-6.1134,-6.1019,-5.888,-5.4791,-5.6893,-5.6816,-5.3951,-5.525,-5.5326,-5.3874,-5.311,-5.311,-5.3798,-5.1811,-5.0359,0.0,-4.6824,0.0,0.0,0.0,0.0,0.0,0.0,0.0,0.0,-4.5214,-4.7143,-4.65,-5.2133,-5.5298,-5.4027,-5.6014,-5.7963,-5.9376,-5.9568,-6.0179,-6.1554,-6.1697,-6.1936,-6.2666,-6.2826,-6.2883,-6.2829,-6.4237,-6.5156,-6.5048,-6.6144,-6.6598,-6.5764,-6.5836,-6.6402,-6.7165,-6.724,-6.6861,-6.6974,-6.7089,-6.6976,-6.6698,-6.6425,-6.6431,-6.5868,-6.5619,-6.5496,-6.5396,-6.5184,-6.5154,-6.5301,-6.464,-6.398,-6.3246,-6.2475,-6.1557,-6.0394,-5.9218,-5.8364,-6.3796,-6.3796,-6.3834,-6.3834,-6.3796,-6.3796,-6.3045,-6.1806,-6.1806,-6.1806,-6.1806,-6.1806,-6.1806,-6.1844,-6.2104,-6.2318,-6.2353,-6.268,-6.2803,-6.2833,-6.2862,-6.3274,-6.3923,-6.3962,-6.4305,-6.4917,-6.4917,-6.4917,-6.4917,-6.4917,-6.4573,-6.3962,-6.3962,-6.293,-6.1019,0.0,0.0,0.0,-5.972,-5.8574,-5.8574,-5.7886,-5.7084,-5.6205,-5.8574,0.0,-5.8994,-5.93,-5.93,-5.8994,-5.8803,0.0,0.0,0.0,0.0,0.0,0.0,0.0,0.0,0.0,0.0,0.0,-4.8002,-4.7133,-4.5394,-5.0187,-5.3148,-5.2627,-5.6675,-5.954,-5.9911,-6.0981,-6.1822,-6.2128,-6.2166,-6.229,-6.2574,-6.2595,-6.2574,-6.2547,-6.3608,-6.4332,-6.4367,-6.5615,-6.648,-6.6553,-6.7668,-6.8403,-6.8091,-6.7416,-6.6974,-6.7088,-6.7275,-6.7124,-6.7088,-6.7162,-6.7311,-6.697,-6.693,-6.6762,-6.6486,-6.6221,-6.5912,-6.5717,-6.539,-6.5396,-6.5411,-6.5139,-6.5139,-6.4861,-6.4714,-6.3759,-6.1031,-6.0188,-5.9979,-6.4284,0.0,-6.4284,-6.4284,0.0,-6.4284,-6.3796,-6.3008,-6.3045,-6.3008,-6.3045,-6.3045,-6.3045,-6.3084,-6.3276,-6.3461,-6.3638,-6.384,-6.3962,-6.4153,-6.4153,-6.4344,-6.4802,-6.4802,-6.4993,-6.5413,-6.5413,-6.5413,-6.5413,-6.5413,-6.5184,-6.4802,-6.4802,-6.4114,-6.293,-6.3732,-6.3923,-6.3541,-6.186,-6.1019,-6.0981,-6.0561,-5.9338,-5.739,0.0,0.0,0.0,0.0,0.0,0.0,0.0,0.0,0.0,0.0,0.0,-5.823,-5.5064,-5.3242,-5.3556,-5.2991,-5.3579,-5.5737,-5.6374,-5.561,-5.3186,-5.6197,-5.8292,-5.847,-6.0446,-6.1946,-6.2718,-6.3214,-6.3566,-6.3993,-6.4413,-6.461,-6.4546,-6.4839,-6.4965,-6.4779,-6.5346,-6.5786,-6.5607,-6.6579,-6.7391,-6.7628,-6.8622,-6.9453,-6.9558,-6.9286,-6.8997,-6.8908,-6.8908,-6.8908,-6.8908,-6.8908,-6.8908,-6.8908,-6.8863,-6.8726,-6.8538,-6.8297,-6.8097,-6.7915,-6.7741,-6.7633,-6.7687,-6.7687,-6.7467,-6.6696,-6.6476,-6.5705,-6.3319,-6.2181,-6.1594,-6.4284,-6.4284,-6.4284,-6.4284,-6.4284,-6.4284,-6.4284,-6.4284,0.0,0.0,0.0,-6.4284,-6.4324,-6.4364,-6.4403,-6.4596,-6.4924,-6.4958,-6.5128,-6.5413,-6.5413,-6.5413,-6.5413,-6.5413,-6.5413,-6.5413,-6.5413,-6.5413,-6.5413,-6.5413,-6.5413,-6.5413,-6.5413,-6.5413,-6.5413,-6.5413,-6.507,-6.442,-6.3809,-6.3541,-6.3503,-6.335,-6.1669,-5.8192,-6.0523,-6.0523,-5.7848,-5.972,-5.9873,-5.7848,-5.7695,-5.8116,-5.8956,-5.8994,-6.0293,-6.3045,-6.2513,-6.2344,-6.2953,-6.2159,-6.1946,-6.28,-6.2905,-6.2325,-6.0967,-6.1462,-6.2254,-6.3244,-6.3435,-6.3787,-6.4343,-6.454,-6.4851,-6.5508,-6.6159,-6.647,-6.64,-6.6885,-6.7083,-6.716,-6.716,-6.7285,-6.7261,-6.7935,-6.8473,-6.89,-6.9755,-7.0437,-7.085,-7.0819,-7.0648,-7.0636,-7.0524,-7.0684,-7.0796,-7.0684,-7.0819,-7.0573,-7.0583,-7.0665,-7.0613,-7.0454,-7.033,-7.0035,-7.0184,-7.0018,-7.0036,-6.9889,-6.9669,-6.8385,-6.8091,-6.7724,-6.6418,-6.4839,-6.3686,-6.4284,-6.4284,-6.4284,-6.4284,-6.4284,-6.4284,-6.4284,-6.4284,-6.4284,-6.4284,-6.4284,-6.4284,-6.4403,-6.4558,-6.4745,-6.4886,-6.509,-6.5252,-6.5383,0.0,-6.5413,-6.5413,-6.5413,-6.5413,-6.5413,-6.5413,-6.5413,-6.5413,-6.5413,-6.5413,-6.5413,-6.5413,-6.5413,-6.5413,-6.5413,-6.5413,-6.5337,-6.5184,-6.2395,-6.0905,-6.0905,-6.0217,-5.9568,-5.9109,-6.1402,-6.2548,-6.2051,-6.2357,-6.2395,-6.2051,-6.2013,-6.2433,-6.3236,-6.3236,-6.3847,-6.4917,-6.4762,-6.4628,-6.4742,-6.4465,-6.4431,-6.4709,-6.4877,-6.4558,-6.3518,-6.3518,-6.3937,-6.487,-6.5518,-6.595,-6.5935,-6.647,-6.6853,-6.6971,-6.6975,-6.6976,-6.6937,-6.7049,-6.7306,-6.7766,-6.8315,-6.8968,-6.9398,-7.006,-7.0459,-7.0735,-7.1093,-7.1828,-7.2166,-7.1553,-7.0791,-7.0717,-7.0717,-7.0665,-7.0798,-7.0597,-7.0708,-7.056,-7.0671,-7.0745,-7.0745,-7.0622,-7.0514,-7.0367,-7.0386,-7.0239,-7.0183,-7.0091,-7.0017,-6.9706,-6.9669,-6.9486,-6.9082,-6.7871,-6.6512,-6.4547,-6.4923,-6.496,-6.5223,-6.5636,-6.5636,-6.5636,-6.5636,-6.5636,-6.5373,-6.496,-6.496,-6.5226,-6.576,-6.5387,-6.5313,-6.5459,-6.5251,-6.5155,-6.5252,-6.5345,-6.5643,-6.6101,-6.6101,-6.633,-6.6713,-6.6751,-6.6751,-6.6713,-6.633,-6.6101,-6.6101,-6.6101,-6.5872,-6.5452,-6.5872,-6.5872,-6.5375,-6.3885,-6.3121,-6.3121,-6.2739,-6.251,-6.251,-6.3694,-6.4267,-6.4267,-6.4267,-6.4267,-6.4267,-6.4267,-6.442,-6.4802,-6.484,-6.5031,-6.5375,-6.5314,-6.541,-6.577,-6.6125,-6.6581,-6.7102,-6.6885,-6.6758,-6.6706,-6.5835,-6.5487,-6.5906,-6.6602,-6.6961,-6.6783,-6.7051,-6.7165,-6.6972,-6.7723,-6.8207,-6.8194,-6.8903,-6.9409,-6.9593,-6.9878,-7.0227,-7.0474,-7.0809,-7.1156,-7.1478,-7.2087,-7.2647,-7.3124,-7.2569,-7.1997,-7.1944,-7.1981,-7.1928,-7.1837,-7.1837,-7.1837,-7.1837,-7.1837,-7.1837,-7.1874,-7.1783,-7.1728,-7.1618,-7.1545,-7.1489,-7.1414,-7.1394,-7.1248,-7.0807,-7.077,-7.066,-7.0127,-6.943,-6.8183,-6.5223,-6.5786,-6.5786,-6.6199,-6.6762,-6.68,-6.68,-6.68,-6.6762,-6.65,-6.6087,-6.5899,-6.6203,-6.6814,-6.6131,-6.599,-6.6181,-6.5722,-6.5593,-6.5721,-6.5887,-6.633,-6.6904,-6.698,-6.7286,-6.7859,-6.7897,-6.7897,-6.7821,-6.7247,-6.698,-6.698,-6.698,-6.6636,-6.5987,-6.6636,-6.6636,-6.5987,-6.5948,-6.5872,-6.5681,-6.5681,-6.5796,-6.5948,-6.5757,-6.5681,-6.5681,-6.5528,-6.5413,-6.5413,-6.5536,-6.5727,-6.5948,-6.6077,-6.6237,-6.6421,-6.6459,-6.6586,-6.695,-6.7559,-6.8092,-6.851,-6.815,-6.8101,-6.8531,-6.7736,-6.6902,-6.6831,-6.7306,-6.7656,-6.7731,-6.7801,-6.7752,-6.7766,-6.8809,-6.9552,-6.9611,-7.0612,-7.1499,-7.1529,-7.164,-7.165,-7.1923,-7.2049,-7.2221,-7.26,-7.2849,-7.3162,-7.332,-7.3268,-7.3199,-7.3145,-7.3091,-7.2963,-7.2982,-7.2908,-7.2908,-7.2982,-7.2908,-7.2834,-7.2871,-7.2945,-7.2945,-7.2669,-7.2669,-7.2539,-7.2573,-7.248,-7.2222,-7.1688,-7.1578,-7.1358,-7.0604,-7.0384,-6.9577,-6.6575,-6.6687,-6.665,-6.6725,-6.6838,-6.6838,-6.6838,-6.6838,-6.68,-6.7176,-6.7626,-6.7025,-6.6892,-6.7203,-6.6974,-6.7127,-6.7621,-6.7478,-6.7398,-6.7528,-6.7668,-6.7706,-6.7782,-6.7782,-6.7821,-6.7935,-6.7973,-6.805,-6.805,-6.7859,-6.7782,-6.7782,-6.7782,-6.7744,-6.7668,-6.7744,-6.7744,-6.7668,-6.7668,-6.7324,-6.6636,-6.6598,-6.6942,-6.763,-6.6942,-6.6598,-6.6529,-6.5834,-6.5413,-6.5452,-6.602,-6.6706,-6.756,-6.8057,-6.8675,-6.9462,-6.9576,-6.9386,-6.8739,-6.8739,-6.8548,-6.7825,-6.7863,-6.7935,-6.8117,-6.843,-6.8288,-6.7766,-6.7997,-6.856,-6.8988,-6.9573,-7.0114,-7.0499,-7.0853,-7.0944,-7.1018,-7.0909,-7.1528,-7.309,-7.3149,-7.367,-7.471,-7.4911,-7.4763,-7.3982,-7.3558,-7.3357,-7.3372,-7.3372,-7.3357,-7.332,-7.3252,-7.3145,-7.3037,-7.2982,-7.3037,-7.3037,-7.2982,-7.3037,-7.3037,-7.3037,-7.2982,-7.2982,-7.2927,-7.2872,-7.2779,-7.2686,-7.265,-7.2333,-7.2202,-7.2129,-7.1468,-7.1211,-7.0606,-6.7063,-6.7476,-6.7476,-6.7776,-6.8189,-6.8227,-6.8227,-6.8227,-6.8227,-6.8415,-6.864,-6.8377,-6.8274,-6.8402,-6.7868,-6.7726,-6.7922,-6.7578,-6.7458,-6.7563,-6.7801,-6.8165,-6.8623,-6.8661,-6.889,-6.9349,-6.9251,-6.9289,-6.9311,-6.889,-6.8394,-6.8012,-6.8394,-6.8394,-6.7973,-6.8297,-6.8231,-6.7736,-6.7597,-6.7642,-6.7753,-6.744,-6.7393,-6.7659,-6.7393,-6.7174,-6.7068,-6.6793,-6.6706,-6.6706,-6.6882,-6.722,-6.7897,-6.7835,-6.807,-6.859,-6.9013,-6.9055,-6.8751,-6.9624,-7.027,-7.0384,-7.0384,-7.0649,-7.1215,-7.0685,-7.0157,-7.0115,-6.9919,-6.975,-6.9941,-7.0883,-7.1626,-7.1938,-7.2583,-7.3178,-7.3178,-7.3536,-7.4153,-7.4747,-7.4821,-7.497,-7.5527,-7.5341,-7.48,-7.4093,-7.3573,-7.3461,-7.3372,-7.3372,-7.3372,-7.3372,-7.3357,-7.3268,-7.3252,-7.3252,-7.3252,-7.3252,-7.3252,-7.3215,-7.3252,-7.3252,-7.3252,-7.3145,-7.3108,-7.3054,-7.2927,-7.2853,-7.2816,-7.2686,-7.2553,-7.2386,-7.2055,-7.2018,-7.1818,-6.7776,-6.8264,-6.834,-6.8677,-6.9241,-6.9466,-6.9579,-6.9616,-6.9804,-6.9879,-6.9917,-6.9879,-6.9917,-6.9766,-6.8828,-6.8382,-6.8436,-6.8072,-6.8111,-6.8337,-6.8662,-6.9222,-6.998,-6.9861,-7.0124,-7.051,-7.0289,-7.0213,-7.0243,-6.9713,-6.9065,-6.8608,-6.9065,-6.9065,-6.8536,-6.8967,-6.8859,-6.8291,-6.8033,-6.83,-6.8754,-6.8411,-6.8142,-6.8177,-6.7987,-6.7802,-6.7655,-6.7574,-6.7531,-6.7531,-6.7542,-6.7806,-6.835,-6.8261,-6.8452,-6.9132,-6.9854,-7.0231,-7.0269,-7.1327,-7.2273,-7.2844,-7.2879,-7.3184,-7.3646,-7.281,-7.2271,-7.2477,-7.2159,-7.1839,-7.1416,-7.2395,-7.3143,-7.3378,-7.4406,-7.5038,-7.509,-7.5633,-7.5984,-7.6191,-7.5931,-7.5824,-7.5787,-7.5246,-7.4569,-7.4048,-7.3713,-7.3513,-7.3513,-7.3513,-7.3513,-7.3513,-7.3513,-7.3461,-7.3424,-7.3372,-7.3372,-7.3372,-7.3372,-7.3372,-7.3372,-7.3372,-7.341,-7.3305,-7.3246,-7.3193,-7.3054,-7.3054,-7.3017,-7.2835,-7.2667,-7.2553,-7.2443,-7.2516,-7.2496,-6.9128,-6.9166,-6.9166,-6.9203,-6.9278,-7.0067,-7.0442,-7.048,-7.1193,-7.1531,-7.1456,-7.1494,-7.1569,-7.1381,-6.9917,-6.9378,-6.9662,-6.9506,-6.9886,-7.0725,-7.0839,-7.1332,-7.2129,-7.1596,-7.1289,-7.1289,-7.0785,-7.0404,-7.0223,-6.9965,-6.9778,-6.974,-6.9853,-6.9816,-6.974,-6.9816,-6.974,-6.9702,-6.9664,-6.9702,-6.974,-6.9508,-6.947,-6.9588,-6.8944,-6.8527,-6.8452,-6.7769,-6.739,-6.7352,-6.7959,-6.8714,-6.9588,-7.0101,-7.103,-7.2633,-7.3619,-7.4067,-7.3954,-7.4104,-7.4218,-7.4331,-7.4293,-7.4412,-7.4426,-7.4161,-7.3959,-7.4117,-7.444,-7.4366,-7.3714,-7.4151,-7.5047,-7.5706,-7.6005,-7.6117,-7.6168,-7.6117,-7.6654,-7.6976,-7.6513,-7.6021,-7.5976,-7.5425,-7.496,-7.4649,-7.4237,-7.3815,-7.3765,-7.3753,-7.3753,-7.3753,-7.3753,-7.3689,-7.3461,-7.3424,-7.3424,-7.3372,-7.3372,-7.3372,-7.3372,-7.3372,-7.341,-7.341,-7.3372,-7.332,-7.3252,-7.3145,-7.3145,-7.2982,-7.2872,-7.2723,-7.2667,-7.2553,-7.2496,-6.9541,-6.9992,-6.9428,-6.9804,-7.078,-7.0592,-7.078,-7.1268,-7.1569,-7.1681,-7.1681,-7.1719,-7.1681,-7.1681,-7.1081,-7.0868,-7.104,-7.1044,-7.1316,-7.17,-7.1821,-7.2052,-7.2241,-7.2092,-7.194,-7.1902,-7.1598,-7.1369,-7.1329,-7.1369,-7.1408,-7.1408,-7.1408,-7.1408,-7.1369,-7.1249,-7.1209,-7.1168,-7.1082,-7.104,-7.0927,-7.0465,-7.039,-7.0927,-6.9806,-6.9126,-6.9005,-6.8787,-6.8714,-6.8714,-6.8813,-6.9382,-7.0534,-7.1165,-7.1896,-7.2905,-7.3452,-7.3829,-7.4305,-7.4922,-7.4959,-7.441,-7.4824,-7.4952,-7.4519,-7.4029,-7.3829,-7.4267,-7.4523,-7.4573,-7.4859,-7.5359,-7.5869,-7.6168,-7.6243,-7.6331,-7.6344,-7.6344,-7.6543,-7.678,-7.6506,-7.6219,-7.5678,-7.5384,-7.5041,-7.4506,-7.4151,-7.4019,-7.3971,-7.3961,-7.395,-7.395,-7.3864,-7.374,-7.3691,-7.3578,-7.3476,-7.3424,-7.3372,-7.3372,-7.3372,-7.3372,-7.3372,-7.341,-7.3372,-7.3372,-7.3305,-7.3252,-7.3199,-7.3145,-7.2982,-7.2872,-7.2723,-7.2667,-7.261,-7.0367,-7.0743,-7.0255,-7.0668,-7.1606,-7.1381,-7.1569,-7.2132,-7.2395,-7.2507,-7.2507,-7.2507,-7.2507,-7.2507,-7.2507,-7.2507,-7.2432,-7.2122,-7.2014,-7.2284,-7.2449,-7.2604,-7.2872,-7.2687,-7.2614,-7.2497,-7.2188,-7.1991,-7.1991,-7.2075,-7.2075,-7.2075,-7.2075,-7.2075,-7.2075,-7.1949,-7.1901,-7.1858,-7.177,-7.1681,-7.1644,-7.1193,-7.1156,-7.1456,-7.0723,-7.0164,-7.0029,-7.0122,-7.0357,-7.0545,-7.0492,-7.0912,-7.1996,-7.2741,-7.3288,-7.368,-7.3846,-7.4229,-7.4882,-7.5351,-7.5434,-7.5023,-7.5436,-7.5605,-7.5178,-7.4561,-7.4598,-7.4974,-7.5388,-7.5671,-7.6016,-7.6518,-7.6656,-7.6481,-7.6492,-7.6504,-7.6648,-7.6695,-7.6592,-7.6404,-7.6375,-7.6009,-7.5357,-7.522,-7.4922,-7.4388,-7.4331,-7.4305,-7.426,-7.4206,-7.4151,-7.4151,-7.4076,-7.4029,-7.3981,-7.3875,-7.3715,-7.3578,-7.3476,-7.3424,-7.3372,-7.3372,-7.3372,-7.3372,-7.3372,-7.3372,-7.341,-7.3305,-7.3305,-7.3252,-7.3145,-7.3037,-7.2927,-7.2779,-7.2667,-7.1681,-7.1681,-7.1719,-7.1681,-7.1982,-7.247,-7.2845,-7.3033,-7.3747,-7.3934,-7.3859,-7.4047,-7.3934,-7.4047,-7.3897,-7.4085,-7.3747,-7.2583,-7.2365,-7.2891,-7.2928,-7.3379,-7.3943,-7.3489,-7.3194,-7.3156,-7.2482,-7.2142,-7.2213,-7.2078,-7.1989,-7.1876,-7.1989,-7.2109,-7.1794,-7.1989,-7.1869,-7.1944,-7.1982,-7.1907,-7.1757,-7.1869,-7.1944,-7.2057,-7.1907,-7.1869,-7.1832,-7.1719,-7.1989,-7.2703,-7.277,-7.3296,-7.3905,-7.4694,-7.5286,-7.5173,-7.5286,-7.5737,-7.63,-7.5849,-7.5897,-7.6037,-7.645,-7.6262,-7.6009,-7.6075,-7.615,-7.63,-7.6976,-7.7614,-7.7539,-7.7565,-7.7475,-7.7107,-7.6948,-7.6965,-7.7149,-7.7278,-7.697,-7.6322,-7.6246,-7.5707,-7.5035,-7.5016,-7.5046,-7.4977,-7.4781,-7.4691,-7.4649,-7.4525,-7.4519,-7.4476,-7.4356,-7.4274,-7.4214,-7.4151,-7.3961,-7.3765,-7.3578,-7.3527,-7.3461,-7.341,-7.3372,-7.3372,-7.3372,-7.3372,-7.3372,-7.3357,-7.3357,-7.3357,-7.3252,-7.3145,-7.3091,-7.2927,-7.2816,-7.2019,-7.2432,-7.1944,-7.2395,-7.3296,-7.3071,-7.3221,-7.3784,-7.4122,-7.4197,-7.4197,-7.4197,-7.4197,-7.4197,-7.4197,-7.4197,-7.416,-7.3634,-7.3559,-7.3747,-7.3784,-7.3897,-7.4085,-7.3943,-7.3876,-7.3838,-7.365,-7.35,-7.3462,-7.3454,-7.3446,-7.3409,-7.3409,-7.3409,-7.3409,-7.3446,-7.3446,-7.3446,-7.3446,-7.3672,-7.4122,-7.3709,-7.3934,-7.4911,-7.4535,-7.4498,-7.5023,-7.3484,-7.2996,-7.3784,-7.3822,-7.3934,-7.431,-7.4986,-7.5399,-7.5399,-7.5399,-7.5774,-7.645,-7.6338,-7.6,-7.5887,-7.5774,-7.5474,-7.5136,-7.5549,-7.5849,-7.5924,-7.6563,-7.7051,-7.7013,-7.7013,-7.7249,-7.756,-7.7071,-7.6881,-7.7192,-7.7442,-7.745,-7.726,-7.7184,-7.703,-7.6726,-7.6349,-7.5893,-7.5818,-7.5436,-7.5051,-7.4935,-7.4929,-7.4615,-7.4649,-7.4535,-7.4644,-7.4538,-7.4515,-7.4301,-7.395,-7.3765,-7.3615,-7.355,-7.3461,-7.3461,-7.3372,-7.3372,-7.3372,-7.3372,-7.3372,-7.3372,-7.3372,-7.3357,-7.3305,-7.3199,-7.3091,-7.2927,-7.2921,-7.3296,-7.2845,-7.3221,-7.4122,-7.3596,-7.3709,-7.416,-7.4197,-7.4197,-7.4197,-7.4197,-7.4197,-7.4197,-7.4197,-7.4197,-7.4197,-7.4197,-7.4197,-7.4197,-7.4197,-7.4197,-7.4197,-7.4197,-7.4197,-7.4197,-7.4197,-7.4197,-7.4197,-7.4498,-7.4648,-7.4648,-7.4948,-7.5098,-7.5136,-7.5136,-7.5136,-7.5098,-7.5098,-7.5361,-7.5587,-7.5061,-7.5136,-7.5887,-7.5361,-7.5399,-7.6,-7.461,-7.4197,-7.4911,-7.5098,-7.5098,-7.5136,-7.5587,-7.5849,-7.5774,-7.5587,-7.5624,-7.6075,-7.5774,-7.5511,-7.5061,-7.5211,-7.5211,-7.4911,-7.5361,-7.5849,-7.5962,-7.6675,-7.7126,-7.7164,-7.7426,-7.7802,-7.8253,-7.7372,-7.7002,-7.7278,-7.7526,-7.7722,-7.7722,-7.7799,-7.7798,-7.7646,-7.7417,-7.696,-7.6883,-7.6389,-7.6007,-7.5968,-7.5888,-7.5728,-7.5645,-7.5835,-7.5631,-7.5079,-7.4832,-7.4673,-7.4301,-7.3912,-7.3753,-7.3624,-7.355,-7.3513,-7.3424,-7.3372,-7.3372,-7.3372,-7.3372,-7.3372,-7.3372,-7.3372,-7.332,-7.3305,-7.3199,-7.3091,-7.4197,-7.4197,-7.4197,-7.4122,-7.4197,-7.4122,-7.4197,-7.431,-7.431,-7.4385,-7.446,-7.4573,-7.4498,-7.4423,-7.461,-7.461,-7.4385,-7.4535,-7.461,-7.4535,-7.446,-7.4385,-7.4423,-7.4535,-7.4648,-7.4535,-7.4535,-7.4498,-7.4648,-7.5173,-7.5436,-7.5511,-7.6075,-7.6563,-7.6413,-7.6638,-7.6488,-7.6375,-7.6375,-7.6338,-7.645,-7.5774,-7.5436,-7.5549,-7.4986,-7.4948,-7.5549,-7.5474,-7.5699,-7.645,-7.6413,-7.63,-7.645,-7.6525,-7.6375,-7.6187,-7.5662,-7.5361,-7.5173,-7.4986,-7.4573,-7.461,-7.5173,-7.5474,-7.5587,-7.6187,-7.6713,-7.6751,-7.7464,-7.7952,-7.8102,-7.8478,-7.8891,-7.894,-7.8069,-7.7597,-7.7675,-7.7832,-7.8141,-7.8217,-7.8139,-7.8175,-7.8292,-7.8177,-7.8062,-7.7949,-7.7684,-7.7379,-7.7301,-7.7108,-7.7252,-7.7173,-7.6865,-7.6549,-7.596,-7.5381,-7.5178,-7.4807,-7.4319,-7.3889,-7.3676,-7.3601,-7.3513,-7.3424,-7.3521,-7.3484,-7.341,-7.341,-7.341,-7.3372,-7.3372,-7.3372,-7.3357,-7.3305,-7.3273,-7.4197,-7.4197,-7.4197,-7.4197,-7.4197,-7.4197,-7.4573,-7.5023,-7.5098,-7.5399,-7.5849,-7.6,-7.5924,-7.6,-7.5924,-7.5962,-7.5887,-7.5962,-7.6037,-7.5962,-7.5324,-7.5098,-7.5249,-7.5662,-7.5924,-7.5887,-7.5812,-7.6,-7.6075,-7.6187,-7.63,-7.63,-7.6563,-7.6713,-7.6713,-7.6751,-7.6638,-7.6525,-7.6,-7.615,-7.6525,-7.5924,-7.5737,-7.6225,-7.6037,-7.6037,-7.6262,-7.63,-7.6338,-7.6563,-7.66,-7.63,-7.5774,-7.5699,-7.5549,-7.5098,-7.4798,-7.4573,-7.4648,-7.4911,-7.5061,-7.5136,-7.5849,-7.63,-7.63,-7.7051,-7.7502,-7.7689,-7.829,-7.8741,-7.8816,-7.8966,-7.9116,-7.9128,-7.8746,-7.8754,-7.8933,-7.9305,-7.955,-7.9627,-7.9705,-7.9666,-7.9589,-7.9283,-7.8978,-7.8864,-7.837,-7.7873,-7.7986,-7.7789,-7.7779,-7.751,-7.724,-7.7117,-7.6765,-7.6149,-7.5638,-7.5313,-7.4751,-7.4084,-7.384,-7.3601,-7.3513,-7.3372,-7.3818,-7.3892,-7.3595,-7.3447,-7.341,-7.3744,-7.367,-7.3781,-7.3521,-7.3432,-7.3437,-7.4197,-7.4235,-7.4573,-7.4723,-7.476,-7.5061,-7.5474,-7.5849,-7.5924,-7.615,-7.6563,-7.66,-7.6638,-7.6675,-7.6675,-7.6638,-7.66,-7.6638,-7.6638,-7.6638,-7.6525,-7.6075,-7.5699,-7.5924,-7.6262,-7.66,-7.6638,-7.66,-7.6713,-7.6976,-7.7126,-7.7239,-7.7502,-7.7689,-7.7764,-7.7689,-7.7652,-7.7614,-7.7164,-7.7239,-7.7614,-7.6863,-7.6713,-7.6976,-7.6863,-7.6713,-7.7089,-7.7464,-7.7239,-7.6413,-7.6075,-7.5737,-7.5023,-7.4911,-7.4798,-7.4648,-7.4685,-7.4873,-7.5249,-7.5699,-7.5887,-7.6075,-7.6675,-7.7051,-7.7314,-7.7915,-7.8403,-7.8478,-7.8891,-7.9041,-7.9116,-7.9116,-7.9116,-7.9079,-7.9263,-7.9406,-7.95,-7.9652,-7.9988,-8.0154,-8.0314,-8.0431,-8.0506,-8.0047,-7.9856,-7.9667,-7.9246,-7.8939,-7.8823,-7.847,-7.8268,-7.8187,-7.8106,-7.8101,-7.7786,-7.7168,-7.6165,-7.5764,-7.5266,-7.4522,-7.42,-7.395,-7.3997,-7.4004,-7.4227,-7.4338,-7.4227,-7.4227,-7.4561,-7.471,-7.445,-7.4338,-7.4264,-7.4041,-7.3972,-7.4235,-7.4385,-7.5098,-7.5436,-7.5624,-7.63,-7.6563,-7.6751,-7.6751,-7.6863,-7.7013,-7.6938,-7.7126,-7.6938,-7.7276,-7.7013,-7.6976,-7.7126,-7.6938,-7.7089,-7.7239,-7.7051,-7.6075,-7.6262,-7.6638,-7.7051,-7.6901,-7.7013,-7.7314,-7.7802,-7.799,-7.8102,-7.8666,-7.9004,-7.8816,-7.8928,-7.9079,-7.8853,-7.8553,-7.8403,-7.8365,-7.7764,-7.7464,-7.7614,-7.7464,-7.7464,-7.8065,-7.8553,-7.8215,-7.5812,-7.5737,-7.5587,-7.4873,-7.461,-7.5173,-7.5812,-7.6075,-7.6262,-7.6675,-7.6863,-7.6901,-7.6938,-7.7539,-7.799,-7.814,-7.859,-7.8966,-7.8966,-7.9079,-7.9116,-7.9116,-7.9116,-7.9116,-7.9116,-7.9116,-7.9214,-7.9406,-7.95,-7.9683,-8.0072,-8.0113,-8.0275,-8.0392,-8.0506,-8.043,-8.0125,-7.9819,-7.9662,-7.9505,-7.9305,-7.9215,-7.9318,-7.9236,-7.9191,-7.8761,-7.8217,-7.7061,-7.6207,-7.5645,-7.5122,-7.4823,-7.4672,-7.4703,-7.4784,-7.4933,-7.5193,-7.5325,-7.5527,-7.5639,-7.5527,-7.5156,-7.5378,-7.5655,-7.523,-7.5028,-7.4573,-7.5136,-7.5324,-7.5812,-7.6375,-7.6563,-7.7013,-7.7614,-7.7614,-7.7915,-7.8403,-7.8553,-7.8515,-7.8553,-7.844,-7.859,-7.844,-7.8403,-7.8253,-7.7652,-7.7727,-7.7764,-7.7464,-7.7802,-7.829,-7.8478,-7.8515,-7.8515,-7.8628,-7.859,-7.8816,-7.8853,-7.8928,-7.9116,-7.9116,-7.9116,-7.9116,-7.9004,-7.8553,-7.829,-7.8215,-7.7689,-7.7539,-7.8065,-7.844,-7.8703,-7.8966,-7.9679,-7.9191,-7.799,-7.7915,-7.7764,-7.6563,-7.7164,-7.7839,-7.8027,-7.8177,-7.8065,-7.7877,-7.8253,-7.829,-7.7839,-7.8365,-7.8853,-7.8853,-7.8928,-7.9116,-7.9116,-7.9116,-7.9116,-7.9116,-7.9116,-7.9116,-7.9116,-7.9116,-7.9116,-7.9177,-7.9359,-7.9546,-7.9683,-7.9822,-7.9958,-8.024,-8.0315,-8.0315,-8.0392,-8.0315,-8.0195,-8.0075,-7.9912,-7.9822,-7.9728,-7.9683,-7.9487,-7.9222,-7.864,-7.7664,-7.6798,-7.6281,-7.5968,-7.5669,-7.5604,-7.5782,-7.5713,-7.5585,-7.5882,-7.629,-7.6121,-7.6121,-7.5973,-7.5973,-7.6159,-7.627,-7.6084,-7.6121,-7.5249,-7.6037,-7.6413,-7.6826,-7.7276,-7.7614,-7.8027,-7.8403,-7.8478,-7.8703,-7.9041,-7.9116,-7.9116,-7.9116,-7.9116,-7.9079,-7.9116,-7.9116,-7.8891,-7.8515,-7.8478,-7.8478,-7.8515,-7.8853,-7.9116,-7.9116,-7.9079,-7.9116,-7.9116,-7.9116,-7.9079,-7.9116,-7.9116,-7.9116,-7.9116,-7.9116,-7.9116,-7.9041,-7.8703,-7.844,-7.8365,-7.8515,-7.8816,-7.9604,-8.0393,-8.0843,-8.0956,-8.1707,-8.1144,-8.0355,-8.0656,-8.0055,-7.7915,-7.8403,-7.9229,-7.9642,-7.9717,-7.9792,-7.9754,-7.9942,-7.9942,-7.9116,-7.9492,-7.9341,-7.9266,-7.9116,-7.9116,-7.9116,-7.9116,-7.9116,-7.9116,-7.9116,-7.9116,-7.9116,-7.9116,-7.9116,-7.9116,-7.9263,-7.9359,-7.9453,-7.96,-7.9778,-7.995,-8.0034,-8.0195,-8.0313,-8.0197,-8.0072,-8.0072,-7.9908,-7.9734,-7.9721,-7.9713,-7.963,-7.9449,-7.8905,-7.8078,-7.7475,-7.7067,-7.6891,-7.6728,-7.6744,-7.6919,-7.6716,-7.6567,-7.7013,-7.731,-7.6976,-7.6827,-7.7087,-7.7162,-7.7013,-7.7013,-7.7162,-7.7236,-7.6075,-7.6938,-7.7614,-7.7952,-7.8177,-7.8778,-7.9004,-7.9079,-7.9116,-7.9041,-7.9116,-7.9116,-7.9116,-7.9116,-7.9116,-7.9116,-7.9116,-7.9116,-7.9004,-7.9004,-7.8966,-7.8966,-7.9004,-7.9079,-7.9116,-7.9116,-7.9116,-7.9116,-7.9116,-7.9116,-7.9116,-7.9116,-7.9116,-7.9116,-7.9116,-7.9116,-7.9116,-7.9079,-7.9266,-7.9304,-7.9417,-7.998,-8.0768,-8.1557,-8.2308,-8.2758,-8.2871,-8.3284,-8.3209,-8.2045,-8.3284,-8.197,-7.998,-7.9417,-8.013,-8.0994,-8.1144,-8.1256,-8.1444,-8.1594,-8.1369,-8.0656,-8.0393,-8.0168,-7.9717,-7.9341,-7.9229,-7.9266,-7.9304,-7.9116,-7.9116,-7.9116,-7.9116,-7.9116,-7.9116,-7.9116,-7.9116,-7.9116,-7.9214,-7.9359,-7.9406,-7.9509,-7.9728,-7.986,-8.0026,-8.0148,-8.003,-7.9988,-7.9946,-7.9865,-7.9734,-7.9607,-7.96,-7.9584,-7.9433,-7.9311,-7.8493,-7.8151,-7.7792,-7.7639,-7.7573,-7.7601,-7.7625,-7.7533,-7.757,-7.7868,-7.8016,-7.7793,-7.7868,-7.8276,-7.8165,-7.7756,-7.7868,-7.8239,-7.8165,-7.6901,-7.7689,-7.7839,-7.8253,-7.8853,-7.9041,-7.9116,-7.9116,-7.9116,-7.9116,-7.9116,-7.9116,-7.9116,-7.9116,-7.9116,-7.9116,-7.9116,-7.9116,-7.9116,-7.9116,-7.9116,-7.9116,-7.9116,-7.9116,-7.9116,-7.9116,-7.9116,-7.9116,-7.9116,-7.9116,-7.9116,-7.9116,-7.9116,-7.9116,-7.9116,-7.9116,-7.9229,-7.9417,-7.983,-8.0168,-8.0355,-8.0956,-8.1782,-8.2571,-8.3359,-8.3697,-8.381,-8.3922,-8.3622,-8.2834,-8.3585,-8.3171,-8.227,-8.2496,-8.2946,-8.3096,-8.3096,-8.2909,-8.2683,-8.2608,-8.2195,-8.1482,-8.0919,-8.0843,-8.0618,-7.998,-7.9567,-7.9642,-7.9417,-7.9116,-7.9116,-7.9116,-7.9116,-7.9116,-7.9116,-7.9116,-7.9116,-7.9116,-7.9116,-7.9214,-7.9214,-7.9263,-7.9453,-7.9638,-7.9772,-7.9898,-7.986,-7.9816,-7.9816,-7.9696,-7.9576,-7.9532,-7.9494,-7.9433,-7.9331,-7.9369,-7.9048,-7.8741,-7.8466,-7.8349,-7.8282,-7.8255,-7.822,-7.7979,-7.7979,-7.8128,-7.8239,-7.8276,-7.8276,-7.8276,-7.8276,-7.8276,-7.8276,-7.8276,-7.8276,-7.7764,-7.8478,-7.8515,-7.8741,-7.9079,-7.9116,-7.9116,-7.9116,-7.9116,-7.9116,-7.9116,-7.9116,-7.9116,-7.9116,-7.9116,-7.9116,-7.9116,-7.9116,-7.9116,-7.9116,-7.9116,-7.9116,-7.9116,-7.9116,-7.9116,-7.9116,-7.9116,-7.9116,-7.9116,-7.9116,-7.9116,-7.9116,-7.9116,-7.9116,-7.9229,-7.9567,-7.9717,-7.9942,-8.0543,-8.1031,-8.1106,-8.182,-8.2608,-8.3359,-8.381,-8.4073,-8.411,-8.411,-8.3922,-8.366,-8.3885,-8.381,-8.3735,-8.3772,-8.411,-8.411,-8.411,-8.396,-8.3547,-8.3472,-8.3096,-8.2345,-8.1782,-8.1332,-8.0956,-8.0243,-7.983,-7.9604,-7.9529,-7.9116,-7.9116,-7.9116,-7.9116,-7.9116,-7.9116,-7.9116,-7.9116,-7.9116,-7.9116,-7.9116,-7.9165,-7.9214,-7.9263,-7.9406,-7.9546,-7.9638,-7.9683,-7.9638,-7.9676,-7.9554,-7.9479,-7.9487,-7.9487,-7.9479,-7.9369,-7.9369,-7.9311,-7.9116,-7.8915,-7.876,-7.8602,-7.8441,-7.8332,-7.8202,-7.8276,-7.8276,-7.8276,-7.8276,-7.8276,-7.8276,-7.8276,-7.8276,-7.8276,-7.8276,-7.8276,-7.8515,-7.9116,-7.9116,-7.9116,-7.9116,-7.9116,-7.9116,-7.9116,-7.9116,-7.9116,-7.9116,-7.9116,-7.9116,-7.9116,-7.9116,-7.9116,-7.9116,-7.9116,-7.9116,-7.9116,-7.9116,-7.9116,-7.9116,-7.9116,-7.9116,-7.9116,-7.9116,-7.9116,-7.9116,-7.9116,-7.9191,-7.9417,-7.9417,-7.9492,-7.983,-8.0393,-8.0581,-8.0881,-8.1407,-8.1857,-8.2233,-8.2721,-8.3359,-8.3998,-8.411,-8.411,-8.411,-8.411,-8.411,-8.4035,-8.4073,-8.4073,-8.411,-8.411,-8.411,-8.411,-8.411,-8.411,-8.4073,-8.4035,-8.3697,-8.3096,-8.2909,-8.2158,-8.1594,-8.1069,-8.0243,-7.9379,-7.9116,-7.9116,-7.9116,-7.9116,-7.9116,-7.9116,-7.9116,-7.9116,-7.9116,-7.9116,-7.9116,-7.9116,-7.9116,-7.9116,-7.9214,-7.9214,-7.9359,-7.9359,-7.9406,-7.9453,-7.9406,-7.9397,-7.9321,-7.9462,-7.9509,-7.9509,-7.9462,-7.9453,-7.9311,-7.9116,-7.8915,-7.8708,-7.8602,-7.8495,-7.8386,-7.8276,-7.8276,-7.8276,-7.8276,-7.8276,-7.8276,-7.8276,-7.8276,-7.8276,-7.8276,-7.8276,-7.8276,-7.9004,-7.9116,-7.9116,-7.9116,-7.9116,-7.9116,-7.9116,-7.9116,-7.9116,-7.9116,-7.9116,-7.9116,-7.9116,-7.9116,-7.9116,-7.9116,-7.9116,-7.9116,-7.9116,-7.9116,-7.9116,-7.9116,-7.9116,-7.9116,-7.9116,-7.9116,-7.9116,-7.9116,-7.9116,-7.9116,-7.9454,-7.9905,-8.0092,-8.0468,-8.0768,-8.1256,-8.1444,-8.1594,-8.227,-8.3021,-8.3547,-8.3772,-8.396,-8.4035,-8.411,-8.411,-8.411,-8.411,-8.411,-8.411,-8.411,-8.411,-8.411,-8.411,-8.411,-8.411,-8.411,-8.411,-8.411,-8.411,-8.4073,-8.3697,-8.3284,-8.3209,-8.2571,-8.1632,-8.0468,-7.9266,-7.9116,-7.9116,-7.9116,-7.9116,-7.9116,-7.9116,-7.9116,-7.9116,-7.9116,-7.9116,-7.9116,-7.9116,-7.9116,-7.9116,-7.9116,-7.9116,-7.9165,-7.9165,-7.9165,-7.9214,-7.9214,-7.9252,-7.9301,-7.9359,-7.9416,-7.95,-7.9453,-7.9453,-7.9359,-7.9165,-7.8915,-7.8708,-7.8602,-7.8495,-7.8386,-7.8276,-7.8276,-7.8276,-7.8276,-7.8276,-7.8276,-7.8276,-7.8276,-7.8276,-7.8276,-7.8276,-7.8276,-7.9116,-7.9116,-7.9116,-7.9116,-7.9116,-7.9116,-7.9116,-7.9116,-7.9116,-7.9116,-7.9116,-7.9116,-7.9116,-7.9116,-7.9116,-7.9116,-7.9116,-7.9116,-7.9116,-7.9116,-7.9116,-7.9116,-7.9116,-7.9116,-7.9116,-7.9154,-7.9116,-7.9116,-7.9116,-7.9191,-7.9379,-7.9717,-8.0205,-8.043,-8.1332,-8.1895,-8.2195,-8.2533,-8.3096,-8.3697,-8.3998,-8.411,-8.411,-8.411,-8.411,-8.411,-8.411,-8.411,-8.411,-8.411,-8.411,-8.411,-8.411,-8.411,-8.411,-8.411,-8.411,-8.411,-8.411,-8.411,-8.411,-8.4073,-8.366,-8.3322,-8.2646,-8.1256,-8.0092,-7.9229,-7.9116,-7.9116,-7.9116,-7.9116,-7.9116,-7.9116,-7.9116,-7.9116,-7.9116,-7.9116,-7.9116,-7.9116,-7.9116,-7.9116,-7.9116,-7.9116,-7.9116,-7.9116,-7.9116,-7.9165,-7.9165,-7.9165,-7.9214,-7.9273,-7.9369,-7.9453,-7.9453,-7.9406,-7.9311,-7.9116,-7.8864,-7.8708,-7.8655,-7.8549,-7.8386,-7.8276,-7.8276,-7.8276,-7.8276,-7.8276,-7.8276,-7.8276,-7.8276,-7.8276,-7.8276,-7.8276,-7.8276,-7.9116,-7.9116,-7.9116,-7.9116,-7.9116,-7.9116,-7.9116,-7.9116,-7.9116,-7.9116,-7.9116,-7.9116,-7.9116,-7.9116,-7.9116,-7.9116,-7.9116,-7.9116,-7.9116,-7.9116,-7.9116,-7.9116,-7.9116,-7.9116,-7.9266,-7.9417,-7.9567,-7.9679,-7.983,-7.983,-7.9905,-7.9792,-8.0881,-8.1294,-8.167,-8.2458,-8.3134,-8.3209,-8.3697,-8.4035,-8.411,-8.411,-8.411,-8.411,-8.411,-8.411,-8.411,-8.411,-8.411,-8.411,-8.411,-8.411,-8.411,-8.411,-8.411,-8.411,-8.411,-8.411,-8.411,-8.411,-8.411,-8.4035,-8.3735,-8.3021,-8.182,-8.0205,-7.9229,-7.9154,-7.9116,-7.9116,-7.9116,-7.9116,-7.9116,-7.9116,-7.9116,-7.9116,-7.9116,-7.9116,-7.9116,-7.9116,-7.9116,-7.9116,-7.9116,-7.9116,-7.9116,-7.9116,-7.9116,-7.9116,-7.9116,-7.9116,-7.9165,-7.9225,-7.9225,-7.9311,-7.9263,-7.9263,-7.9214,-7.9116,-7.8864,-7.8708,-7.8655,-7.8495,-7.8332,-7.8276,-7.8276,-7.8276,-7.8276,-7.8276,-7.8276,-7.8276,-7.8276,-7.8276,-7.8276,-7.8276,-7.8276,-7.9116,-7.9116,-7.9116,-7.9116,-7.9116,-7.9116,-7.9116,-7.9116,-7.9154,-7.9229,-7.9341,-7.9154,-7.9229,-7.9154,-7.9154,-7.9116,-7.9116,-7.9116,-7.9116,-7.9116,-7.9116,-7.9116,-7.9154,-7.9266,-7.9567,-8.0092,-8.0243,-8.0693,-8.1181,-8.1144,-8.1294,-8.1519,-8.1895,-8.2909,-8.3322,-8.3472,-8.381,-8.3847,-8.4035,-8.4073,-8.411,-8.411,-8.411,-8.411,-8.411,-8.411,-8.411,-8.411,-8.411,-8.411,-8.411,-8.411,-8.411,-8.411,-8.411,-8.411,-8.411,-8.411,-8.411,-8.411,-8.4073,-8.3885,-8.3322,-8.2496,-8.1444,-8.0731,-7.998,-7.9229,-7.9116,-7.9116,-7.9116,-7.9116,-7.9116,-7.9116,-7.9116,-7.9116,-7.9116,-7.9116,-7.9116,-7.9116,-7.9116,-7.9116,-7.9116,-7.9116,-7.9116,-7.9116,-7.9116,-7.9116,-7.9116,-7.9116,-7.9116,-7.9165,-7.9116,-7.9116,-7.9016,-7.9016,-7.9116,-7.9016,-7.8812,-7.876,-7.8708,-7.8495,-7.8313,-7.8276,-7.8276,-7.8276,-7.8276,-7.8276,-7.8276,-7.8276,-7.8276,-7.8276,-7.8276,-7.8276,-7.8276,-7.9116,-7.9116,-7.9116,-7.9116,-7.9116,-7.9116,-7.9116,-7.9191,-7.9679,-8.0205,-8.0543,-8.0168,-7.9905,-7.9754,-7.9266,-7.9116,-7.9116,-7.9116,-7.9116,-7.9116,-7.9116,-7.9116,-7.9229,-7.9642,-8.0092,-8.0505,-8.0843,-8.1219,-8.1519,-8.212,-8.2308,-8.2496,-8.2758,-8.2871,-8.3322,-8.3885,-8.4073,-8.411,-8.411,-8.411,-8.411,-8.411,-8.411,-8.411,-8.411,-8.411,-8.411,-8.411,-8.411,-8.411,-8.411,-8.411,-8.411,-8.411,-8.411,-8.411,-8.411,-8.411,-8.4073,-8.4035,-8.3885,-8.3171,-8.2533,-8.1745,-8.0994,-8.013,-7.9604,-7.9191,-7.9116,-7.9116,-7.9116,-7.9116,-7.9116,-7.9116,-7.9116,-7.9116,-7.9116,-7.9116,-7.9116,-7.9116,-7.9116,-7.9116,-7.9116,-7.9116,-7.9116,-7.9116,-7.9116,-7.9116,-7.9116,-7.9116,-7.9116,-7.9066,-7.9066,-7.9016,-7.8915,-7.8966,-7.9066,-7.8915,-7.876,-7.8708,-7.8602,-7.8441,-7.8276,-7.8276,-7.8276,-7.8276,-7.8276,-7.8276,-7.8276,-7.8276,-7.8276,-7.8276,-7.8276,-7.8276,-7.8276,-7.9116,-7.9116,-7.9116,-7.9116,-7.9116,-7.9379,-7.9492,-7.9642,-8.0393,-8.1031,-8.1557,-8.0994,-8.0581,-8.028,-7.983,-7.9266,-7.9191,-7.9116,-7.9116,-7.9116,-7.9116,-7.9266,-7.9604,-8.0055,-8.0618,-8.1031,-8.1594,-8.2045,-8.2571,-8.2984,-8.3134,-8.3209,-8.3171,-8.3284,-8.3434,-8.3735,-8.411,-8.411,-8.411,-8.411,-8.411,-8.411,-8.411,-8.411,-8.411,-8.411,-8.411,-8.411,-8.411,-8.411,-8.411,-8.411,-8.411,-8.411,-8.411,-8.411,-8.411,-8.411,-8.4073,-8.3772,-8.3472,-8.2909,-8.1782,-8.1069,-8.0355,-7.9642,-7.9191,-7.9154,-7.9116,-7.9116,-7.9116,-7.9116,-7.9116,-7.9116,-7.9116,-7.9116,-7.9116,-7.9116,-7.9116,-7.9116,-7.9116,-7.9116,-7.9116,-7.9116,-7.9116,-7.9116,-7.9116,-7.9116,-7.9116,-7.9116,-7.9116,-7.9066,-7.9016,-7.8915,-7.8864,-7.8812,-7.8775,-7.8708,-7.8549,-7.8602,-7.8495,-7.8332,-7.8276,-7.8276,-7.8276,-7.8276,-7.8276,-7.8276,-7.8276,-7.8276,-7.8276,-7.8276,-7.8276,-7.8276,-7.8276,-7.9116,-7.9116,-7.9154,-7.9154,-7.9304,-8.0017,-8.028,-8.0355,-8.1181,-8.167,-8.1857,-8.1632,-8.1144,-8.0581,-8.028,-7.983,-7.9379,-7.9266,-7.9304,-7.9454,-7.9604,-7.9792,-8.0205,-8.0693,-8.1369,-8.2458,-8.2834,-8.3171,-8.381,-8.3772,-8.3885,-8.3922,-8.3847,-8.3885,-8.4035,-8.4073,-8.411,-8.411,-8.411,-8.411,-8.411,-8.411,-8.411,-8.411,-8.411,-8.411,-8.411,-8.411,-8.411,-8.411,-8.411,-8.411,-8.411,-8.411,-8.411,-8.411,-8.411,-8.411,-8.4073,-8.3322,-8.2834,-8.2533,-8.1407,-8.0543,-8.0205,-7.9642,-7.9116,-7.9116,-7.9116,-7.9116,-7.9116,-7.9116,-7.9116,-7.9116,-7.9116,-7.9116,-7.9116,-7.9116,-7.9116,-7.9116,-7.9116,-7.9116,-7.9116,-7.9116,-7.9116,-7.9116,-7.9116,-7.9116,-7.9116,-7.9116,-7.9116,-7.9066,-7.8966,-7.8864,-7.876,-7.8602,-7.8549,-7.8441,-7.8386,-7.8441,-7.8349,-7.8294,-7.8239,-7.8276,-7.8276,-7.8276,-7.8276,-7.8276,-7.8276,-7.8276,-7.8276,-7.8276,-7.8276,-7.8276,-7.8276,-7.9116,-7.9154,-7.9717,-7.9942,-8.0017,-8.0243,-8.0393,-8.0618,-8.1782,-8.2721,-8.3021,-8.2721,-8.197,-8.1294,-8.0618,-8.0243,-8.0017,-7.998,-8.0092,-8.0693,-8.0618,-8.0881,-8.1256,-8.167,-8.2233,-8.2834,-8.3284,-8.3697,-8.4035,-8.411,-8.411,-8.411,-8.411,-8.411,-8.411,-8.411,-8.411,-8.411,-8.411,-8.411,-8.411,-8.411,-8.411,-8.411,-8.411,-8.411,-8.411,-8.411,-8.411,-8.411,-8.411,-8.411,-8.411,-8.411,-8.411,-8.411,-8.411,-8.411,-8.3735,-8.2984,-8.2045,-8.167,-8.1031,-8.0092,-7.9604,-7.9341,-7.9154,-7.9116,-7.9116,-7.9116,-7.9116,-7.9116,-7.9116,-7.9116,-7.9116,-7.9116,-7.9116,-7.9116,-7.9116,-7.9116,-7.9116,-7.9116,-7.9116,-7.9116,-7.9116,-7.9116,-7.9116,-7.9116,-7.9116,-7.9116,-7.9116,-7.9016,-7.8915,-7.8812,-7.8655,-7.8495,-7.8386,-7.8276,-7.8276,-7.8276,-7.8239,-7.809,-7.8146,-7.8127,-7.8221,-7.8276,-7.8276,-7.8276,-7.8276,-7.8276,-7.8276,-7.8276,-7.8276,-7.8276,-7.8276,-7.9304,-7.9604,-8.013,-8.0543,-8.0843,-8.1106,-8.1369,-8.182,-8.2796,-8.3434,-8.3434,-8.2984,-8.2345,-8.1594,-8.1106,-8.0806,-8.0806,-8.0806,-8.0881,-8.1594,-8.1594,-8.1707,-8.2083,-8.2571,-8.2871,-8.3284,-8.3697,-8.411,-8.411,-8.411,-8.411,-8.411,-8.411,-8.411,-8.411,-8.411,-8.411,-8.411,-8.411,-8.411,-8.411,-8.411,-8.411,-8.411,-8.411,-8.411,-8.411,-8.411,-8.411,-8.411,-8.411,-8.411,-8.411,-8.411,-8.411,-8.411,-8.411,-8.396,-8.3359,-8.2496,-8.167,-8.1144,-8.0393,-7.9717,-7.9229,-7.9154,-7.9116,-7.9116,-7.9116,-7.9116,-7.9116,-7.9116,-7.9116,-7.9116,-7.9116,-7.9116,-7.9116,-7.9116,-7.9116,-7.9116,-7.9116,-7.9116,-7.9116,-7.9116,-7.9116,-7.9116,-7.9116,-7.9116,-7.9116,-7.9116,-7.9066,-7.8966,-7.8864,-7.8708,-7.8549,-7.8349,-7.8276,-7.8165,-7.8108,-7.8108,-7.8014,-7.7957,-7.7977,-7.8034,-7.8183,-7.8276,-7.8276,-7.8276,-7.8276,-7.8276,-7.8276,-7.8276,-7.8276,-7.8276,-7.8276,-7.9642,-8.0355,-8.043,-8.0956,-8.167,-8.242,-8.3209,-8.3998,-8.4035,-8.3585,-8.2871,-8.2946,-8.2458,-8.1745,-8.1594,-8.1632,-8.1632,-8.1632,-8.182,-8.1857,-8.212,-8.242,-8.2683,-8.2984,-8.3359,-8.381,-8.411,-8.411,-8.411,-8.411,-8.411,-8.411,-8.411,-8.411,-8.411,-8.411,-8.411,-8.411,-8.411,-8.411,-8.411,-8.411,-8.411,-8.411,-8.411,-8.411,-8.411,-8.411,-8.411,-8.411,-8.411,-8.411,-8.411,-8.411,-8.411,-8.411,-8.411,-8.3697,-8.2984,-8.212,-8.1294,-8.0656,-7.9754,-7.9266,-7.9116,-7.9116,-7.9116,-7.9116,-7.9116,-7.9116,-7.9116,-7.9116,-7.9116,-7.9116,-7.9116,-7.9116,-7.9116,-7.9116,-7.9116,-7.9116,-7.9116,-7.9116,-7.9116,-7.9116,-7.9116,-7.9116,-7.9116,-7.9116,-7.9116,-7.9066,-7.9016,-7.8915,-7.8812,-7.8655,-7.8458,-7.8294,-7.8127,-7.7994,-7.7879,-7.782,-7.782,-7.7783,-7.7842,-7.7957,-7.8127,-7.8276,-7.8276,-7.8276,-7.8276,-7.8276,-7.8276,-7.8276,-7.8276,-7.8276,-7.8276,-8.0168,-8.0505,-8.1632,-8.227,-8.2571,-8.3359,-8.3885,-8.4073,-8.411,-8.3622,-8.2834,-8.3472,-8.2834,-8.1707,-8.2195,-8.2383,-8.2458,-8.2533,-8.2946,-8.3059,-8.3096,-8.3472,-8.3622,-8.366,-8.3885,-8.3998,-8.411,-8.411,-8.411,-8.411,-8.411,-8.411,-8.411,-8.411,-8.411,-8.411,-8.411,-8.411,-8.411,-8.411,-8.411,-8.411,-8.411,-8.411,-8.411,-8.411,-8.411,-8.411,-8.411,-8.411,-8.411,-8.411,-8.411,-8.411,-8.411,-8.411,-8.4035,-8.3735,-8.2871,-8.2045,-8.1181,-8.0355,-7.9567,-7.9229,-7.9116,-7.9116,-7.9116,-7.9116,-7.9116,-7.9116,-7.9116,-7.9116,-7.9116,-7.9116,-7.9116,-7.9116,-7.9116,-7.9116,-7.9116,-7.9116,-7.9116,-7.9116,-7.9116,-7.9116,-7.9116,-7.9116,-7.9116,-7.9116,-7.9029,-7.9029,-7.8929,-7.8864,-7.876,-7.8565,-7.8404,-7.8239,-7.8014,-7.7879,-7.7762,-7.7643,-7.7547,-7.7607,-7.7725,-7.79,-7.8108,-7.8221,-7.8276,-7.8276,-7.8276,-7.8276,-7.8276,-7.8276,-7.8276,-7.8276,-7.8276,-8.0581,-8.1031,-8.227,-8.2984,-8.3397,-8.3885,-8.411,-8.411,-8.411,-8.3622,-8.2909,-8.3322,-8.3021,-8.2308,-8.2571,-8.2946,-8.3322,-8.3322,-8.3585,-8.3772,-8.411,-8.4035,-8.4073,-8.411,-8.4073,-8.411,-8.411,-8.411,-8.411,-8.411,-8.411,-8.411,-8.411,-8.411,-8.411,-8.411,-8.411,-8.411,-8.411,-8.411,-8.411,-8.411,-8.411,-8.411,-8.411,-8.411,-8.411,-8.411,-8.411,-8.411,-8.411,-8.411,-8.411,-8.411,-8.411,-8.4035,-8.3622,-8.3096,-8.2308,-8.1519,-8.0731,-8.0055,-7.9417,-7.9229,-7.9116,-7.9116,-7.9116,-7.9116,-7.9116,-7.9116,-7.9116,-7.9116,-7.9116,-7.9116,-7.9116,-7.9116,-7.9116,-7.9116,-7.9116,-7.9116,-7.9116,-7.9116,-7.9116,-7.9116,-7.9116,-7.9116,-7.9066,-7.9066,-7.9029,-7.8991,-7.8878,-7.8775,-7.8618,-7.8512,-7.8349,-7.8127,-7.7957,-7.7725,-7.7584,-7.7463,-7.7365,-7.7426,-7.7547,-7.7842,-7.8108,-7.8165,-7.8276,-7.8276,-7.8276,-7.8276,-7.8276,-7.8276,-7.8276,-7.8276,-7.8276,-8.0956,-8.1782,-8.2571,-8.3397,-8.4035,-8.411,-8.411,-8.411,-8.411,-8.3622,-8.2946,-8.2946,-8.2984,-8.2721,-8.2984,-8.3397,-8.3735,-8.3885,-8.3885,-8.411,-8.411,-8.411,-8.411,-8.411,-8.411,-8.411,-8.411,-8.411,-8.411,-8.411,-8.411,-8.411,-8.411,-8.411,-8.411,-8.411,-8.411,-8.411,-8.411,-8.411,-8.411,-8.411,-8.411,-8.411,-8.411,-8.411,-8.411,-8.411,-8.411,-8.411,-8.411,-8.411,-8.411,-8.3885,-8.3922,-8.366,-8.3096,-8.2345,-8.1632,-8.0919,-8.0168,-7.9567,-7.9116,-7.9116,-7.9116,-7.9116,-7.9116,-7.9116,-7.9116,-7.9116,-7.9116,-7.9116,-7.9116,-7.9116,-7.9116,-7.9116,-7.9116,-7.9116,-7.9116,-7.9116,-7.9116,-7.9116,-7.9116,-7.9116,-7.9116,-7.9116,-7.9066,-7.9016,-7.8929,-7.8854,-7.8789,-7.8671,-7.8512,-7.8349,-7.8239,-7.8014,-7.7842,-7.7666,-7.7524,-7.7402,-7.7304,-7.7365,-7.7426,-7.7666,-7.7957,-7.8165,-7.8276,-7.8276,-7.8276,-7.8276,-7.8276,-7.8276,-7.8276,-7.8276,-7.8276,-8.1782,-8.2608,-8.3434,-8.3922,-8.4073,-8.411,-8.411,-8.411,-8.411,-8.3622,-8.3021,-8.3397,-8.3397,-8.3021,-8.3509,-8.3885,-8.3998,-8.411,-8.411,-8.411,-8.411,-8.411,-8.411,-8.411,-8.411,-8.411,-8.411,-8.411,-8.411,-8.411,-8.411,-8.411,-8.411,-8.411,-8.411,-8.411,-8.411,-8.411,-8.411,-8.411,-8.411,-8.411,-8.411,-8.411,-8.411,-8.411,-8.411,-8.411,-8.411,-8.411,-8.411,-8.411,-8.411,-8.3509,-8.3171,-8.2984,-8.2458,-8.167,-8.0956,-8.043,-7.9867,-7.9417,-7.9116,-7.9116,-7.9116,-7.9116,-7.9116,-7.9116,-7.9116,-7.9116,-7.9116,-7.9116,-7.9116,-7.9116,-7.9116,-7.9116,-7.9116,-7.9116,-7.9116,-7.9116,-7.9116,-7.9116,-7.9116,-7.9116,-7.9116,-7.9066,-7.8966,-7.8915,-7.8827,-7.8738,-7.8581,-7.8512,-7.8441,-7.8276,-7.8071,-7.7957,-7.7783,-7.7607,-7.7426,-7.7365,-7.7279,-7.7268,-7.7389,-7.757,-7.7783,-7.8014,-7.8183,-7.8276,-7.8276,-7.8221,-7.8276,-7.8276,-7.8276,-7.8276,-7.8276,-8.2083,-8.2909,-8.3735,-8.411,-8.411,-8.411,-8.411,-8.411,-8.411,-8.3847,-8.3472,-8.381,-8.381,-8.3397,-8.3922,-8.411,-8.411,-8.411,-8.411,-8.411,-8.411,-8.411,-8.411,-8.411,-8.411,-8.411,-8.411,-8.411,-8.411,-8.411,-8.411,-8.411,-8.411,-8.411,-8.411,-8.411,-8.411,-8.411,-8.411,-8.411,-8.411,-8.411,-8.411,-8.411,-8.411,-8.411,-8.411,-8.411,-8.411,-8.411,-8.411,-8.411,-8.4035,-8.3772,-8.3284,-8.2758,-8.212,-8.1256,-8.0543,-8.0017,-7.9679,-7.9266,-7.9116,-7.9116,-7.9116,-7.9116,-7.9116,-7.9116,-7.9116,-7.9116,-7.9116,-7.9116,-7.9116,-7.9116,-7.9116,-7.9116,-7.9116,-7.9116,-7.9116,-7.9116,-7.9116,-7.9116,-7.9116,-7.9116,-7.9116,-7.9066,-7.8966,-7.8827,-7.8775,-7.8581,-7.8458,-7.8294,-7.8221,-7.8127,-7.8071,-7.7842,-7.7703,-7.7547,-7.7426,-7.7243,-7.7118,-7.7206,-7.7292,-7.7413,-7.7592,-7.7846,-7.7997,-7.8183,-7.8108,-7.8051,-7.8165,-7.8276,-7.8276,-7.8221,-7.8258,-8.227,-8.3021,-8.381,-8.411,-8.411,-8.411,-8.411,-8.411,-8.411,-8.411,-8.4035,-8.4073,-8.411,-8.411,-8.411,-8.411,-8.411,-8.411,-8.411,-8.411,-8.411,-8.411,-8.411,-8.411,-8.411,-8.411,-8.411,-8.411,-8.411,-8.411,-8.411,-8.411,-8.411,-8.411,-8.411,-8.411,-8.411,-8.411,-8.411,-8.411,-8.411,-8.411,-8.411,-8.411,-8.411,-8.411,-8.411,-8.411,-8.411,-8.3998,-8.3922,-8.3772,-8.3509,-8.3209,-8.2721,-8.212,-8.1332,-8.0693,-8.0168,-7.9567,-7.9304,-7.9116,-7.9116,-7.9116,-7.9116,-7.9116,-7.9116,-7.9116,-7.9116,-7.9116,-7.9116,-7.9116,-7.9116,-7.9116,-7.9116,-7.9116,-7.9116,-7.9116,-7.9116,-7.9116,-7.9116,-7.9116,-7.9116,-7.9116,-7.9066,-7.9066,-7.8929,-7.884,-7.8686,-7.8437,-7.8275,-7.8146,-7.8014,-7.7957,-7.79,-7.7783,-7.7643,-7.7463,-7.7304,-7.7092,-7.6929,-7.6956,-7.7045,-7.7194,-7.74,-7.7657,-7.7809,-7.8034,-7.792,-7.7842,-7.796,-7.8072,-7.7994,-7.7994,-7.8145,-8.3096,-8.3847,-8.4035,-8.411,-8.411,-8.411,-8.411,-8.411,-8.411,-8.411,-8.411,-8.411,-8.411,-8.411,-8.411,-8.411,-8.411,-8.411,-8.411,-8.411,-8.411,-8.411,-8.411,-8.411,-8.411,-8.411,-8.411,-8.411,-8.411,-8.411,-8.411,-8.411,-8.411,-8.411,-8.411,-8.411,-8.411,-8.411,-8.411,-8.411,-8.411,-8.411,-8.411,-8.411,-8.411,-8.411,-8.411,-8.411,-8.411,-8.3922,-8.3472,-8.3171,-8.2796,-8.2233,-8.1632,-8.1294,-8.0505,-8.0017,-7.9492,-7.9266,-7.9116,-7.9116,-7.9116,-7.9116,-7.9116,-7.9116,-7.9116,-7.9116,-7.9116,-7.9116,-7.9116,-7.9116,-7.9116,-7.9116,-7.9116,-7.9116,-7.9116,-7.9116,-7.9116,-7.9116,-7.9116,-7.9116,-7.9079,-7.9066,-7.9016,-7.8966,-7.8812,-7.8671,-7.8565,-7.8329,-7.809,-7.794,-7.7783,-7.7762,-7.7643,-7.7703,-7.7524,-7.7402,-7.7217,-7.7002,-7.6773,-7.6672,-7.6793,-7.7009,-7.7242,-7.7467,-7.7657,-7.7866,-7.7805,-7.7783,-7.7792,-7.7831,-7.7731,-7.7703,-7.7857]}]]